[[{"header":{"parameterUnit":"m.s-1","parameterCategory":1,"la1":31.0,"la2":29.5877,"lo1":-88.7671,"lo2":-86.6584,"dy":0.0162,"dx":0.0185,"nx":115,"ny":88,"refTime":"2023-04-07T12:00:00:Z","depth":0,"parameterNumber":2,"parameterNumberName":"U-component_of_WINDS"},"data":[0.0,0.0,0.0,0.0,0.0,0.0,0.0,0.0,0.0,0.0,0.0,0.0,0.0,0.0,0.0,0.0,0.0,0.0,0.0,0.0,0.0,0.0,0.0,0.0,0.0,0.0,0.0,0.0,0.0,0.0,0.0,0.0,0.0,0.0,0.0,0.0,0.0,0.0,0.0,0.0,0.0,0.0,0.0,0.0,0.0,0.0,0.0,0.0,0.0,0.0,0.0,0.0,0.0,0.0,0.0,0.0,0.0,0.0,0.0,0.0,0.0,0.0,0.0,0.0,0.0,0.0,0.0,0.0,0.0,0.0,0.0,0.0,0.0,0.0,0.0,0.0,0.0,0.0,0.0,0.0,0.0,0.0,0.0,0.0,0.0,0.0,0.0,0.0,0.0,0.0,0.0,0.0,0.0,0.0,0.0,0.0,0.0,0.0,0.0,0.0,0.0,0.0,0.0,0.0,0.0,0.0,0.0,0.0,0.0,0.0,0.0,0.0,0.0,0.0,0.0,0.0,0.0,0.0,0.0,0.0,0.0,0.0,0.0,0.0,0.0,0.0,0.0,0.0,0.0,0.0,0.0,0.0,0.0,0.0,0.0,0.0,0.0,0.0,0.0,0.0,0.0,0.0,0.0,0.0,0.0,0.0,0.0,0.0,0.0,0.0,0.0,0.0,0.0,0.0,0.0,0.0,0.0,0.0,0.0,0.0,0.0,0.0,0.0,0.0,0.0,0.0,0.0,0.0,0.0,0.0,0.0,0.0,0.0,0.0,0.0,0.0,0.0,0.0,0.0,0.0,0.0,0.0,0.0,0.0,0.0,0.0,0.0,0.0,0.0,0.0,0.0,0.0,0.0,0.0,0.0,0.0,0.0,0.0,0.0,0.0,0.0,0.0,0.0,0.0,0.0,0.0,0.0,0.0,0.0,0.0,0.0,0.0,0.0,0.0,0.0,0.0,0.0,0.0,0.0,0.0,0.0,0.0,0.0,0.0,0.0,0.0,0.0,0.0,0.0,0.0,0.0,0.0,0.0,0.0,0.0,0.0,0.0,0.0,0.0,0.0,0.0,0.0,0.0,0.0,0.0,0.0,0.0,0.0,0.0,0.0,0.0,0.0,0.0,0.0,0.0,0.0,0.0,0.0,0.0,0.0,0.0,0.0,0.0,0.0,0.0,0.0,0.0,0.0,0.0,0.0,0.0,0.0,0.0,0.0,0.0,0.0,0.0,0.0,0.0,0.0,0.0,0.0,0.0,0.0,0.0,0.0,0.0,0.0,0.0,0.0,0.0,0.0,0.0,0.0,0.0,0.0,0.0,0.0,0.0,0.0,0.0,0.0,0.0,0.0,0.0,0.0,0.0,0.0,0.0,0.0,0.0,0.0,0.0,0.0,0.0,0.0,0.0,0.0,0.0,0.0,0.0,0.0,0.0,0.0,0.0,0.0,0.0,0.0,0.0,0.0,0.0,0.0,0.0,0.0,0.0,0.0,0.0,0.0,0.0,0.0,0.0,0.0,0.0,0.0,0.0,0.0,0.0,0.0,0.0,0.0,0.0,0.0,0.0,0.0,0.0,0.0,0.0,0.0,0.0,0.0,0.0,0.0,0.0,0.0,0.0,0.0,0.0,0.0,0.0,0.0,0.0,0.0,0.0,0.0,0.0,0.0,0.0,0.0,0.0,0.0,0.0,0.0,0.0,0.0,0.0,0.0,0.0,0.0,0.0,0.0,0.0,0.0,0.0,0.0,0.0,0.0,0.0,0.0,0.0,0.0,0.0,0.0,0.0,0.0,0.0,0.0,0.0,0.0,0.0,0.0,0.0,0.0,0.0,0.0,0.0,0.0,0.0,0.0,0.0,0.0,0.0,0.0,0.0,0.0,0.0,0.0,0.0,0.0,0.0,0.0,0.0,0.0,0.0,0.0,0.0,0.0,0.0,0.0,0.0,0.0,0.0,0.0,0.0,0.0,0.0,0.0,0.0,0.0,0.0,0.0,0.0,0.0,0.0,0.0,0.0,0.0,0.0,0.0,0.0,0.0,0.0,0.0,0.0,0.0,0.0,0.0,0.0,0.0,0.0,0.0,0.0,0.0,0.0,0.0,0.0,0.0,0.0,0.0,0.0,0.0,0.0,0.0,0.0,0.0,0.0,0.0,0.0,0.0,0.0,0.0,0.0,0.0,0.0,0.0,0.0,0.0,0.0,0.0,0.0,0.0,0.0,0.0,0.0,0.0,0.0,0.0,0.0,0.0,0.0,0.0,0.0,0.0,0.0,0.0,0.0,0.0,0.0,0.0,0.0,0.0,0.0,0.0,0.0,0.0,0.0,0.0,0.0,0.0,0.0,0.0,0.0,0.0,0.0,0.0,0.0,0.0,0.0,0.0,0.0,0.0,0.0,0.0,0.0,0.0,0.0,0.0,0.0,0.0,0.0,0.0,0.0,0.0,0.0,0.0,0.0,0.0,0.0,0.0,0.0,0.0,0.0,0.0,0.0,0.0,0.0,0.0,0.0,0.0,0.0,0.0,0.0,0.0,0.0,0.0,0.0,0.0,0.0,0.0,0.0,0.0,0.0,0.0,0.0,0.0,0.0,0.0,0.0,0.0,0.0,0.0,0.0,0.0,0.0,0.0,0.0,0.0,0.0,0.0,0.0,0.0,0.0,0.0,0.0,0.0,0.0,0.0,0.0,0.0,0.0,0.0,0.0,0.0,0.0,0.0,0.0,0.0,0.0,0.0,0.0,0.0,0.0,0.0,0.0,0.0,0.0,0.0,0.0,0.0,0.0,0.0,0.0,0.0,0.0,0.0,0.0,0.0,0.0,0.0,0.0,0.0,0.0,0.0,0.0,0.0,0.0,0.0,0.0,0.0,0.0,0.0,0.0,0.0,0.0,0.0,0.0,0.0,0.0,0.0,0.0,0.0,0.0,0.0,0.0,0.0,0.0,0.0,0.0,0.0,0.0,0.0,0.0,0.0,0.0,0.0,0.0,0.0,0.0,0.0,0.0,0.0,0.0,0.0,0.0,0.0,0.0,0.0,0.0,0.0,0.0,0.0,0.0,0.0,0.0,0.0,0.0,0.0,0.0,0.0,0.0,0.0,0.0,0.0,0.0,0.0,0.0,0.0,0.0,0.0,0.0,0.0,0.0,0.0,0.0,0.0,0.0,0.0,0.0,0.0,0.0,0.0,0.0,0.0,0.0,0.0,0.0,0.0,0.0,0.0,0.0,0.0,0.0,0.0,0.0,0.0,0.0,0.0,0.0,0.0,0.0,0.0,0.0,0.0,0.0,0.0,0.0,0.0,0.0,0.0,0.0,0.0,0.0,0.0,0.0,0.0,0.0,0.0,0.0,0.0,0.0,0.0,0.0,0.0,0.0,0.0,0.0,0.0,0.0,0.0,0.0,0.0,0.0,0.0,0.0,0.0,0.0,0.0,0.0,0.0,0.0,0.0,0.0,0.0,0.0,0.0,0.0,0.0,0.0,0.0,0.0,0.0,0.0,0.0,0.0,0.0,0.0,0.0,0.0,0.0,0.0,0.0,0.0,0.0,0.0,0.0,0.0,0.0,0.0,0.0,0.0,0.0,0.0,0.0,0.0,0.0,0.0,0.0,0.0,0.0,0.0,0.0,0.0,0.0,0.0,0.0,0.0,0.0,0.0,0.0,0.0,0.0,0.0,0.0,0.0,0.0,0.0,0.0,0.0,0.0,0.0,0.0,0.0,0.0,0.0,0.0,0.0,0.0,0.0,0.0,0.0,0.0,0.0,0.0,0.0,0.0,0.0,0.0,0.0,0.0,0.0,0.0,0.0,0.0,0.0,0.0,0.0,0.0,0.0,0.0,0.0,0.0,0.0,0.0,0.0,0.0,0.0,0.0,0.0,0.0,0.0,0.0,0.0,0.0,0.0,0.0,0.0,0.0,0.0,0.0,0.0,0.0,0.0,0.0,0.0,0.0,0.0,0.0,0.0,0.0,0.0,0.0,0.0,0.0,0.0,0.0,0.0,0.0,0.0,0.0,0.0,0.0,0.0,0.0,0.0,0.0,0.0,0.0,0.0,0.0,0.0,0.0,0.0,0.0,0.0,0.0,0.0,0.0,0.0,0.0,0.0,0.0,0.0,0.0,0.0,0.0,0.0,0.0,0.0,0.0,0.0,0.0,0.0,0.0,0.0,0.0,0.0,0.0,0.0,0.0,0.0,0.0,0.0,0.0,0.0,0.0,0.0,0.0,0.0,0.0,0.0,0.0,0.0,0.0,0.0,0.0,0.0,0.0,0.5254,0.0,0.0,0.0,0.0,0.0,0.0,0.0,0.0,0.0,0.0,0.0,0.0,0.0,0.0,0.0,0.0,0.0,0.0,0.0,0.0,0.0,0.0,0.0,0.0,0.0,0.0,0.0,0.0,0.0,0.0,0.0,0.0,0.0,0.0,0.0,0.0,0.0,0.0,0.0,0.0,0.0,0.0,0.0,0.0,0.0,0.0,0.0,0.0,0.0,0.0,0.0,0.0,0.0,0.0,0.0,0.0,0.0,0.0,0.0,0.0,0.0,0.0,0.0,0.0,0.0,0.0,0.0,0.0,0.0,0.0,0.0,0.0,0.0,0.0,0.0,0.0,0.0,0.0,0.0,0.0,0.0,0.0,0.0,0.0,0.0,0.0,0.0,0.0,0.0,0.0,0.0,0.0,0.0,0.0,0.0,0.0,0.0,0.0,0.0,0.0,0.0,0.0,0.0,0.0,0.0,0.0,0.0,0.0,0.0,0.0,0.5568,0.498,0.6791,0.6797,0.4761,0.0,0.0,0.0,0.0,0.0,0.0,0.0,0.0,0.0,0.0,0.0,0.0,0.0,0.0,0.0,0.0,0.0,0.0,0.0,0.0,0.0,0.0,0.0,0.0,0.0,0.0,0.0,0.0,0.0,0.0,0.0,0.0,0.0,0.0,0.0,0.0,0.0,0.0,0.0,0.0,0.0,0.0,0.0,0.0,0.0,0.0,0.0,0.0,0.0,0.0,0.0,0.0,0.0,0.0,0.0,0.0,0.0,0.0,0.0,0.0,0.0,0.0,0.0,0.0,0.0,0.0,0.0,0.0,0.0,0.0,0.0,0.0,0.0,0.0,0.0,0.0,0.0,0.0,0.0,0.0,0.0,0.0,0.0,0.0,0.0,0.0,0.0,0.0,0.0,0.0,0.0,0.0,0.0,0.0,0.0,0.0,0.0,0.0,0.0,0.0,0.0,0.0,0.0,0.0,0.0,0.0,0.0,0.0,0.0,0.0,0.0,0.0,0.7056,0.7114,0.5804,0.0,0.0,0.0,0.0,0.0,0.0,0.0,0.0,0.0,0.0,0.0,0.0,0.0,0.0,0.0,0.0,0.0,0.0,0.0,0.0,0.0,0.0,0.0,0.0,0.0,0.0,0.0,0.0,0.0,0.0,0.0,0.0,0.0,0.0,0.0,0.0,0.0,0.0,0.0,0.0,0.0,0.0,0.0,0.0,0.0,0.0,0.0,0.0,0.0,0.0,0.0,0.0,0.0,0.0,0.0,0.0,0.0,0.0,0.0,0.0,0.0,0.0,0.0,0.0,0.0,0.0,0.0,0.0,0.0,0.0,0.0,0.0,0.0,0.0,0.0,0.0,0.0,0.0,0.0,0.0,0.0,0.0,0.0,0.0,0.0,0.0,0.0,0.0,0.0,0.0,0.0,0.0,0.0,0.0,0.0,0.0,0.0,0.0,0.0,0.0,0.0,0.0,0.0,0.0,0.0,0.0,0.0,0.0,0.0,0.0,0.5518,0.7756,0.9772,0.0,1.0227,0.0,0.0,0.0,0.0,0.0,0.0,0.0,0.0,0.0,0.0,0.0,0.0,0.0,0.0,0.0,0.0,0.0,0.0,0.0,0.0,0.0,0.0,0.0,0.0,0.0,0.0,0.0,0.0,0.0,0.0,0.0,0.0,0.0,0.0,0.0,0.0,0.0,0.0,0.0,0.0,0.0,0.0,0.0,0.0,0.0,0.0,0.0,0.0,0.0,0.0,0.0,0.0,0.0,0.0,0.0,0.0,0.0,0.0,0.0,0.0,0.0,0.0,0.0,0.0,0.0,0.0,0.0,0.0,0.0,0.0,0.0,0.0,0.0,0.0,0.0,0.0,0.0,0.0,0.0,0.0,0.0,0.0,0.0,0.0,0.0,0.0,0.0,0.0,0.0,0.0,0.0,0.0,0.0,0.0,0.0,0.0,0.0,0.0,0.0,0.0,0.0,0.0,0.0,0.0,0.0,0.0,0.0,0.0,0.0,0.0,0.5127,0.7694,0.8346,0.7939,0.0,0.0,0.0,0.0,0.0,0.0,0.0,0.0,0.0,0.0,0.0,0.0,0.0,0.0,0.0,0.0,0.0,0.0,0.0,0.0,0.0,0.0,0.0,0.0,0.0,0.0,0.0,0.0,0.0,0.0,0.0,0.0,0.0,0.0,0.0,0.0,0.0,0.0,0.0,0.0,0.0,0.0,0.0,0.0,0.0,0.0,0.0,0.0,0.0,0.0,0.0,0.0,0.0,0.0,0.0,0.0,0.0,0.0,0.0,0.0,0.0,0.0,0.0,0.0,0.0,0.0,0.0,0.0,0.0,0.0,0.0,0.0,0.0,0.0,0.0,0.0,0.0,0.0,0.0,0.0,0.0,0.0,0.0,0.0,0.0,0.0,0.0,0.0,0.0,0.0,0.0,0.0,0.0,0.0,0.0,0.0,0.0,0.0,0.0,0.0,0.0,0.0,0.0,0.0,0.0,0.0,0.0,0.0,0.0,0.0,0.5153,0.5873,0.8521,0.6936,0.5472,0.4507,0.0,0.0,0.0,0.0,0.0,0.0,0.0,0.0,0.0,0.0,0.0,0.0,0.0,0.0,0.0,0.0,0.0,0.0,0.0,0.0,0.0,0.0,0.0,0.0,0.0,0.0,0.0,0.0,0.0,0.0,0.0,0.0,0.0,0.0,0.0,0.0,0.0,0.0,0.0,0.0,0.0,0.0,0.0,0.0,0.0,0.0,0.0,0.0,0.0,0.0,0.0,0.0,0.0,0.0,0.0,0.0,0.0,0.0,0.0,0.0,0.0,0.0,0.0,0.0,0.0,0.0,0.0,0.0,0.0,0.0,0.0,0.0,0.0,0.0,0.0,0.0,0.0,0.0,0.0,0.0,0.0,0.0,0.0,0.0,0.0,0.0,0.0,0.0,0.0,0.0,0.0,0.0,0.0,0.0,0.0,0.0,0.0,0.0,0.0,0.0,0.0,0.0,0.0,0.0,0.0,0.0,0.0,0.0,1.0532,0.8154,0.8385,1.156,0.6534,0.4994,0.0,0.0,0.0,0.0,0.0,0.0,0.0,0.0,0.0,0.0,0.0,0.0,0.0,0.0,0.0,0.0,0.0,0.0,0.0,0.0,0.0,0.0,0.0,0.0,0.0,0.0,0.0,0.0,0.0,0.0,0.0,0.0,0.0,0.0,0.0,0.0,0.0,0.0,0.0,0.0,0.0,0.0,0.0,0.0,0.0,0.0,0.0,0.0,0.0,0.0,0.0,0.0,0.0,0.0,0.0,0.0,0.0,0.0,0.0,0.0,0.0,0.0,0.0,0.0,0.0,0.0,0.0,0.0,0.0,0.0,0.0,0.0,0.0,0.0,0.0,0.0,0.0,0.0,0.0,0.0,0.0,0.0,0.0,0.0,0.0,0.0,0.0,0.0,0.0,0.0,0.0,0.0,0.0,0.0,0.0,0.0,0.0,0.0,0.0,0.0,0.0,0.0,0.0,0.0,0.0,0.0,0.0,0.0,0.0,0.5873,0.7174,0.7793,0.7691,0.6877,0.6468,0.0,0.0,0.0,0.0,0.0,0.0,0.0,0.0,0.0,0.0,0.0,0.0,0.0,0.0,0.0,0.0,0.0,0.0,0.0,0.0,0.0,0.0,0.0,0.0,0.0,0.0,0.0,0.0,0.0,0.0,0.0,0.0,0.0,0.0,0.0,0.0,0.0,0.0,0.0,0.0,0.0,0.0,0.0,0.0,0.0,0.0,0.0,0.0,0.0,0.0,0.0,0.0,0.0,0.0,0.0,0.0,0.0,0.0,0.0,0.0,0.0,0.0,0.0,0.0,0.0,0.0,0.0,0.0,0.0,0.0,0.0,0.0,0.0,0.0,0.0,0.0,0.0,0.0,0.0,0.0,0.0,0.0,0.0,0.0,0.0,0.0,0.0,0.0,0.0,0.0,0.0,0.0,0.0,0.0,0.0,0.0,0.0,0.0,0.0,0.0,0.0,0.0,0.0,0.0,0.0,0.0,0.0,0.0,0.0,0.4429,0.0,0.84,0.6671,0.6835,0.6374,0.0,0.0,0.0,0.0,0.0,0.0,0.0,0.0,0.0,0.0,0.0,0.0,0.0,0.0,0.0,0.0,0.0,0.0,0.0,0.0,0.0,0.0,0.0,0.0,0.0,0.0,0.0,0.0,0.0,0.0,0.0,0.0,0.0,0.0,0.0,0.0,0.0,0.0,0.0,0.0,0.0,0.0,0.0,0.0,0.0,0.0,0.0,0.0,0.0,0.0,0.0,0.0,0.0,0.0,0.0,0.0,0.0,0.0,0.0,0.0,0.0,0.0,0.0,0.0,0.0,0.0,0.0,0.0,0.0,0.0,0.0,0.0,0.0,0.0,0.0,0.0,0.0,0.0,0.0,0.0,0.0,0.0,0.0,0.0,0.0,0.0,0.0,0.0,0.0,0.0,0.0,0.0,0.0,0.0,0.0,0.0,0.0,0.0,0.0,0.0,0.0,0.0,0.0,0.0,0.0,0.0,0.0,0.0,0.4275,0.7253,0.953,1.0063,0.9278,0.6188,0.4514,0.0,0.0,0.0,0.0,0.0,0.0,0.0,0.0,0.0,0.0,0.0,0.0,0.0,0.0,0.0,0.0,0.0,0.0,0.0,0.0,0.0,0.0,0.0,0.0,0.0,0.0,0.0,0.0,0.0,0.0,0.0,0.0,0.0,0.0,0.0,0.0,0.0,0.0,0.0,0.0,0.0,0.0,0.0,0.0,0.0,0.0,0.0,0.0,0.0,0.0,0.0,0.0,0.0,0.0,0.0,0.0,0.0,0.0,0.0,0.0,0.0,0.0,0.0,0.0,0.0,0.0,0.0,0.0,0.0,0.0,0.0,0.0,0.0,0.0,0.0,0.0,0.0,0.0,0.0,0.0,0.0,0.0,0.0,0.0,0.0,0.0,0.0,0.0,0.0,0.0,0.0,0.0,0.0,0.0,0.0,0.0,0.0,0.0,0.0,0.0,0.0,0.0,0.0,0.0,0.0,0.0,0.0,0.0,0.0,0.3209,0.5134,0.6614,0.7406,0.5054,0.4526,0.0,0.0,0.0,0.0,0.0,0.0,0.0,0.0,0.0,0.0,0.0,0.0,0.0,0.0,0.0,0.0,0.0,0.0,0.0,0.0,0.0,0.0,0.0,0.0,0.0,0.0,0.0,0.0,0.0,0.0,0.0,0.0,0.0,0.0,0.0,0.0,0.0,0.0,0.0,0.0,0.0,0.0,0.0,0.0,0.0,0.0,0.0,0.0,0.0,0.0,0.0,0.0,0.0,0.0,0.0,0.0,0.0,0.0,0.0,0.0,0.0,0.0,0.0,0.0,0.0,0.0,0.0,0.0,0.0,0.0,0.0,0.0,0.0,0.0,0.0,0.0,0.0,0.0,0.0,0.0,0.0,0.0,0.0,0.0,0.0,0.0,0.0,0.0,0.0,0.0,0.0,0.0,0.0,0.0,0.0,0.0,0.0,0.0,0.0,0.0,0.0,0.0,0.0,0.0,0.0,0.0,0.0,0.0,0.0,0.0524,0.2628,0.4274,0.5302,0.3294,0.3193,0.5153,0.0,0.0,0.0,0.0,0.0,0.0,0.0,0.0,0.0,0.0,0.0,0.0,0.0,0.0,0.0,0.0,0.0,0.0,0.0,0.0,0.0,0.0,0.0,0.0,0.0,0.0,0.0,0.0,0.0,0.0,0.0,0.0,0.0,0.0,0.0,0.0,0.0,0.0,0.0,0.0,0.0,0.0,0.0,0.0,0.0,0.0,0.0,0.0,0.0,0.0,0.0,0.0,0.0,0.0,0.0,0.0,0.0,0.0,0.0,0.0,0.0,0.0,0.0,0.0,0.0,0.0,0.0,0.0,0.0,0.0,0.0,0.0,0.0,0.0,0.0,0.0,0.0,0.0,0.0,0.0,0.0,0.0,0.0,0.0,0.0,0.0,0.0,0.0,0.0,0.0,0.0,0.0,0.0,0.0,0.0,0.0,0.0,0.0,0.0,0.0,0.0,0.0,0.0,0.0,0.0,0.0,0.0,0.0,-0.1144,0.1438,0.2704,0.2655,0.0963,0.0784,0.0,0.0,0.0,0.0,0.0,0.0,0.0,0.0,0.0,0.0,0.0,0.0,0.0,0.0,0.0,0.0,0.0,0.0,0.0,0.0,0.0,0.0,0.0,0.0,0.0,0.0,0.0,0.0,0.0,0.0,0.0,0.0,0.0,0.0,0.0,0.0,0.0,0.0,0.0,0.0,0.0,0.0,0.0,0.0,0.0,0.0,0.0,0.0,0.0,0.0,0.0,0.0,0.0,0.0,0.0,0.0,0.0,0.0,0.0,0.0,0.0,0.0,0.0,0.0,0.0,0.0,0.0,0.0,0.0,0.0,0.0,0.0,0.0,0.0,0.0,0.0,0.0,0.0,0.0,0.0,0.0,0.0,0.0,0.0,0.0,0.0,0.0,0.0,0.0,0.0,0.0,0.0,0.0,0.0,0.0,0.0,0.0,0.0,0.0,0.0,0.0,0.0,0.0,0.0,0.0,0.0,0.0,0.0,0.0,-0.1896,-0.4146,-0.4048,-0.1504,-0.1808,-0.128,0.0,0.0,0.0,0.0,0.0,0.0,0.0,0.0,0.0,0.0,0.0,0.0,0.0,0.0,0.0,0.0,0.0,0.0,0.0,0.0,0.0,0.0,0.0,0.0,0.0,0.0,0.0,0.0,0.0,0.0,0.0,0.0,0.0,0.0,0.0,0.0,0.0,0.0,0.0,0.0,0.0,0.0,0.0,0.0,0.0,0.0,0.0,0.0,0.0,0.0,0.0,0.0,0.0,0.0,0.0,0.0,0.0,0.0,0.0,0.0,0.0,0.0,0.0,0.0,0.0,0.0,0.0,0.0,0.0,0.0,0.0,0.0,0.0,0.0,0.0,0.0,0.0,0.0,0.0,0.0,0.0,0.0,0.0,0.0,0.0,0.0,0.0,0.0,0.0,0.0,0.0,0.0,0.0,0.0,0.0,0.0,0.0,0.0,0.0,0.0,0.0,0.0,0.0,0.0,0.0,0.0,0.0,0.0,-0.3076,-0.3668,-0.7229,-0.8367,-0.6981,-0.577,-0.4089,0.0,0.0,0.0,0.0,0.0,0.0,0.0,0.0,0.0,0.0,0.0,0.0,0.0,0.0,0.0,0.0,0.0,0.0,0.0,0.0,0.0,0.0,0.0,0.0,0.0,0.0,0.0,0.0,0.0,0.0,0.0,0.0,0.0,0.0,0.0,0.0,0.0,0.0,0.0,0.0,0.0,0.0,0.0,0.0,0.0,0.0,0.0,0.0,0.0,0.0,0.0,0.0,0.0,0.0,0.0,0.0,0.0,0.0,0.0,0.0,0.0,0.0,0.0,0.0,0.0,0.0,0.0,0.0,0.0,0.0,0.0,0.0,0.0,0.0,0.0,0.0,0.0,0.0,0.0,0.0,0.0,0.0,0.0,0.0,0.0,0.0,0.0,0.0,0.0,0.0,0.0,0.0,0.0,0.0,0.0,0.0,0.0,0.0,0.0,0.0,0.0,0.0,0.0,0.0,0.0,0.0,0.0,0.0,-0.5133,-0.6262,-0.887,-1.0996,-1.2414,-0.974,-0.6956,0.0,0.0,0.0,0.0,0.0,0.0,0.0,0.0,0.0,0.0,0.0,0.0,0.0,0.0,0.0,0.0,0.0,0.0,0.0,0.0,0.0,0.0,0.0,0.0,0.0,0.0,0.0,0.0,0.0,0.0,0.0,0.0,0.0,0.0,0.0,0.0,0.0,0.0,0.0,0.0,0.0,0.0,0.0,0.0,0.0,0.0,0.0,0.0,0.0,0.0,0.0,0.0,0.0,0.0,0.0,0.0,0.0,0.0,0.0,0.0,0.0,0.0,0.0,0.0,0.0,0.0,0.0,0.0,0.0,0.0,0.0,0.0,0.0,0.0,0.0,0.0,0.0,0.0,0.0,0.0,0.0,0.0,0.0,0.0,0.0,0.0,0.0,0.0,0.0,0.0,0.0,0.0,0.0,0.0,0.0,0.0,0.0,0.0,0.0,0.0,0.0,0.0,0.0,0.0,0.0,0.0,0.0,0.0,-0.7464,-0.9499,-1.1821,-1.301,-1.3012,-0.9296,-0.6947,0.0,0.0,0.0,0.0,0.0,0.0,0.0,0.0,0.0,0.0,0.0,0.0,0.0,0.0,0.0,0.0,0.0,0.0,0.0,0.0,0.0,0.0,0.0,0.0,0.0,0.0,0.0,0.0,0.0,0.0,0.0,0.0,0.0,0.0,0.0,0.0,0.0,0.0,0.0,0.0,0.0,0.0,0.0,0.0,0.0,0.0,0.0,0.0,-0.9764,0.0,0.0,0.0,0.0,0.0,0.0,0.0,0.0,0.0,0.0,0.0,0.0,0.0,0.0,0.0,0.0,0.0,0.0,0.0,0.0,0.0,0.0,0.0,0.0,0.0,0.0,0.0,0.0,0.0,0.0,0.0,0.0,0.0,0.0,0.0,0.0,0.0,0.0,0.0,0.0,0.0,0.0,0.0,0.0,0.0,0.0,0.0,0.0,0.0,0.0,0.0,0.0,0.0,0.0,0.0,0.0,0.0,0.0,0.0,-0.9131,-1.1703,-1.3833,-1.4556,-1.3588,-1.071,-0.8405,0.0,0.0,0.0,0.0,0.0,0.0,0.0,0.0,0.0,0.0,0.0,0.0,0.0,0.0,0.0,0.0,0.0,0.0,0.0,0.0,0.0,0.0,0.0,0.0,0.0,0.0,0.0,0.0,0.0,0.0,0.0,0.0,0.0,0.0,0.0,0.0,0.0,0.0,0.0,0.0,0.0,0.0,0.0,0.0,0.0,0.0,0.0,0.0,0.0,0.0,0.0,0.0,0.0,0.0,0.0,0.0,0.0,0.0,0.0,0.0,0.0,0.0,0.0,0.0,0.0,0.0,0.0,0.0,0.0,0.0,0.0,0.0,0.0,0.0,0.0,0.0,0.0,0.0,0.0,0.0,0.0,0.0,0.0,0.0,0.0,0.0,0.0,0.0,0.0,0.0,0.0,0.0,0.0,0.0,0.0,0.0,0.0,0.0,0.0,0.0,0.0,0.0,0.0,0.0,0.0,0.0,0.0,-0.7967,-1.0597,-1.3795,-1.5504,-1.5711,-1.4497,-1.2526,-1.0111,-0.7185,0.0,0.0,0.0,0.0,0.0,0.0,0.0,0.0,0.0,0.0,0.0,0.0,0.0,0.0,0.0,0.0,0.0,0.0,0.0,0.0,0.0,0.0,0.0,0.0,0.0,0.0,0.0,0.0,0.0,0.0,0.0,0.0,0.0,0.0,0.0,0.0,0.0,0.0,-0.6233,-0.5559,0.0,0.0,0.0,0.0,0.0,0.0,0.0,0.0,-0.8873,0.0,0.0,0.0,0.0,0.0,0.0,0.0,0.0,0.0,0.0,0.0,0.0,0.0,0.0,0.0,0.0,0.0,0.0,0.0,0.0,0.0,0.0,0.0,0.0,0.0,0.0,0.0,0.0,0.0,0.0,0.0,0.0,0.0,0.0,0.0,0.0,0.0,0.0,0.0,0.0,0.0,0.0,0.0,0.0,0.0,0.0,0.0,0.0,0.0,0.0,0.0,0.0,0.0,0.0,0.0,0.0,-0.8229,-0.9689,-1.2591,-1.7006,-1.7223,-1.6806,-1.5651,-1.2893,-1.0215,-0.7827,0.0,0.0,0.0,0.0,0.0,0.0,0.0,0.0,0.0,0.0,0.0,0.0,0.0,0.0,0.0,0.0,0.0,0.0,0.0,0.0,0.0,0.0,0.0,0.0,0.0,0.0,0.0,0.0,0.0,0.0,0.0,0.0,0.0,0.0,0.0,0.0,0.0,0.0,0.0,-0.6359,-0.5629,0.0,0.0,0.0,0.0,0.0,0.0,0.0,0.0,-1.0469,0.0,0.0,0.0,0.0,0.0,0.0,0.0,0.0,0.0,0.0,0.0,0.0,0.0,0.0,0.0,0.0,0.0,0.0,0.0,0.0,0.0,0.0,0.0,0.0,0.0,0.0,0.0,0.0,0.0,0.0,0.0,0.0,0.0,0.0,0.0,0.0,0.0,0.0,0.0,0.0,0.0,0.0,0.0,0.0,0.0,0.0,0.0,0.0,0.0,0.0,0.0,0.0,0.0,0.0,0.0,-0.9785,-1.2306,-1.5225,-1.8627,-1.8639,-1.7771,-1.613,-1.3471,-1.0825,0.0,0.0,0.0,0.0,0.0,0.0,0.0,0.0,0.0,0.0,0.0,0.0,0.0,0.0,0.0,0.0,0.0,0.0,0.0,0.0,0.0,0.0,0.0,0.0,0.0,0.0,0.0,0.0,0.0,0.0,0.0,0.0,0.0,0.0,0.0,0.0,0.0,0.0,0.0,0.0,-0.5712,-0.4993,-0.8967,0.0,0.0,0.0,0.0,0.0,0.0,-1.1324,-1.111,0.0,0.0,0.0,0.0,0.0,0.0,0.0,0.0,0.0,0.0,0.0,0.0,0.0,0.0,0.0,0.0,0.0,0.0,0.0,0.0,0.0,0.0,0.0,0.0,0.0,0.0,0.0,0.0,0.0,0.0,0.0,0.0,0.0,0.0,0.0,0.0,0.0,0.0,0.0,0.0,0.0,0.0,0.0,0.0,0.0,0.0,0.0,0.0,0.0,0.0,0.0,0.0,0.0,0.0,0.0,-1.0981,-1.4553,-1.7377,-1.9472,-1.9576,-1.852,-1.6308,-1.3608,-1.0945,0.0,0.0,0.0,0.0,0.0,0.0,0.0,0.0,0.0,0.0,0.0,0.0,0.0,0.0,0.0,0.0,0.0,0.0,0.0,0.0,0.0,0.0,0.0,0.0,0.0,0.0,0.0,0.0,0.0,0.0,0.0,0.0,0.0,0.0,0.0,0.0,0.0,0.0,0.0,0.0,0.0,-0.5267,-0.9188,-0.6214,0.0,0.0,0.0,0.0,-1.1355,-1.2173,0.0,0.0,0.0,0.0,0.0,0.0,0.0,0.0,0.0,0.0,0.0,0.0,0.0,0.0,0.0,0.0,0.0,0.0,0.0,0.0,0.0,0.0,0.0,0.0,0.0,0.0,0.0,0.0,0.0,0.0,0.0,0.0,0.0,0.0,0.0,0.0,0.0,0.0,0.0,0.0,0.0,0.0,0.0,0.0,0.0,0.0,0.0,0.0,0.0,0.0,0.0,0.0,0.0,0.0,0.0,0.0,-1.1417,-1.5237,-1.7934,-1.9514,-1.9765,-1.8824,-1.6596,-1.2351,-0.9547,0.0,0.0,0.0,0.0,0.0,0.0,0.0,0.0,0.0,0.0,0.0,0.0,0.0,0.0,0.0,0.0,0.0,0.0,0.0,0.0,0.0,0.0,0.0,0.0,0.0,0.0,0.0,0.0,0.0,0.0,0.0,0.0,0.0,0.0,0.0,0.0,0.0,0.0,0.0,0.0,0.0,-0.8129,-0.5091,-0.6664,-0.7045,0.0,0.0,0.0,-1.5298,-1.6414,0.0,0.0,0.0,0.0,0.0,0.0,0.0,0.0,0.0,0.0,0.0,0.0,0.0,0.0,0.0,0.0,0.0,0.0,0.0,0.0,0.0,0.0,0.0,0.0,0.0,0.0,0.0,0.0,0.0,0.0,0.0,0.0,0.0,0.0,0.0,0.0,0.0,0.0,0.0,0.0,0.0,0.0,0.0,0.0,0.0,0.0,0.0,0.0,0.0,0.0,0.0,0.0,0.0,0.0,0.0,-1.0487,-1.2722,-1.7557,-2.0408,-2.1056,-2.0845,-1.9752,-1.7689,-1.3394,-1.0401,0.0,0.0,0.0,0.0,0.0,0.0,0.0,0.0,0.0,0.0,0.0,0.0,0.0,0.0,0.0,0.0,0.0,0.0,0.0,0.0,0.0,0.0,0.0,0.0,0.0,0.0,0.0,0.0,0.0,0.0,0.0,0.0,0.0,0.0,0.0,0.0,0.0,0.0,0.0,0.0,0.0,0.0,-0.5593,-0.7173,0.0,0.0,0.0,-1.2938,-0.9143,0.0,0.0,0.0,0.0,0.0,0.0,0.0,0.0,0.0,0.0,0.0,0.0,0.0,0.0,0.0,0.0,0.0,0.0,0.0,0.0,0.0,0.0,0.0,0.0,0.0,0.0,0.0,0.0,0.0,0.0,0.0,0.0,0.0,0.0,0.0,0.0,0.0,0.0,0.0,0.0,0.0,0.0,0.0,0.0,0.0,0.0,0.0,0.0,0.0,0.0,0.0,0.0,0.0,0.0,0.0,0.0,0.0,-1.3717,-1.9405,-2.2346,-2.2196,-2.1759,-2.0677,-1.889,-1.4884,0.0,0.0,0.0,0.0,0.0,0.0,0.0,0.0,0.0,0.0,0.0,0.0,0.0,0.0,0.0,0.0,0.0,0.0,0.0,0.0,0.0,0.0,0.0,0.0,0.0,0.0,0.0,-0.7268,0.0,0.0,0.0,0.0,0.0,0.0,0.0,0.0,0.0,0.0,0.0,0.0,0.0,0.0,-0.9107,-0.4426,-0.7028,-0.8166,0.0,0.0,-1.1164,-0.5286,-0.9785,-1.1959,0.0,0.0,0.0,0.0,0.0,0.0,0.0,0.0,0.0,0.0,0.0,0.0,0.0,0.0,0.0,0.0,0.0,0.0,0.0,0.0,0.0,0.0,0.0,0.0,0.0,0.0,0.0,0.0,0.0,0.0,0.0,0.0,0.0,0.0,0.0,0.0,0.0,0.0,0.0,0.0,0.0,0.0,0.0,0.0,0.0,0.0,0.0,0.0,0.0,0.0,0.0,0.0,0.0,0.0,0.0,-1.4132,-1.983,-2.2623,-2.2222,-2.1963,-2.1348,-2.0234,-1.6224,-1.3067,0.0,0.0,0.0,0.0,0.0,0.0,0.0,0.0,0.0,0.0,0.0,0.0,0.0,0.0,0.0,0.0,0.0,0.0,0.0,0.0,0.0,0.0,0.0,0.0,0.0,0.0,0.0,0.0,0.0,0.0,0.0,0.0,0.0,0.0,0.0,0.0,0.0,0.0,0.0,0.0,0.0,-1.224,0.1236,-0.5717,-0.9654,0.0,0.0,-0.5636,-0.8852,-0.6574,-0.5849,-0.9888,0.0,0.0,0.0,0.0,0.0,0.0,0.0,0.0,0.0,0.0,0.0,0.0,0.0,0.0,0.0,0.0,0.0,0.0,0.0,0.0,0.0,0.0,0.0,0.0,0.0,0.0,0.0,0.0,0.0,0.0,0.0,0.0,0.0,0.0,0.0,0.0,0.0,0.0,0.0,0.0,0.0,0.0,0.0,0.0,0.0,0.0,0.0,0.0,0.0,0.0,0.0,0.0,0.0,-1.3952,-1.4483,-1.9908,-2.2795,-2.297,-2.2569,-2.1707,-2.0401,-1.7006,-1.3789,0.0,0.0,0.0,0.0,0.0,0.0,0.0,0.0,0.0,0.0,0.0,0.0,0.0,0.0,0.0,0.0,0.0,0.0,0.0,0.0,0.0,0.0,0.0,0.0,0.0,0.0,0.0,0.0,-1.0459,-1.0357,-1.0113,0.0,0.0,0.0,0.0,0.0,0.0,0.0,0.0,0.0,0.0,-0.791,-0.0337,-0.2859,0.0,0.0,0.1375,-0.1737,-0.0796,-0.4942,-0.7826,-0.6659,-1.1032,0.0,0.0,0.0,0.0,0.0,0.0,0.0,0.0,0.0,0.0,0.0,0.0,0.0,0.0,0.0,0.0,0.0,0.0,0.0,0.0,0.0,0.0,0.0,0.0,0.0,0.0,0.0,0.0,0.0,0.0,0.0,0.0,0.0,0.0,0.0,0.0,0.0,0.0,0.0,0.0,0.0,0.0,0.0,0.0,0.0,0.0,0.0,0.0,0.0,0.0,0.0,0.0,-1.4999,-1.4998,-2.0316,-2.324,-2.3483,-2.3207,-2.2402,-2.0994,-1.868,-1.5865,0.0,0.0,0.0,0.0,0.0,0.0,0.0,0.0,0.0,0.0,0.0,0.0,0.0,0.0,0.0,0.0,0.0,0.0,0.0,0.0,0.0,0.0,0.0,0.0,0.0,0.0,0.0,0.0,-1.1316,-1.1121,-1.0984,0.0,0.0,0.0,0.0,0.0,0.0,0.0,0.0,0.0,0.0,-0.5435,-0.0334,-0.147,-0.1043,0.4252,0.0547,-0.2124,0.0051,-0.4678,-0.7979,-0.6422,0.0,0.0,0.0,0.0,0.0,0.0,0.0,0.0,0.0,0.0,0.0,0.0,0.0,0.0,0.0,0.0,0.0,0.0,0.0,0.0,0.0,0.0,0.0,0.0,0.0,0.0,0.0,0.0,0.0,0.0,0.0,0.0,0.0,0.0,0.0,0.0,0.0,0.0,0.0,0.0,0.0,0.0,0.0,0.0,0.0,0.0,0.0,0.0,0.0,0.0,0.0,0.0,0.0,-1.5755,-1.5669,-2.1191,-2.3936,-2.3555,-2.3865,-2.3491,-2.2356,-2.1558,-1.9655,-1.6369,0.0,0.0,0.0,0.0,0.0,0.0,0.0,0.0,0.0,0.0,0.0,0.0,0.0,0.0,0.0,0.0,0.0,0.0,0.0,0.0,0.0,0.0,0.0,0.0,0.0,0.0,-1.0267,-1.0648,-1.1495,0.0,0.0,0.0,0.0,0.0,0.0,0.0,0.0,0.0,0.0,-0.7587,-0.6311,0.2613,-0.2233,-0.6431,-0.6273,-0.6558,-0.7599,-0.9592,-0.592,-0.4702,0.0,0.0,0.0,0.0,0.0,0.0,0.0,0.0,0.0,0.0,0.0,0.0,0.0,0.0,0.0,0.0,0.0,0.0,0.0,0.0,0.0,0.0,0.0,0.0,0.0,0.0,0.0,-0.2828,-0.3036,0.0,0.0,0.0,0.0,0.0,0.0,0.0,0.0,0.0,0.0,0.0,-1.4307,-1.5488,0.0,0.0,0.0,0.0,0.0,0.0,0.0,0.0,0.0,0.0,0.0,0.0,-1.5929,-1.5921,-2.126,-2.439,-2.4876,-2.4404,-2.3844,-2.3263,-2.1974,-1.9613,-1.6041,0.0,0.0,0.0,0.0,0.0,0.0,0.0,0.0,0.0,0.0,0.0,0.0,0.0,0.0,0.0,0.0,0.0,0.0,0.0,0.0,0.0,0.0,0.0,0.0,0.0,-1.2556,0.0,0.0,0.0,0.0,0.0,0.0,0.0,0.0,0.0,0.0,0.0,-1.3076,-1.1524,-0.6642,-0.2681,-0.1182,-0.1171,-0.1367,0.0,0.0,0.0,0.0,0.0,0.0,0.0,0.0,0.0,0.0,0.0,0.0,0.0,0.0,-2.3255,-2.2981,-2.4091,-2.5118,-2.5148,0.0,0.0,0.0,0.0,0.0,0.0,0.0,0.0,0.0,0.0,0.0,0.0,0.0,0.0,0.0,0.0,-0.5727,0.0,0.0,0.0,0.0,0.0,0.0,0.0,0.0,-1.2884,-1.5797,-1.946,-2.0587,-2.1364,0.0,-2.1714,-1.9006,0.0,0.0,0.0,0.0,0.0,0.0,0.0,0.0,-1.7332,-1.6712,-2.2344,-2.5378,-2.5383,-2.5152,-2.4657,-2.3826,-2.2413,-2.0301,-1.7439,-1.5585,-1.3386,0.0,0.0,0.0,0.0,0.0,0.0,0.0,0.0,0.0,0.0,0.0,0.0,0.0,0.0,0.0,0.0,0.0,0.0,0.0,0.0,0.0,0.0,0.0,-1.406,0.0,0.0,0.0,0.0,0.0,0.0,0.0,0.0,0.0,-1.5592,-1.446,-1.3577,-1.3272,-0.7453,-0.3388,-0.3834,0.0,0.0,0.0,0.0,0.0,0.0,0.0,-1.417,-1.8181,-2.1208,-2.3599,-2.5161,-2.5192,-2.4837,-2.4515,0.0,0.0,-2.5822,-2.7129,-2.8292,-2.7959,-2.7121,-2.6597,-2.6911,-2.5558,-2.4302,0.0,0.0,0.0,0.0,0.0,0.0,0.0,0.0,-0.7979,-0.7994,0.0,-0.8931,0.0,0.0,0.0,0.0,0.0,0.0,0.0,0.0,-1.99,-2.2546,-2.2849,-2.3786,-2.4354,-2.4545,-2.3579,-2.3164,-2.3091,-2.0486,0.0,0.0,0.0,0.0,0.0,0.0,-1.9893,-1.828,-2.4436,-2.6933,-2.5216,-2.6188,-2.5921,-2.4202,-2.2935,-2.1746,-2.0671,-1.8201,-1.6055,-1.4488,-1.1412,0.0,0.0,0.0,0.0,0.0,0.0,0.0,0.0,0.0,0.0,0.0,0.0,0.0,0.0,0.0,0.0,0.0,0.0,0.0,0.0,-1.4441,0.0,0.0,0.0,0.0,0.0,0.0,0.0,0.0,0.0,0.0,-1.7784,-1.7271,-1.5352,-1.1087,0.0,0.0,0.0,0.0,-1.1189,-1.2104,-1.6347,-1.936,-1.9455,-2.1456,-2.3331,-2.4329,0.0,0.0,-2.957,-2.6225,-2.4391,-2.6525,-2.8311,-2.9099,-2.7954,-2.8216,-2.8294,-2.7363,-2.7306,-2.7029,-2.6299,-2.5844,-2.4943,-0.0526,0.0,0.0,0.0,0.0,-0.6285,-0.8025,-0.9551,-1.1227,-1.1632,-1.1232,-1.2153,0.0,0.0,0.0,0.0,0.0,0.0,-1.6208,-1.9996,-2.1888,-2.4603,-2.7945,-2.8638,-2.9167,-2.9547,-2.9237,-2.9115,-2.9069,-2.8221,-2.4695,-1.8601,0.0,0.0,0.0,0.0,-2.0542,-2.1784,-2.5709,-2.7456,-2.6711,-2.6792,-2.6146,-2.4755,-2.3991,-2.3435,-2.3091,-2.2348,-2.0645,-1.7908,-1.6174,0.0,0.0,0.0,0.0,0.0,0.0,0.0,0.0,0.0,0.0,0.0,0.0,0.0,0.0,0.0,0.0,0.0,0.0,0.0,-1.8649,-1.7589,-1.598,0.0,0.0,0.0,0.0,0.0,0.0,0.0,0.0,0.0,-2.2812,-1.8956,-1.5322,0.0,0.0,-1.0971,-0.9991,-1.385,-1.6931,-1.7252,0.0,0.0,0.0,-2.3695,-2.3732,-2.5685,-2.8255,-3.0032,-3.0028,-2.9525,-2.9337,-3.0019,-3.0241,-3.0163,-2.9797,-3.0286,-3.0437,-2.9744,-2.9213,-2.8703,-2.8007,-2.739,-2.6702,-0.273,-0.3706,-0.4475,-0.5568,-0.6871,-0.881,-1.064,-1.2324,-1.3648,-1.4164,-1.4083,-1.5018,-1.4981,-1.4123,-1.435,0.0,0.0,0.0,-2.0853,-2.4849,-2.5737,-2.7792,-3.075,-3.1823,-3.2347,-3.2391,-3.304,-3.2891,-3.1997,-3.1284,-2.8406,-2.3507,0.0,0.0,-1.9874,-2.186,-2.3229,-2.4027,-2.6962,-2.8189,-2.7598,-2.7046,-2.6217,-2.5036,-2.4667,-2.4371,-2.4118,-2.3814,-2.2608,-2.0304,-1.8481,-1.4634,0.0,0.0,0.0,0.0,0.0,0.0,0.0,0.0,0.0,0.0,0.0,-1.1349,0.0,0.0,0.0,0.0,-1.5991,-1.7058,-1.8013,-1.7065,0.0,0.0,0.0,0.0,0.0,0.0,0.0,-1.8498,-2.0568,-2.2795,-2.4171,-2.186,-2.0028,-2.0209,-1.8867,-1.7509,-1.6555,0.0,-2.1877,-2.0958,-2.285,-2.4942,-2.634,-2.6211,-2.6686,-2.9072,-3.0632,-3.1439,-3.1219,-3.1611,-3.182,-3.1495,-3.1224,-3.0891,-3.0498,-3.0895,-3.1166,-3.0665,-3.0374,-2.9978,-2.9263,-2.8941,-2.8466,-0.4778,-0.5578,-0.5357,-0.6832,-0.9533,-1.0846,-1.2839,-1.5043,-1.5324,-1.5668,-1.6253,-1.7446,-1.7495,-1.6622,-1.7899,0.0,0.0,-2.3986,-2.5917,-2.9068,-3.0498,-3.1503,-3.2162,-3.3836,-3.4353,-3.3762,-3.519,-3.4836,-3.2957,-3.1143,-2.9889,-2.9166,-2.8926,-2.7286,-2.4611,-2.641,-2.6778,-2.5327,-2.7893,-2.8717,-2.772,-2.7116,-2.6245,-2.5093,-2.5103,-2.485,-2.4287,-2.3603,-2.2783,-2.1773,-1.9059,-1.41,-0.69,0.0,0.0,0.0,0.0,0.0,0.0,0.0,0.0,0.0,0.0,0.0,0.0,0.0,0.0,0.0,-1.4622,0.0,-1.5024,-1.4947,0.0,0.0,0.0,-2.1791,-2.1628,-2.246,-2.2953,-2.2759,0.0,0.0,0.0,0.0,-2.7695,-2.9342,-2.7879,-2.5805,-2.3584,-2.5236,-2.608,-2.4006,-2.5676,-2.72,-2.7695,-2.909,-3.0944,-3.2963,-3.3807,-3.3421,-3.2779,-3.2449,-3.2192,-3.1513,-3.1366,-3.1065,-3.0411,-3.0309,-3.0413,-3.0376,-3.0658,-3.0703,-2.9883,-2.9958,-2.977,-0.4941,-0.5965,-0.7498,-0.9129,-1.0601,-1.2064,-1.3469,-1.4813,-1.5694,-1.6536,-1.739,-1.9028,-2.0985,-2.3169,-2.4992,-2.6444,-2.7739,-2.8737,-2.9831,-3.1104,-3.2301,-3.3576,-3.4862,-3.5629,-3.6491,-3.7239,-3.6703,-3.5951,-3.5038,-3.3366,-3.1636,-2.9864,-2.9534,-2.7782,-2.4803,-2.4725,-2.5214,-2.603,-2.6247,-2.6537,-2.7003,-2.6891,-2.6441,-2.5711,-2.5669,-2.5598,-2.5458,-2.4868,-2.4025,-2.279,-2.0512,-1.5452,-0.7256,-1.0661,0.0,0.0,0.0,0.0,0.0,0.0,0.0,0.0,0.0,-1.3202,-1.3351,0.0,-1.527,0.0,-1.3083,-1.6193,-2.1379,-2.049,0.0,0.0,-2.215,-2.271,-1.9647,-2.4253,-2.6648,-2.3967,-2.7002,-2.9622,-3.0246,-3.0834,-3.2027,-3.4119,-2.9953,-2.6392,-2.5878,-2.7805,-2.9163,-2.8796,-3.0393,-3.2063,-3.1953,-3.2522,-3.3091,-3.3697,-3.3825,-3.3733,-3.3568,-3.2467,-3.1604,-3.1347,-3.0356,-2.9609,-2.9389,-2.9384,-2.947,-2.9539,-2.987,-2.9924,-2.9128,-2.9696,-3.0075,-0.5164,-0.6136,-0.7969,-0.9547,-1.1096,-1.1803,-1.294,-1.4427,-1.5345,-1.681,-1.883,-2.1447,-2.4217,-2.693,-2.868,-3.0055,-3.1166,-3.2047,-3.2787,-3.3392,-3.4242,-3.5142,-3.5959,-3.6757,-3.7043,-3.7097,-3.6753,-3.6014,-3.4663,-3.3734,-3.25,-3.0954,-3.053,-2.8962,-2.6311,-2.5805,-2.5807,-2.6093,-2.5893,-2.6264,-2.72,-2.7509,-2.6877,-2.536,-2.5275,-2.4915,-2.424,-2.334,-2.2655,-2.2183,-2.0571,-1.6138,-0.8684,-1.1983,-1.1248,0.0,0.0,0.0,0.0,0.0,0.0,0.0,0.0,0.0,0.0,0.0,-1.6444,0.0,-1.6693,0.0,-2.2509,-2.1877,-2.116,-2.1086,-2.4215,-2.5545,-2.3562,-2.7983,-3.0551,-2.8943,-3.1335,-3.3364,-3.38,-3.3988,-3.4595,-3.5985,-3.3076,-3.0789,-3.0937,-3.1825,-3.2357,-3.2412,-3.3164,-3.3807,-3.3807,-3.4119,-3.4339,-3.4357,-3.4357,-3.4339,-3.4302,-3.3311,-3.2247,-3.1494,-3.0375,-2.9402,-2.9131,-2.9067,-2.9112,-2.9265,-2.9494,-2.9544,-2.9263,-2.9746,-3.0033,-0.539,-0.6333,-0.7832,-0.9565,-1.1334,-1.1447,-1.2694,-1.4573,-1.535,-1.7613,-2.0978,-2.4444,-2.7103,-2.9176,-3.0468,-3.1996,-3.3636,-3.4184,-3.4705,-3.5325,-3.5839,-3.6214,-3.6437,-3.7263,-3.6975,-3.573,-3.6297,-3.5527,-3.3362,-3.3145,-3.2532,-3.1558,-3.0961,-2.9642,-2.7611,-2.7597,-2.6913,-2.5392,-2.6103,-2.6818,-2.744,-2.7893,-2.6917,-2.4453,-2.4075,-2.3371,-2.2016,-2.0863,-2.0425,-2.0761,-1.9762,-1.6327,-1.0349,-1.32,-1.2893,0.0,-1.1684,0.0,0.0,0.0,0.0,0.0,0.0,0.0,0.0,-1.5133,-1.8186,-2.3239,-2.1969,-2.1133,-2.186,-2.2096,-2.2293,-2.2642,-2.639,-2.9317,-3.0058,-3.2144,-3.3881,-3.4673,-3.5189,-3.5482,-3.5672,-3.6023,-3.623,-3.6383,-3.6213,-3.5926,-3.63,-3.5483,-3.484,-3.5052,-3.455,-3.4321,-3.4339,-3.478,-3.5174,-3.5155,-3.5155,-3.5155,-3.5155,-3.4486,-3.3458,-3.2082,-3.1127,-3.0307,-2.9416,-2.9251,-2.9241,-2.9277,-2.9373,-2.9533,-2.9725,-2.9942,-2.9906,-0.5514,-0.6586,-0.9571,-1.1291,-1.2264,-1.4654,-1.5879,-1.647,-1.8644,-2.1892,-2.5643,-2.7707,-2.9846,-3.1813,-3.1958,-3.2765,-3.403,-3.443,-3.4753,-3.4969,-3.6067,-3.7056,-3.7866,-3.715,-3.6962,-3.7337,-3.6696,-3.538,-3.3619,-3.2932,-3.1316,-2.8812,-2.7931,-2.6859,-2.5534,0.0,0.0,0.0,-2.581,-2.6877,-2.5675,-2.5149,-2.4399,-2.3373,-2.2294,0.0,-2.133,-2.1027,-2.0473,-1.9607,-1.8848,0.0,0.0,0.0,0.0,0.0,0.0,0.0,0.0,0.0,0.0,0.0,-1.9626,-1.8679,-1.8099,-1.7298,-1.9126,-2.4493,-2.2719,-2.2591,-2.6168,-2.7131,-2.823,-3.0023,-3.154,-3.265,-3.3119,-3.3658,-3.4408,-3.5465,-3.5738,-3.6203,-3.7093,-3.7428,-3.7546,-3.774,-3.7945,-3.7977,-3.7985,-3.6445,-3.5385,-3.5408,-3.5568,-3.5789,-3.5826,-3.5917,-3.6046,-3.6046,-3.6046,-3.6064,-3.6028,-3.5367,-3.4523,-3.3458,-3.2687,-3.1641,-3.0289,-3.0013,-2.9798,-2.9259,-2.92,-2.9332,-2.9608,-2.9889,-3.0067,-0.6997,0.0,-1.1822,-1.3707,0.0,-1.8195,-2.0255,-2.1285,-2.1717,-2.4331,-2.8307,-2.9729,-3.1479,-3.3288,-3.3458,-3.4105,-3.5102,-3.5613,-3.5859,-3.5999,-3.6858,-3.7363,-3.7656,-3.6882,-3.6402,-3.6117,-3.5578,-3.4391,-3.2833,-3.2434,-3.1364,-2.9441,-2.8732,-2.8198,-2.7917,-2.7683,-2.6366,-2.3983,-2.542,-2.6064,-2.592,-2.5863,-2.5293,-2.4231,0.0,0.0,0.0,0.0,0.0,0.0,0.0,0.0,0.0,0.0,0.0,-1.9002,-2.1982,-2.4243,-2.5055,-2.5553,-2.5533,-2.4872,-2.5087,-2.4101,-2.1381,-2.1519,-2.367,-2.8052,-2.7398,-2.7723,-3.026,-3.0937,-3.163,-3.2713,-3.3186,-3.3609,-3.414,-3.4292,-3.4648,-3.5508,-3.5948,-3.6383,-3.6985,-3.7266,-3.7414,-3.7614,-3.765,-3.7596,-3.7417,-3.6784,-3.6218,-3.5895,-3.6346,-3.6618,-3.6384,-3.6622,-3.6824,-3.6872,-3.689,-3.7055,-3.7422,-3.645,-3.5367,-3.4523,-3.344,-3.2192,-3.1109,-3.0485,-3.0105,-2.9729,-2.9388,-2.9218,-2.9394,-2.9708,-3.0013,-0.9331,-1.0938,-1.456,-1.6807,-1.8296,-2.2282,-2.5348,-2.737,0.0,0.0,0.0,-3.1889,-3.3158,-3.4538,-3.4882,-3.5336,-3.5891,-3.6298,-3.6519,-3.6635,-3.7234,-3.7286,-3.6658,-3.6249,-3.5285,-3.4114,-3.3923,-3.3042,-3.173,-3.2017,-3.1793,-3.1048,-3.0369,-3.0138,-3.0294,-2.9574,-2.8318,-2.6651,-2.555,-2.5632,-2.6933,-2.7158,-2.6568,-2.5263,-2.5468,-2.5014,-2.3791,-2.3809,-2.4141,-2.467,-2.42,-2.4064,-2.4338,-2.4411,-2.4394,-2.4329,-2.48,-2.568,-2.6965,-2.7564,-2.8363,-2.9535,-3.0207,-2.8841,-2.4834,-2.6428,-2.8813,-3.1672,-3.2269,-3.2696,-3.3339,-3.3525,-3.3592,-3.3592,-3.3711,-3.4049,-3.4607,-3.4692,-3.4972,-3.5548,-3.5907,-3.6216,-3.6326,-3.6597,-3.6838,-3.69,-3.6978,-3.6781,-3.6568,-3.6844,-3.6859,-3.6435,-3.6862,-3.7148,-3.6863,-3.6839,-3.7326,-3.7613,-3.7569,-3.7734,-3.8083,-3.7386,-3.6211,-3.5082,-3.388,-3.2834,-3.1825,-3.1146,-3.0564,-3.0318,-2.9789,-2.9277,-2.9237,-2.9625,-3.004,-1.2178,-1.4765,-1.8238,-2.0947,-2.3324,-2.7609,-3.1298,-3.4023,-3.2002,-3.258,-3.4994,-3.5683,-3.6307,-3.6743,-3.5968,-3.5372,-3.5033,-3.4776,-3.4815,0.0,-3.5771,-3.5921,-3.5495,-3.4524,-3.3671,-3.2935,-3.261,-3.193,-3.125,-3.1995,-3.1944,-3.1135,-3.0092,-2.9107,-2.8101,-2.8425,-2.8265,-2.753,-2.7312,-2.7414,-2.7719,-2.6115,-2.5182,-2.4912,-2.3993,-2.3296,-2.3065,-2.3628,-2.393,-2.4036,-2.3945,-2.4595,-2.6191,-2.6341,-2.7063,-2.868,-2.8973,-2.9197,-2.9592,-2.9781,-2.9955,-3.0258,-3.0779,-3.0942,-3.0723,-3.0975,-3.1724,-3.3009,-3.3212,-3.3288,-3.344,-3.3981,-3.4336,-3.4387,-3.4912,-3.5351,-3.5419,-3.5436,-3.547,-3.5605,-3.5667,-3.5888,-3.6216,-3.6343,-3.6474,-3.6781,-3.6741,-3.6821,-3.6724,-3.6911,-3.6978,-3.6946,-3.7327,-3.7799,-3.7744,-3.7261,-3.7279,-3.8204,-3.7839,-3.7576,-3.7698,-3.7404,-3.6652,-3.533,-3.4724,-3.3945,-3.2724,-3.2375,-3.1659,-3.0693,-3.0239,-2.9955,-2.9443,-2.9967,-3.0377,-1.5414,-1.7175,-2.1591,-2.4579,-2.6811,-3.1684,-3.4618,-3.6018,-3.6217,-3.6663,-3.7365,-3.765,-3.8105,-3.8542,-3.7184,-3.6657,-3.6872,-3.6108,-3.6194,-3.6885,-3.6756,-3.6412,-3.5885,-3.5141,-3.4205,-3.329,-3.401,-3.3637,-3.2307,-3.3353,-3.3223,-3.1806,-3.0867,-3.0003,-2.9193,-2.9347,-2.9428,-2.9186,-2.8567,-2.8253,-2.8298,-2.7071,-2.6768,-2.744,-2.6838,-2.6552,-2.6567,-2.7135,-2.748,-2.7495,-2.7165,-2.754,-2.8674,-2.8779,-2.9237,-3.0262,-3.0684,-3.0824,-3.0608,-3.0685,-3.1052,-3.1747,-3.2127,-3.2604,-3.3432,-3.2758,-3.2812,-3.3845,-3.3998,-3.4184,-3.4556,-3.4895,-3.5098,-3.5098,-3.5436,-3.5622,-3.5639,-3.5639,-3.5639,-3.5639,-3.5639,-3.5711,-3.5888,-3.5915,-3.5958,-3.6199,-3.6224,-3.6224,-3.6224,-3.6457,-3.6741,-3.6943,-3.7173,-3.7396,-3.7649,-3.7345,-3.7164,-3.75,-3.7707,-3.7671,-3.7528,-3.7195,-3.6673,-3.6166,-3.5248,-3.4174,-3.3275,-3.2871,-3.2284,-3.1825,-3.1134,-3.0754,-3.0502,-3.0835,-3.1157,-1.8689,-1.9799,-2.4564,-2.8056,-3.0617,-3.4629,-3.6698,-3.74,-3.8741,-3.9354,-3.9402,-3.9349,-3.9595,-3.9923,-3.8469,-3.7888,-3.8019,-3.751,-3.7634,-3.8254,-3.7993,-3.7331,-3.6593,-3.6182,-3.5289,-3.4245,-3.5381,-3.5123,-3.3643,-3.4626,-3.4257,-3.2458,-3.1797,-3.1138,-3.0199,-3.0312,-3.0449,-3.045,-2.9748,-2.9318,-2.93,-2.8656,-2.8803,-2.9675,-2.9759,-2.9774,-2.9819,-3.0402,-3.0806,-3.0911,-3.0357,-3.0298,-3.0896,-3.0806,-3.0803,-3.0975,-3.1441,-3.1615,-3.1433,-3.1613,-3.2151,-3.3061,-3.3355,-3.3818,-3.4543,-3.3914,-3.3707,-3.4597,-3.4742,-3.4979,-3.5436,-3.5588,-3.5622,-3.5622,-3.5639,-3.5639,-3.5639,-3.5639,-3.5639,-3.5639,-3.5639,-3.5639,-3.5639,-3.5639,-3.5622,-3.5667,-3.5639,-3.5639,-3.5667,-3.5915,-3.6266,-3.6563,-3.6724,-3.69,-3.7041,-3.6653,-3.6466,-3.6432,-3.6748,-3.6732,-3.6577,-3.6179,-3.5983,-3.5928,-3.4936,-3.3972,-3.3752,-3.3348,-3.2852,-3.2504,-3.2008,-3.1678,-3.1648,-3.1824,-3.203,-2.1726,-2.4268,-2.7063,-3.1207,-3.536,-3.6177,-3.771,-3.9436,-3.8939,-3.9603,-4.1206,-4.1491,-4.1185,-4.0631,-3.9715,-3.846,-3.7172,-3.7376,-3.7696,-3.7956,-3.8429,-3.8145,-3.7217,-3.6978,-3.629,-3.5213,-3.543,-3.5234,-3.4267,-3.4907,-3.4327,-3.2701,-3.244,-3.1487,-2.9944,-3.0201,-3.0536,-3.051,-3.097,-3.1232,-3.12,-3.0559,-3.0302,-3.0417,-3.0417,-3.0417,-3.0387,-3.1091,-3.1704,-3.2213,-3.1644,-3.1629,-3.2138,-3.1691,-3.1435,-3.142,-3.1509,-3.1751,-3.24,-3.3114,-3.3443,-3.3626,-3.4084,-3.4382,-3.4594,-3.4938,-3.5256,-3.5442,-3.5442,-3.5504,-3.556,-3.5639,-3.5639,-3.5639,-3.5639,-3.5639,-3.5639,-3.5639,-3.5639,-3.5639,-3.5639,-3.5639,-3.5639,-3.5639,-3.5639,-3.5639,-3.5639,-3.5639,-3.5622,-3.5667,-3.5739,-3.5871,-3.6088,-3.6474,-3.6619,-3.544,-3.5147,-3.5664,-3.5048,-3.4873,-3.4948,-3.4915,-3.4684,-3.5275,-3.4302,-3.399,-3.4045,-3.3697,-3.3532,-3.3091,-3.2742,-3.2504,-3.2529,-3.2662,-3.2776,-2.3749,-2.5226,-2.8146,-3.1995,-3.5926,-3.7282,-3.8365,-3.9303,-3.9636,-4.0543,-4.1758,-4.1908,-4.1784,-4.1433,-4.0126,-3.9643,-3.9993,-4.0095,-4.0694,-4.1404,-4.1021,-4.0699,-4.0593,-3.9736,-3.871,-3.7629,-3.8355,-3.7855,-3.6216,-3.559,-3.483,-3.3676,-3.2921,-3.2044,-3.1362,-3.1529,-3.1486,-3.1117,-3.1738,-3.1928,-3.1509,-3.0866,-3.0702,-3.1031,-3.0717,-3.0492,-3.0567,-3.1165,-3.148,-3.1375,-3.145,-3.1644,-3.1855,-3.1616,-3.1467,-3.1539,-3.1853,-3.2327,-3.2895,-3.3351,-3.3662,-3.3951,-3.43,-3.4643,-3.4947,-3.5245,-3.5383,-3.5412,-3.5532,-3.5639,-3.5622,-3.5639,-3.5639,-3.5639,-3.5639,-3.5639,-3.5639,-3.5639,-3.5639,-3.5639,-3.5639,-3.5639,-3.5639,-3.5639,-3.5639,-3.5639,-3.5639,-3.5639,-3.5639,-3.5639,-3.5639,-3.5622,-3.58,-3.5915,-3.6011,-3.5256,-3.4708,-3.4718,-3.4707,-3.4552,-3.4353,-3.4582,-3.4887,-3.5487,-3.4963,-3.4926,-3.5772,-3.5376,-3.5037,-3.4229,-3.3513,-3.3311,-3.3311,-3.339,-3.3401,-2.5065,-2.6261,-2.9447,-3.2858,-3.5932,-3.7579,-3.8392,-3.8697,-3.9731,-4.0708,-4.1509,-4.1512,-4.1725,-4.1892,-4.0806,-4.1175,-4.2436,-4.2725,-4.346,-4.4616,-4.3853,-4.3715,-4.3847,-4.2872,-4.15,-4.0408,-4.0916,-4.0171,-3.7878,-3.6611,-3.577,-3.52,-3.4121,-3.3317,-3.2838,-3.2792,-3.2359,-3.1644,-3.2018,-3.2093,-3.1779,-3.1315,-3.121,-3.1392,-3.1046,-3.0791,-3.0791,-3.1285,-3.1405,-3.1091,-3.1375,-3.1571,-3.1794,-3.1571,-3.1597,-3.1796,-3.2272,-3.2841,-3.3423,-3.3681,-3.4002,-3.4333,-3.4513,-3.4739,-3.5088,-3.5245,-3.5245,-3.5228,-3.5412,-3.5549,-3.5594,-3.5577,-3.5622,-3.5639,-3.5639,-3.5639,-3.5639,-3.5639,-3.5639,-3.5639,-3.5639,-3.5639,-3.5639,-3.5639,-3.5639,-3.5639,-3.5639,-3.5639,-3.5639,-3.5639,-3.5639,-3.5639,-3.5622,-3.5622,-3.5554,-3.4779,-3.4328,-3.4031,-3.406,-3.3949,-3.4023,-3.4359,-3.496,-3.5316,-3.5318,-3.5587,-3.6074,-3.6156,-3.6028,-3.5202,-3.4412,-3.3844,-3.3697,-3.377,-3.385,-2.5222,-2.7878,-3.1528,-3.3965,-3.5641,-3.6628,-3.7305,-3.801,-3.8714,-3.9516,-4.0504,-4.0349,-4.1018,-4.2432,-4.2246,-4.2544,-4.3224,-4.4527,-4.5481,-4.6081,-4.6644,-4.6715,-4.6157,-4.5555,-4.4504,-4.3115,-4.2421,-4.1155,-3.9502,-3.8058,-3.7359,-3.7294,-3.6416,-3.5211,-3.3805,-3.3552,-3.2837,-3.188,-3.1809,-3.1943,-3.2407,-3.2437,-3.2123,-3.1631,-3.1467,-3.1482,-3.1554,-3.1497,-3.1839,-3.2407,-3.1988,-3.1913,-3.2347,-3.1913,-3.1845,-3.2318,-3.2873,-3.3455,-3.4032,-3.4497,-3.4838,-3.4918,-3.4967,-3.4932,-3.5063,-3.5074,-3.5088,-3.5105,-3.5228,-3.5367,-3.5475,-3.5549,-3.5577,-3.5639,-3.5639,-3.5639,-3.5639,-3.5639,-3.5639,-3.5639,-3.5639,-3.5639,-3.5639,-3.5639,-3.5639,-3.5639,-3.5639,-3.5639,-3.5639,-3.5639,-3.5639,-3.5639,-3.5639,-3.5639,-3.5487,-3.4709,-3.3855,-3.3624,-3.3562,-3.2951,-3.3193,-3.3663,-3.4564,-3.5351,-3.5875,-3.6229,-3.6321,-3.6229,-3.6028,-3.5422,-3.4596,-3.4119,-3.4119,-3.388,-3.386,-2.6784,-2.9913,-3.2438,-3.4012,-3.4966,-3.6155,-3.6938,-3.7286,-3.8236,-3.9365,-4.0393,-4.0363,-4.1543,-4.3614,-4.3614,-4.4212,-4.5236,-4.6621,-4.7788,-4.8611,-4.8641,-4.8656,-4.8775,-4.834,-4.7415,-4.6165,-4.5784,-4.4181,-4.1606,-4.0065,-3.9172,-3.8476,-3.7144,-3.5985,-3.5378,-3.4911,-3.4278,-3.3434,-3.3397,-3.3335,-3.3155,-3.314,-3.3021,-3.2811,-3.2781,-3.2796,-3.2796,-3.3604,-3.3799,-3.3185,-3.3709,-3.3784,-3.32,-3.2916,-3.2868,-3.3049,-3.3253,-3.3731,-3.4594,-3.4901,-3.5431,-3.6175,-3.586,-3.5611,-3.5512,-3.5245,-3.4947,-3.5011,-3.5105,-3.5198,-3.5245,-3.5429,-3.5566,-3.5577,-3.5639,-3.5656,-3.5639,-3.5639,-3.5639,-3.5639,-3.5639,-3.5639,-3.5673,-3.5639,-3.5639,-3.5639,-3.5639,-3.5639,-3.5639,-3.5639,-3.5673,-3.5639,-3.5639,-3.5639,-3.5622,-3.4827,-3.4083,-3.3999,-3.3867,-3.3861,-3.4037,-3.4533,-3.5361,-3.6194,-3.6735,-3.7136,-3.7283,-3.7037,-3.6707,-3.6413,-3.5532,-3.4504,-3.455,-3.4156,-3.3899,-2.8289,-3.0954,-3.2807,-3.372,-3.4213,-3.5451,-3.5918,-3.602,-3.7763,-3.9047,-3.9796,-4.065,-4.2162,-4.3958,-4.487,-4.6007,-4.7264,-4.8237,-4.9419,-5.075,-5.0421,-5.0725,-5.1455,-5.0959,-5.0024,-4.8898,-4.7709,-4.5897,-4.3754,-4.1741,-4.075,-4.0341,-3.8389,-3.7118,-3.6717,-3.6253,-3.556,-3.4657,-3.444,-3.4301,-3.4145,-3.4128,-3.4367,-3.4651,-3.4577,-3.4233,-3.3873,-3.4517,-3.4592,-3.4023,-3.4502,-3.4442,-3.3619,-3.3499,-3.3578,-3.3652,-3.3706,-3.4104,-3.4968,-3.5303,-3.5828,-3.668,-3.6538,-3.6357,-3.6324,-3.5893,-3.5644,-3.5595,-3.5394,-3.544,-3.5752,-3.5827,-3.5744,-3.5667,-3.5797,-3.5859,-3.5673,-3.5639,-3.5639,-3.5673,-3.5893,-3.5994,-3.5994,-3.5994,-3.6028,-3.5994,-3.5825,-3.569,-3.591,-3.5994,-3.5994,-3.5994,-3.6045,-3.6079,-3.6113,-3.5673,-3.4793,-3.4592,-3.4449,-3.4559,-3.4861,-3.5403,-3.6085,-3.6949,-3.757,-3.801,-3.8077,-3.7833,-3.7643,-3.7441,-3.6156,-3.4816,-3.4614,-3.4284,-3.4009,-2.9714,-3.1141,-3.2653,-3.3381,-3.3457,-3.4193,-3.4221,-3.4537,-3.701,-3.8007,-3.8506,-4.0837,-4.2365,-4.3787,-4.5878,-4.7878,-4.897,-4.9434,-5.0481,-5.1992,-5.2127,-5.2857,-5.4052,-5.3315,-5.257,-5.1676,-4.7929,-4.6061,-4.5745,-4.3183,-4.1966,-4.1981,-4.0166,-3.8532,-3.7329,-3.7196,-3.6342,-3.5074,-3.4678,-3.4851,-3.5374,-3.5474,-3.5968,-3.6881,-3.6537,-3.5714,-3.4577,-3.4068,-3.4143,-3.4442,-3.4068,-3.3589,-3.3709,-3.3679,-3.3774,-3.4163,-3.4309,-3.4601,-3.5203,-3.5796,-3.6206,-3.6629,-3.6828,-3.7102,-3.7102,-3.697,-3.6887,-3.6771,-3.639,-3.629,-3.6854,-3.6768,-3.634,-3.5744,-3.6371,-3.6502,-3.5994,-3.569,-3.5656,-3.5808,-3.6248,-3.6721,-3.6772,-3.6772,-3.6772,-3.6671,-3.6315,-3.6129,-3.6654,-3.6789,-3.6789,-3.6789,-3.6772,-3.6772,-3.6789,-3.6734,-3.5808,-3.5142,-3.4955,-3.4968,-3.5423,-3.5897,-3.6577,-3.7383,-3.7872,-3.8295,-3.842,-3.8193,-3.7918,-3.7496,-3.6156,-3.5265,-3.5027,-3.4752,-3.4064,-3.0055,-3.155,-3.2764,-3.3281,-3.3277,-3.3372,-3.3477,-3.3892,-3.4986,-3.6211,-3.7771,-3.9506,-4.1513,-4.3843,-4.6275,-4.8267,-4.9972,-5.1274,-5.2321,-5.289,-5.3369,-5.3594,-5.3899,-5.5018,-5.5,-5.3388,-5.0445,-4.8535,-4.7538,-4.5072,-4.3597,-4.2907,-4.1127,-3.9648,-3.8739,-3.7858,-3.6938,-3.6507,-3.609,-3.5969,-3.6207,-3.6611,-3.6836,-3.6731,-3.6567,-3.6252,-3.5878,-3.5669,-3.5669,-3.5818,-3.5669,-3.5355,-3.4966,-3.4876,-3.4778,-3.4499,-3.4835,-3.5357,-3.6011,-3.6573,-3.7292,-3.7995,-3.8025,-3.7845,-3.7798,-3.7417,-3.7185,-3.7152,-3.6887,-3.6903,-3.7119,-3.7603,-3.7468,-3.7043,-3.732,-3.7466,-3.7077,-3.6688,-3.6451,-3.6434,-3.6637,-3.6975,-3.7415,-3.755,-3.755,-3.755,-3.728,-3.7263,-3.7466,-3.755,-3.755,-3.7567,-3.755,-3.755,-3.755,-3.755,-3.711,-3.6451,-3.6158,-3.5929,-3.6249,-3.6664,-3.7307,-3.7735,-3.8216,-3.8442,-3.8554,-3.8487,-3.8212,-3.7771,-3.6806,-3.6219,-3.5823,-3.51,-3.4174,-3.0647,-3.1995,-3.2932,-3.3281,-3.3323,-3.313,-3.2959,-3.304,-3.3717,-3.4759,-3.6049,-3.7975,-4.034,-4.3128,-4.568,-4.7858,-4.9882,-5.2417,-5.3503,-5.3455,-5.4227,-5.448,-5.443,-5.5317,-5.5423,-5.3832,-5.1446,-4.9839,-4.8995,-4.6477,-4.4721,-4.3794,-4.2369,-4.1243,-4.0492,-3.9723,-3.9103,-3.8603,-3.8151,-3.7821,-3.7706,-3.7961,-3.7973,-3.7584,-3.7105,-3.6985,-3.7105,-3.6537,-3.6252,-3.6387,-3.6267,-3.5908,-3.5534,-3.5459,-3.531,-3.5045,-3.5195,-3.5723,-3.6369,-3.6953,-3.7776,-3.8592,-3.8735,-3.8609,-3.8526,-3.8112,-3.793,-3.7897,-3.7665,-3.7615,-3.7965,-3.8134,-3.8371,-3.8455,-3.8317,-3.8179,-3.7908,-3.7499,-3.7229,-3.7246,-3.7466,-3.7821,-3.8159,-3.8311,-3.8311,-3.8294,-3.8075,-3.8091,-3.8193,-3.8311,-3.8311,-3.8311,-3.8311,-3.8311,-3.8311,-3.8311,-3.8311,-3.7905,-3.7499,-3.7331,-3.743,-3.7802,-3.8288,-3.8473,-3.8879,-3.8538,-3.8578,-3.8572,-3.837,-3.7821,-3.7161,-3.6289,-3.5454,-3.4596,-3.3798,-3.1513,-3.2443,-3.3058,-3.3247,-3.3178,-3.3104,-3.2345,-3.161,-3.2922,-3.3495,-3.398,-3.6446,-3.9186,-4.1864,-4.4922,-4.7264,-4.9281,-5.244,-5.3911,-5.3875,-5.4465,-5.521,-5.5865,-5.4774,-5.395,-5.3239,-5.1243,-4.9922,-4.9193,-4.699,-4.5467,-4.4705,-4.3893,-4.3247,-4.2444,-4.246,-4.1547,-4.0663,-4.0483,-4.0138,-3.9616,-3.9637,-3.9379,-3.9215,-3.8108,-3.7629,-3.7614,-3.6537,-3.5923,-3.6267,-3.5848,-3.5579,-3.5504,-3.5489,-3.5474,-3.5529,-3.5604,-3.6024,-3.6569,-3.7302,-3.793,-3.8502,-3.8974,-3.9272,-3.9139,-3.904,-3.899,-3.899,-3.856,-3.851,-3.8927,-3.8797,-3.8853,-3.9426,-3.916,-3.8671,-3.806,-3.7973,-3.7973,-3.8058,-3.8548,-3.9005,-3.8988,-3.9056,-3.9056,-3.8954,-3.8582,-3.865,-3.8853,-3.9056,-3.9056,-3.9056,-3.9056,-3.9056,-3.9056,-3.9056,-3.9039,-3.8937,-3.858,-3.8389,-3.8294,-3.8611,-3.87,-3.8923,-3.8995,-3.8692,-3.8478,-3.8387,-3.8144,-3.7577,-3.676,-3.5805,-3.4984,-3.4247,-3.3744,-3.0712,-3.2499,-3.312,-3.3051,-3.2604,-3.1949,-3.1275,-3.0688,-3.0893,-3.2135,-3.3493,-3.5413,-3.8443,-4.1914,-4.4745,-4.7164,-4.9202,-5.1816,-5.3654,-5.4052,-5.3812,-5.4675,-5.5205,-5.3522,-5.2813,-5.2834,-5.118,-5.0121,-4.9756,-4.7653,-4.6228,-4.55,-4.4837,-4.4108,-4.3386,-4.2977,-4.2492,-4.2164,-4.2125,-4.1783,-4.121,-4.1398,-4.0876,-3.9379,-3.8556,-3.7749,-3.712,-3.6522,-3.6013,-3.5759,-3.5624,-3.5489,-3.5534,-3.5519,-3.5714,-3.6143,-3.6585,-3.7147,-3.7722,-3.8343,-3.8805,-3.8969,-3.9148,-3.9288,-3.9288,-3.9288,-3.9288,-3.9255,-3.9073,-3.904,-3.9259,-3.9126,-3.9265,-3.9506,-3.9648,-3.9479,-3.8854,-3.8717,-3.8717,-3.8734,-3.892,-3.9225,-3.958,-3.9715,-3.9732,-3.9698,-3.9563,-3.9411,-3.9563,-3.9665,-3.9614,-3.9749,-3.9783,-3.9783,-3.9783,-3.9783,-3.9783,-3.9783,-3.9527,-3.9163,-3.9036,-3.9028,-3.8863,-3.872,-3.8703,-3.8456,-3.819,-3.7968,-3.7598,-3.704,-3.6152,-3.5107,-3.4768,-3.4196,-3.3797,-3.1035,-3.2225,-3.2336,-3.2047,-3.1431,-3.0474,-2.9851,-2.9903,-3.0438,-3.1491,-3.3275,-3.5076,-3.7939,-4.1338,-4.3782,-4.5915,-4.808,-5.0727,-5.2045,-5.2254,-5.188,-5.2506,-5.3101,-5.1709,-5.1322,-5.2106,-5.0536,-4.9562,-4.9093,-4.7918,-4.6858,-4.603,-4.5997,-4.5698,-4.5119,-4.466,-4.4292,-4.4068,-4.3977,-4.3472,-4.2627,-4.2466,-4.1536,-4.0031,-3.8948,-3.7868,-3.7015,-3.6866,-3.6462,-3.5818,-3.5759,-3.5923,-3.5893,-3.5639,-3.5924,-3.6721,-3.725,-3.7692,-3.8344,-3.895,-3.932,-3.9284,-3.9288,-3.9288,-3.9288,-3.9288,-3.9288,-3.9272,-3.9288,-3.9288,-3.9325,-3.9325,-3.9379,-3.9571,-4.0014,-4.0087,-3.9379,-3.9295,-3.9295,-3.9362,-3.9379,-3.953,-4.0037,-4.0087,-4.0087,-4.0054,-3.9952,-3.9902,-4.002,-4.0037,-4.0037,-4.0087,-4.0087,-4.0003,-3.9952,-3.9952,-3.9851,-3.9901,-3.9494,-3.9285,-3.937,-3.9268,-3.9236,-3.8954,-3.86,-3.8178,-3.7812,-3.7293,-3.6534,-3.5891,-3.5132,-3.4666,-3.4327,-3.4109,-3.3738,-3.167,-3.1812,-3.1184,-3.0669,-3.0133,-2.9155,-2.8935,-2.9079,-3.074,-3.1978,-3.3034,-3.5005,-3.7717,-4.0494,-4.2611,-4.4372,-4.6711,-4.9274,-4.9905,-4.9937,-4.9777,-5.0292,-5.0753,-4.9904,-4.9747,-5.0285,-4.9312,-4.8502,-4.8031,-4.7787,-4.7174,-4.656,-4.7239,-4.752,-4.6808,-4.6695,-4.6543,-4.6019,-4.5473,-4.4901,-4.3941,-4.3289,-4.2171,-4.0622,-3.9244,-3.8287,-3.7749,-3.7554,-3.7165,-3.5893,-3.6327,-3.6537,-3.6507,-3.5998,-3.637,-3.7225,-3.7671,-3.7966,-3.86,-3.9301,-3.9625,-3.9676,-3.9653,-3.9487,-3.9669,-3.9752,-3.9736,-3.9769,-3.9504,-3.962,-3.9508,-3.9495,-3.9432,-3.9584,-4.0207,-4.0344,-4.0012,-3.9862,-3.9964,-4.0085,-4.0153,-4.0154,-4.0172,-4.024,-4.029,-4.0037,-4.007,-4.0222,-4.0121,-3.9986,-4.0037,-4.0087,-4.0087,-4.0087,-4.007,-4.007,-3.9918,-3.9783,-3.9089,-3.8863,-3.9221,-3.9282,-3.9546,-3.9393,-3.859,-3.7864,-3.7264,-3.657,-3.5914,-3.5527,-3.5278,-3.4558,-3.3857,-3.3778,-3.3517,-3.0856,-3.1716,-3.1196,-3.0482,-2.9674,-2.9384,-2.903,-2.8869,-3.0956,-3.239,-3.352,-3.4971,-3.7606,-4.0841,-4.232,-4.4076,-4.6355,-4.77,-4.8101,-4.8429,-4.8652,-4.8365,-4.8205,-4.7722,-4.7814,-4.8027,-4.7893,-4.7387,-4.7075,-4.7257,-4.7325,-4.6665,-4.7077,-4.7901,-4.7653,-4.7123,-4.7173,-4.7255,-4.6434,-4.575,-4.5226,-4.4455,-4.3132,-4.1302,-3.996,-3.8901,-3.8467,-3.8706,-3.8571,-3.7913,-3.7494,-3.7449,-3.7225,-3.7015,-3.7323,-3.7937,-3.8203,-3.8731,-3.971,-4.0011,-4.0391,-4.0694,-4.0707,-4.0961,-4.0961,-4.0878,-4.0895,-4.0945,-4.0945,-4.0597,-4.0183,-3.9674,-3.9475,-3.9628,-4.0059,-4.0479,-4.0413,-4.0925,-4.1251,-4.1335,-4.1355,-4.1255,-4.0788,-4.1157,-4.0942,-4.0271,-4.017,-4.0389,-4.0204,-3.9986,-3.9902,-3.9935,-4.007,-4.007,-4.0087,-3.9986,-3.9715,-3.9394,-3.8734,-3.7973,-3.8376,-3.8562,-3.8547,-3.8472,-3.8347,-3.7625,-3.6844,-3.6775,-3.6318,-3.5905,-3.5471,-3.4891,-3.4347,-3.393,-3.361,-3.0411,-3.1244,-3.0111,-2.9386,-2.8972,-2.7946,-2.7935,-2.9228,-3.0903,-3.2569,-3.418,-3.5707,-3.8178,-4.0922,-4.2502,-4.4362,-4.6133,-4.6734,-4.6897,-4.6922,-4.694,-4.6375,-4.5987,-4.5684,-4.571,-4.6356,-4.6206,-4.5892,-4.573,-4.6056,-4.5893,-4.5196,-4.6241,-4.6961,-4.7389,-4.7042,-4.7322,-4.7719,-4.7289,-4.6682,-4.6225,-4.552,-4.4118,-4.2231,-4.0898,-4.0127,-3.9918,-4.0457,-4.0382,-3.9873,-3.9409,-3.8751,-3.7928,-3.7614,-3.7895,-3.8698,-3.8928,-3.9137,-3.9866,-4.0537,-4.0908,-4.1,-4.1181,-4.1368,-4.1425,-4.1425,-4.1425,-4.1425,-4.1359,-4.121,-4.0862,-4.0233,-3.9852,-3.9906,-4.015,-4.0382,-4.0553,-4.1178,-4.1738,-4.1755,-4.1727,-4.1632,-4.1598,-4.1749,-4.1636,-4.0973,-4.0347,-4.0481,-4.0068,-3.985,-3.9615,-3.9682,-3.9952,-4.0104,-4.007,-3.9868,-3.9462,-3.8971,-3.8294,-3.7398,-3.6966,-3.7098,-3.7175,-3.7309,-3.751,-3.7117,-3.6542,-3.6568,-3.6584,-3.6055,-3.5584,-3.5289,-3.5054,-3.4824,-3.448,-3.0053,-3.0623,-2.8967,-2.8317,-2.8102,-2.6552,-2.7284,-2.9335,-3.1077,-3.2903,-3.4674,-3.6823,-3.8472,-4.072,-4.2422,-4.4331,-4.5682,-4.6068,-4.6005,-4.5806,-4.5342,-4.5049,-4.4705,-4.4398,-4.4294,-4.5248,-4.4883,-4.4419,-4.4231,-4.4575,-4.4724,-4.3789,-4.4707,-4.5913,-4.6421,-4.6487,-4.67,-4.7273,-4.6814,-4.6618,-4.6175,-4.5565,-4.4113,-4.2695,-4.1639,-4.125,-4.116,-4.1534,-4.1788,-4.1444,-4.1384,-4.0412,-3.9095,-3.8182,-3.8108,-3.9305,-3.9343,-3.9527,-3.9869,-4.0609,-4.1034,-4.0684,-4.1252,-4.1692,-4.1799,-4.1955,-4.1988,-4.1856,-4.1806,-4.1591,-4.1392,-4.0895,-4.0514,-4.0448,-4.0498,-4.0696,-4.0845,-4.1309,-4.1896,-4.186,-4.1777,-4.1633,-4.1755,-4.1872,-4.1794,-4.1632,-4.0988,-4.0421,-3.9995,-3.9782,-3.9598,-3.9615,-3.9902,-4.0054,-4.007,-3.9698,-3.9292,-3.8836,-3.8091,-3.7195,-3.6265,-3.622,-3.6485,-3.6629,-3.6648,-3.6422,-3.6503,-3.6719,-3.6566,-3.6085,-3.6001,-3.5996,-3.5874,-3.5783,-3.5245,-2.9667,-2.973,-2.9339,-2.8391,-2.7241,-2.8028,-2.8784,-2.976,-3.181,-3.3801,-3.5232,-3.6301,-3.8045,-4.0134,-4.1734,-4.3446,-4.4783,-4.4887,-4.4811,-4.4816,-4.447,-4.4219,-4.4136,-4.3891,-4.3617,-4.301,-4.3174,-4.3359,-4.3198,-4.3696,-4.3984,-4.3961,-4.4399,-4.5138,-4.5581,-4.5387,-4.5549,-4.6099,-4.5539,-4.5069,-4.5112,-4.4601,-4.3898,-4.2751,-4.2181,-4.1791,-4.158,-4.161,-4.1489,-4.1384,-4.1384,-4.092,-4.0142,-3.9424,-3.9215,-3.9275,-3.9403,-3.9576,-4.0063,-4.0436,-4.1288,-4.1916,-4.2207,-4.2621,-4.297,-4.3148,-4.2932,-4.2833,-4.2485,-4.2071,-4.1458,-4.1127,-4.0895,-4.0829,-4.1193,-4.1823,-4.2005,-4.2353,-4.2634,-4.2311,-4.1946,-4.1697,-4.1903,-4.1893,-4.1544,-4.1333,-4.0829,-4.0267,-3.9792,-3.9696,-3.9664,-3.9766,-3.9986,-4.007,-4.0087,-3.9563,-3.9106,-3.8819,-3.8159,-3.7381,-3.6569,-3.5977,-3.5909,-3.612,-3.6388,-3.6435,-3.657,-3.6807,-3.7041,-3.6978,-3.6898,-3.6779,-3.6671,-3.6472,-3.5571,-2.8855,-2.9445,-2.9159,-2.8413,-2.7494,-2.7947,-2.9003,-3.025,-3.1533,-3.3217,-3.4977,-3.6307,-3.7859,-3.9778,-4.1476,-4.2964,-4.3815,-4.3604,-4.3557,-4.3715,-4.3204,-4.2995,-4.3299,-4.3284,-4.2898,-4.2471,-4.2673,-4.2718,-4.2466,-4.2864,-4.3472,-4.3804,-4.389,-4.4394,-4.5167,-4.4969,-4.5112,-4.5309,-4.5009,-4.4741,-4.5,-4.4351,-4.3967,-4.3951,-4.3361,-4.3046,-4.3047,-4.3365,-4.3089,-4.2584,-4.2417,-4.2013,-4.1324,-4.0516,-3.9783,-3.9544,-3.9439,-3.9481,-3.995,-4.0216,-4.0977,-4.1836,-4.2333,-4.2912,-4.3372,-4.3562,-4.3495,-4.3081,-4.285,-4.222,-4.1491,-4.116,-4.0729,-4.058,-4.1094,-4.1442,-4.1607,-4.2137,-4.2369,-4.2469,-4.2204,-4.2021,-4.217,-4.1979,-4.1432,-4.1017,-4.0636,-4.0147,-3.9623,-3.9609,-3.9627,-3.9648,-3.9834,-4.0037,-4.0087,-3.9749,-3.9309,-3.8937,-3.8464,-3.7686,-3.7043,-3.6535,-3.6011,-3.5813,-3.6036,-3.6422,-3.6626,-3.6808,-3.7343,-3.7792,-3.7589,-3.7401,-3.7395,-3.7033,-3.62,-2.8613,-2.9576,-2.92,-2.8528,-2.7905,-2.7913,-2.8969,-3.058,-3.104,-3.2592,-3.4857,-3.637,-3.7761,-3.9398,-4.1054,-4.2564,-4.3388,-4.2696,-4.259,-4.2618,-4.2114,-4.1893,-4.2359,-4.2482,-4.2607,-4.305,-4.2599,-4.2488,-4.2752,-4.2727,-4.3205,-4.41,-4.3834,-4.425,-4.5491,-4.5688,-4.5594,-4.5403,-4.5591,-4.5528,-4.5114,-4.4677,-4.4662,-4.5285,-4.4673,-4.4202,-4.435,-4.4433,-4.4082,-4.3452,-4.3202,-4.297,-4.2312,-4.1369,-4.0516,-3.9918,-3.9604,-3.9439,-3.9583,-4.0107,-4.0709,-4.1307,-4.2141,-4.2859,-4.3497,-4.3696,-4.3562,-4.2783,-4.2502,-4.2071,-4.1276,-4.1028,-4.0729,-4.0498,-4.0663,-4.0895,-4.1193,-4.1607,-4.2038,-4.2154,-4.222,-4.2253,-4.222,-4.1243,-4.0514,-4.063,-4.032,-3.9922,-3.9465,-3.9537,-3.9506,-3.953,-3.9665,-3.9969,-4.0087,-4.0087,-3.9715,-3.9428,-3.8988,-3.8345,-3.7753,-3.7212,-3.6721,-3.6332,-3.6208,-3.6594,-3.6693,-3.6759,-3.7132,-3.7487,-3.781,-3.7946,-3.7814,-3.7507,-3.6874,-2.9612,-3.0099,-3.0015,-2.8965,-2.7715,-2.902,-2.9908,-3.0408,-3.1187,-3.304,-3.5416,-3.6194,-3.7362,-3.9095,-4.0658,-4.1621,-4.188,-4.1699,-4.1758,-4.2012,-4.1787,-4.2175,-4.309,-4.3199,-4.3466,-4.365,-4.3151,-4.317,-4.3529,-4.3411,-4.4185,-4.541,-4.564,-4.6045,-4.709,-4.6781,-4.6563,-4.5571,-4.5354,-4.478,-4.3904,-4.363,-4.4004,-4.4372,-4.4288,-4.4246,-4.4746,-4.4658,-4.4,-4.376,-4.3467,-4.3064,-4.2462,-4.2282,-4.1773,-4.1025,-4.0217,-3.9439,-3.9634,-4.0121,-4.0512,-4.0993,-4.1731,-4.2762,-4.3441,-4.3981,-4.3794,-4.2651,-4.2485,-4.1832,-4.0998,-4.1475,-4.1342,-4.1193,-4.111,-4.174,-4.2104,-4.1375,-4.1773,-4.1905,-4.2005,-4.2021,-4.1988,-4.0729,-3.9723,-3.9885,-3.9967,-3.964,-3.9392,-3.9465,-3.9484,-3.9493,-3.9598,-3.9919,-4.0037,-4.0087,-4.0003,-3.9783,-3.9462,-3.8988,-3.843,-3.7922,-3.7753,-3.7411,-3.7143,-3.6655,-3.6586,-3.6683,-3.6891,-3.7132,-3.7487,-3.781,-3.8104,-3.7778,-3.7419,-2.9991,-2.9431,-2.9945,-2.9256,-2.803,-2.9569,-3.0618,-3.1096,-3.1591,-3.3171,-3.5169,-3.5793,-3.7026,-3.8799,-3.9748,-4.0089,-4.0491,-4.064,-4.0963,-4.1484,-4.1539,-4.2181,-4.337,-4.3393,-4.3589,-4.4596,-4.4235,-4.4406,-4.4788,-4.488,-4.5308,-4.7221,-4.7145,-4.749,-4.8561,-4.7603,-4.6819,-4.5879,-4.4946,-4.3913,-4.3479,-4.3423,-4.3942,-4.511,-4.483,-4.523,-4.5626,-4.5665,-4.5079,-4.4763,-4.4357,-4.3883,-4.3395,-4.2876,-4.2162,-4.1908,-4.0696,-4.0232,-4.0487,-4.0457,-4.0595,-4.0836,-4.1333,-4.1771,-4.2848,-4.3555,-4.3487,-4.207,-4.1931,-4.1238,-4.0212,-4.0348,-4.0492,-4.068,-4.1276,-4.2154,-4.2502,-4.1889,-4.1607,-4.169,-4.1707,-4.1574,-4.1326,-4.0348,-3.9487,-3.9553,-3.9669,-3.9557,-3.9375,-3.9448,-3.9484,-3.9573,-3.9731,-3.9935,-3.9986,-4.0037,-4.0087,-3.9952,-3.9952,-3.9478,-3.9022,-3.865,-3.8481,-3.8125,-3.7665,-3.7194,-3.6761,-3.656,-3.6672,-3.6913,-3.7152,-3.7631,-3.8059,-3.8212,-3.7869,-3.0385,-2.9676,-3.0337,-3.0072,-2.9212,-3.0614,-3.1669,-3.2265,-3.2575,-3.3744,-3.5249,-3.5893,-3.7071,-3.8562,-3.9171,-3.9664,-3.9771,-4.0244,-4.0801,-4.111,-4.1643,-4.2794,-4.3878,-4.4038,-4.4676,-4.6136,-4.4926,-4.5319,-4.6128,-4.6531,-4.715,-4.9017,-4.9127,-4.9539,-4.9961,-4.9487,-4.8434,-4.6803,-4.5084,-4.4097,-4.3658,-4.3823,-4.463,-4.5521,-4.6129,-4.655,-4.7206,-4.7308,-4.6956,-4.6255,-4.5556,-4.4984,-4.4342,-4.3563,-4.2831,-4.2376,-4.1354,-4.1025,-4.098,-4.0845,-4.0719,-4.0761,-4.1117,-4.1518,-4.2493,-4.3101,-4.3098,-4.1978,-4.1297,-4.0733,-4.0123,-4.0015,-4.039,-4.0783,-4.1077,-4.2071,-4.27,-4.1988,-4.1674,-4.1905,-4.1657,-4.0779,-4.0431,-3.9802,-3.9388,-3.9305,-3.9305,-3.9408,-3.9524,-3.9677,-3.9781,-3.9987,-4.0146,-4.0186,-4.0002,-4.0037,-4.0071,-4.0104,-4.0104,-3.9952,-3.9495,-3.9292,-3.9191,-3.8768,-3.8294,-3.8038,-3.7755,-3.7079,-3.6423,-3.6766,-3.715,-3.7591,-3.7972,-3.8256,-3.8466,-3.1333,-3.1893,-3.194,-3.2019,-3.2063,-3.2771,-3.3368,-3.3808,-3.4132,-3.4922,-3.5982,-3.6685,-3.7392,-3.8494,-3.9392,-3.996,-3.9951,-4.1129,-4.1513,-4.2013,-4.2851,-4.3904,-4.492,-4.5643,-4.6226,-4.7096,-4.62,-4.629,-4.7296,-4.8027,-4.8743,-4.9796,-5.0955,-5.1997,-5.2503,-5.2191,-5.0136,-4.8169,-4.6065,-4.4901,-4.4574,-4.4698,-4.5435,-4.6328,-4.7134,-4.7951,-4.8627,-4.868,-4.8394,-4.768,-4.6868,-4.5892,-4.5008,-4.4447,-4.3777,-4.3092,-4.2319,-4.1851,-4.1535,-4.083,-4.0127,-4.0133,-4.0628,-4.1544,-4.2334,-4.2572,-4.2526,-4.2294,-4.1585,-4.1075,-4.101,-4.1287,-4.1091,-4.1288,-4.1591,-4.2237,-4.2585,-4.1939,-4.1723,-4.2071,-4.1707,-4.0912,-4.0564,-4.0166,-3.952,-3.9388,-3.9653,-3.9719,-4.0166,-4.0354,-4.0408,-4.055,-4.0658,-4.0567,-4.0136,-4.0137,-4.0358,-4.0324,-4.0223,-4.0155,-3.9935,-3.9834,-3.9665,-3.9546,-3.914,-3.8954,-3.8717,-3.8129,-3.7562,-3.7091,-3.7143,-3.7676,-3.8384,-3.8903,-3.9135,-3.1145,-3.2067,-3.2938,-3.3345,-3.3526,-3.4111,-3.4578,-3.5007,-3.5612,-3.602,-3.6443,-3.6767,-3.7166,-3.7865,-3.8753,-3.9329,-3.9472,-4.0798,-4.1581,-4.2405,-4.3138,-4.4423,-4.5539,-4.6638,-4.724,-4.7882,-4.7422,-4.7588,-4.8675,-4.9027,-4.9772,-5.0902,-5.2611,-5.4188,-5.4805,-5.4253,-5.2091,-4.9525,-4.7247,-4.5877,-4.5239,-4.5161,-4.5686,-4.6447,-4.7277,-4.8111,-4.8844,-4.948,-4.921,-4.8662,-4.7906,-4.6925,-4.5952,-4.5494,-4.4849,-4.409,-4.3284,-4.248,-4.1863,-4.1066,-4.0127,-3.9748,-4.0375,-4.1236,-4.1933,-4.2285,-4.251,-4.232,-4.202,-4.1569,-4.1395,-4.1442,-4.1486,-4.1848,-4.227,-4.2717,-4.2717,-4.2204,-4.2154,-4.2667,-4.2038,-4.1193,-4.0994,-4.0845,-4.01,-3.952,-3.9818,-4.0183,-4.068,-4.1011,-4.1067,-4.1139,-4.1305,-4.1314,-4.0886,-4.0809,-4.0695,-4.0527,-4.0409,-4.0324,-4.0257,-4.0054,-3.9918,-3.9918,-3.9918,-3.9614,-3.936,-3.9123,-3.8564,-3.7715,-3.7586,-3.7866,-3.8616,-3.9407,-3.9533,-3.1052,-3.2305,-3.3332,-3.4139,-3.4744,-3.5569,-3.6069,-3.6335,-3.6934,-3.7165,-3.7095,-3.7082,-3.7156,-3.7625,-3.8891,-3.9291,-3.9782,-4.1116,-4.2159,-4.3237,-4.4358,-4.5607,-4.6925,-4.8009,-4.8708,-4.8887,-4.8724,-4.8947,-4.922,-4.9595,-5.0376,-5.1669,-5.3549,-5.5235,-5.6105,-5.5731,-5.3799,-5.1124,-4.909,-4.7201,-4.6422,-4.6366,-4.6282,-4.7007,-4.757,-4.8417,-4.924,-4.9904,-5.0072,-4.9497,-4.8797,-4.796,-4.7061,-4.6308,-4.5857,-4.504,-4.4188,-4.308,-4.2252,-4.1085,-3.9991,-3.9571,-4.0091,-4.0851,-4.1459,-4.2061,-4.2237,-4.2925,-4.2545,-4.2146,-4.1886,-4.2097,-4.2252,-4.2591,-4.2609,-4.3015,-4.323,-4.3015,-4.3098,-4.328,-4.2452,-4.174,-4.1558,-4.1425,-4.0978,-4.0431,-4.0558,-4.0972,-4.1524,-4.1756,-4.174,-4.1813,-4.1926,-4.1849,-4.1794,-4.1594,-4.13,-4.0863,-4.0729,-4.0646,-4.0527,-4.0358,-4.0358,-4.0476,-4.0409,-4.0189,-4.002,-3.9834,-3.9069,-3.8103,-3.8287,-3.8649,-3.8528,-3.9188,-3.9532,-3.1274,-3.2804,-3.2969,-3.4096,-3.5713,-3.7233,-3.7638,-3.7453,-3.7881,-3.7964,-3.7731,-3.7839,-3.7638,-3.7955,-3.9375,-3.9764,-4.0027,-4.2048,-4.3497,-4.4041,-4.598,-4.7995,-4.9083,-4.9751,-5.0277,-5.0594,-5.0316,-4.9869,-4.9704,-5.0497,-5.1196,-5.2406,-5.4375,-5.6281,-5.6823,-5.6712,-5.5536,-5.3499,-5.1711,-4.963,-4.8012,-4.7865,-4.7676,-4.747,-4.8009,-4.8809,-4.9347,-5.0392,-5.052,-4.9953,-4.9832,-4.8882,-4.7407,-4.6977,-4.6325,-4.526,-4.4874,-4.3943,-4.2706,-4.0689,-4.0024,-3.9994,-4.0801,-4.1314,-4.1566,-4.1914,-4.2543,-4.3682,-4.2984,-4.2808,-4.2867,-4.3174,-4.3344,-4.3317,-4.3353,-4.3297,-4.3529,-4.3545,-4.3529,-4.3512,-4.3015,-4.2452,-4.2237,-4.2021,-4.1723,-4.1451,-4.1387,-4.1758,-4.2278,-4.2502,-4.2485,-4.2485,-4.256,-4.2558,-4.2472,-4.221,-4.1833,-4.1348,-4.1098,-4.11,-4.1,-4.0848,-4.0881,-4.1035,-4.0815,-4.0459,-4.0527,-4.056,-3.9866,-3.9307,-3.9381,-3.9494,-3.9193,-3.9061,-3.9532,-3.1321,-3.2264,-3.3055,-3.3947,-3.5074,-3.6326,-3.6815,-3.6947,-3.7433,-3.7809,-3.7921,-3.7822,-3.7632,-3.8062,-3.8934,-3.9615,-3.9685,-4.1769,-4.3298,-4.4534,-4.708,-4.8504,-4.9785,-5.1195,-5.1884,-5.1727,-5.1439,-5.1663,-5.2027,-5.2012,-5.2398,-5.3549,-5.5604,-5.815,-5.9047,-5.8831,-5.7312,-5.5604,-5.3559,-5.1296,-4.8765,-4.8515,-4.8256,-4.7452,-4.8172,-4.8692,-4.9038,-5.0149,-5.038,-4.9981,-4.985,-4.9302,-4.8144,-4.7816,-4.7306,-4.6562,-4.6147,-4.4713,-4.3522,-4.2288,-4.1868,-4.1798,-4.1937,-4.2674,-4.3504,-4.3668,-4.4284,-4.466,-4.4325,-4.442,-4.4867,-4.4913,-4.4892,-4.4362,-4.4175,-4.3876,-4.3843,-4.3694,-4.3611,-4.3595,-4.3264,-4.3247,-4.3115,-4.2816,-4.2502,-4.2369,-4.227,-4.2485,-4.3015,-4.3181,-4.3247,-4.3247,-4.3289,-4.3265,-4.3148,-4.2835,-4.2562,-4.2143,-4.1791,-4.1661,-4.1513,-4.1367,-4.1199,-4.1285,-4.0998,-4.0745,-4.0931,-4.1067,-4.0934,-4.0728,-4.0622,-4.0046,-3.9427,-3.9444,-3.9876,-3.1295,-3.1895,-3.2861,-3.3546,-3.4264,-3.5642,-3.6414,-3.6615,-3.7214,-3.7645,-3.7771,-3.7842,-3.7779,-3.8093,-3.9013,-3.9517,-3.9548,-4.2161,-4.3948,-4.5267,-4.7846,-4.9589,-5.098,-5.2204,-5.2762,-5.2649,-5.2744,-5.3069,-5.2905,-5.3084,-5.3375,-5.4463,-5.6755,-5.8574,-5.9592,-5.9181,-5.829,-5.6577,-5.4572,-5.2092,-5.0169,-4.9268,-4.8625,-4.8088,-4.8057,-4.8133,-4.8527,-4.9048,-4.9617,-4.9238,-4.9099,-4.905,-4.8444,-4.82,-4.7935,-4.7589,-4.6881,-4.5632,-4.4892,-4.4561,-4.4205,-4.3946,-4.3938,-4.4074,-4.4723,-4.4773,-4.5144,-4.5557,-4.5847,-4.5831,-4.5831,-4.5881,-4.5682,-4.5135,-4.497,-4.4671,-4.4506,-4.4373,-4.4075,-4.4009,-4.3992,-4.3992,-4.3943,-4.3645,-4.333,-4.3264,-4.3214,-4.3413,-4.3545,-4.3578,-4.3645,-4.3611,-4.3595,-4.3522,-4.3464,-4.3398,-4.3106,-4.2879,-4.2601,-4.2267,-4.2088,-4.1963,-4.1749,-4.1496,-4.1379,-4.1348,-4.1452,-4.1473,-4.1359,-4.1461,-4.1593,-4.0854,-3.9787,-3.9878,-4.0329,-3.1258,-3.18,-3.2317,-3.2845,-3.3621,-3.5379,-3.6521,-3.7095,-3.74,-3.7518,-3.7637,-3.8329,-3.8451,-3.849,-3.9959,-4.038,-4.0595,-4.3243,-4.4651,-4.6497,-4.8927,-5.051,-5.1846,-5.2808,-5.345,-5.3674,-5.3713,-5.3518,-5.3294,-5.3578,-5.3975,-5.4915,-5.6541,-5.8242,-5.8946,-5.8488,-5.7942,-5.6853,-5.5074,-5.271,-5.0881,-4.985,-4.9072,-4.8398,-4.7904,-4.76,-4.7644,-4.7893,-4.7669,-4.7498,-4.7598,-4.74,-4.7359,-4.7588,-4.7787,-4.7819,-4.724,-4.6815,-4.6487,-4.629,-4.629,-4.5864,-4.5257,-4.4982,-4.5196,-4.5798,-4.6154,-4.6265,-4.6361,-4.6179,-4.6063,-4.6096,-4.6096,-4.5897,-4.5847,-4.5649,-4.5483,-4.5235,-4.487,-4.4738,-4.4721,-4.4705,-4.4655,-4.4406,-4.4141,-4.3876,-4.3761,-4.3611,-4.3694,-4.3595,-4.3645,-4.3645,-4.3628,-4.3628,-4.3604,-4.3564,-4.349,-4.3181,-4.3122,-4.2879,-4.2735,-4.2568,-4.2423,-4.2205,-4.2026,-4.1858,-4.1619,-4.1659,-4.1783,-4.1895,-4.1911,-4.1587,-4.0538,-4.0492,-4.0727,-3.1878,-3.1886,-3.3001,-3.3465,-3.358,-3.4896,-3.6131,-3.7015,-3.7201,-3.7664,-3.8485,-3.8228,-3.8631,-3.9793,-3.9346,-3.9747,-4.1117,-4.2824,-4.4558,-4.6841,-4.9768,-5.1344,-5.2486,-5.3309,-5.3907,-5.4072,-5.4042,-5.4042,-5.4491,-5.4551,-5.4971,-5.6084,-5.6388,-5.7449,-5.7396,-5.651,-5.6884,-5.6617,-5.4898,-5.2942,-5.1139,-4.9846,-4.922,-4.8681,-4.7927,-4.7395,-4.694,-4.7272,-4.7073,-4.6765,-4.6945,-4.7061,-4.7723,-4.7359,-4.727,-4.7919,-4.7769,-4.7621,-4.7473,-4.7375,-4.7342,-4.7259,-4.6798,-4.688,-4.6963,-4.6946,-4.7189,-4.709,-4.704,-4.6974,-4.6957,-4.6957,-4.6808,-4.6643,-4.6576,-4.6427,-4.6228,-4.5864,-4.5533,-4.545,-4.545,-4.5367,-4.5301,-4.5218,-4.4937,-4.4589,-4.4307,-4.4141,-4.386,-4.3777,-4.3645,-4.3645,-4.3645,-4.3645,-4.3645,-4.3621,-4.3555,-4.3439,-4.3348,-4.334,-4.329,-4.3181,-4.3048,-4.2879,-4.2551,-4.2022,-4.1488,-4.1648,-4.1955,-4.1831,-4.1795,-4.1674,-4.1536,-4.1371,-4.1179,-3.2101,-3.2222,-3.3273,-3.3735,-3.3831,-3.4583,-3.5635,-3.6777,-3.7121,-3.7756,-3.8291,-3.8395,-3.8863,-3.9426,-3.9534,-4.0196,-4.1354,-4.3568,-4.5548,-4.8073,-5.0604,-5.2106,-5.3174,-5.3683,-5.4072,-5.4206,-5.4296,-5.4431,-5.497,-5.5089,-5.54,-5.5043,-5.5566,-5.6389,-5.6536,-5.5842,-5.5506,-5.5117,-5.3998,-5.2319,-5.093,-4.9783,-4.9505,-4.9155,-4.844,-4.7424,-4.6531,-4.6954,-4.6291,-4.5644,-4.554,-4.6033,-4.6686,-4.6571,-4.7186,-4.7787,-4.7968,-4.7852,-4.7787,-4.7787,-4.7754,-4.7787,-4.7787,-4.7655,-4.7704,-4.7638,-4.7737,-4.7802,-4.7885,-4.7934,-4.7968,-4.7951,-4.7653,-4.7388,-4.7272,-4.7156,-4.6825,-4.646,-4.6295,-4.6195,-4.6113,-4.6013,-4.5947,-4.5914,-4.5715,-4.5334,-4.5102,-4.5019,-4.4522,-4.4009,-4.3794,-4.3645,-4.3645,-4.3645,-4.3661,-4.3694,-4.3595,-4.3545,-4.3512,-4.3571,-4.3661,-4.387,-4.383,-4.3481,-4.3029,-4.2582,-4.2128,-4.2026,-4.2138,-4.2023,-4.2003,-4.2073,-4.2101,-4.2099,-4.1821,-3.2002,-3.2357,-3.296,-3.3616,-3.4255,-3.433,-3.5186,-3.6684,-3.7201,-3.7598,-3.7939,-3.8612,-3.8837,-3.9294,-3.9772,-4.0886,-4.2315,-4.4196,-4.6408,-4.9299,-5.1394,-5.2785,-5.3339,-5.4057,-5.3817,-5.3952,-5.4027,-5.3967,-5.47,-5.4715,-5.4246,-5.3301,-5.4336,-5.5271,-5.5752,-5.5006,-5.4502,-5.3648,-5.2075,-5.026,-5.0538,-5.0227,-4.9961,-5.0221,-4.9187,-4.7856,-4.6763,-4.588,-4.483,-4.4185,-4.4035,-4.4663,-4.551,-4.6356,-4.7286,-4.7721,-4.8001,-4.8001,-4.7935,-4.7935,-4.7869,-4.7869,-4.7853,-4.7853,-4.7853,-4.7919,-4.8001,-4.8001,-4.8001,-4.8001,-4.8001,-4.8001,-4.7819,-4.7719,-4.7669,-4.7603,-4.7454,-4.7173,-4.7023,-4.6924,-4.6808,-4.6742,-4.6825,-4.6775,-4.6477,-4.6063,-4.5864,-4.5814,-4.5351,-4.4605,-4.439,-4.4092,-4.3959,-4.3992,-4.3876,-4.386,-4.3678,-4.3628,-4.3661,-4.3645,-4.3645,-4.4092,-4.4655,-4.4261,-4.3848,-4.339,-4.304,-4.2858,-4.2644,-4.2494,-4.2518,-4.2612,-4.2614,-4.2526,-4.2458,-3.1901,-3.136,-3.1883,-3.28,-3.3791,-3.3875,-3.4878,-3.6709,-3.6803,-3.752,-3.8522,-3.8509,-3.8972,-3.9995,-3.9544,-4.0665,-4.3093,-4.4653,-4.686,-4.9374,-5.1738,-5.2665,-5.289,-5.3309,-5.3159,-5.28,-5.2785,-5.3204,-5.3834,-5.3781,-5.3706,-5.3368,-5.4062,-5.4684,-5.4816,-5.4141,-5.3315,-5.2622,-5.0681,-4.955,-4.9884,-4.9016,-4.8417,-4.8797,-4.8247,-4.759,-4.6703,-4.5943,-4.511,-4.4435,-4.4404,-4.511,-4.6237,-4.7118,-4.7704,-4.7935,-4.8001,-4.8001,-4.8001,-4.8001,-4.7935,-4.7935,-4.7935,-4.7935,-4.8017,-4.8001,-4.8001,-4.8001,-4.8001,-4.8001,-4.8001,-4.8001,-4.8001,-4.8001,-4.8001,-4.8001,-4.8001,-4.7868,-4.7703,-4.7603,-4.7471,-4.7504,-4.7587,-4.7454,-4.7189,-4.6924,-4.6709,-4.651,-4.6096,-4.5549,-4.5599,-4.5284,-4.4655,-4.4522,-4.4291,-4.4092,-4.3959,-4.381,-4.381,-4.3744,-4.3727,-4.4324,-4.5014,-4.4998,-4.476,-4.4261,-4.3803,-4.3604,-4.3413,-4.3081,-4.2828,-4.2788,-4.2671,-4.2575,-4.2703,-3.1569,-3.1383,-3.1659,-3.2213,-3.2816,-3.3209,-3.4064,-3.5342,-3.6062,-3.7011,-3.8121,-3.8379,-3.9038,-4.0182,-3.9676,-4.1001,-4.3647,-4.5155,-4.7623,-5.0107,-5.1588,-5.2456,-5.274,-5.2695,-5.2561,-5.2276,-5.2546,-5.2957,-5.3235,-5.3233,-5.3226,-5.3137,-5.3607,-5.3879,-5.3866,-5.3234,-5.2647,-5.184,-5.0016,-4.9387,-4.9423,-4.8515,-4.8395,-4.8748,-4.8495,-4.7696,-4.6825,-4.6124,-4.5244,-4.4603,-4.4312,-4.502,-4.6024,-4.6896,-4.7571,-4.7853,-4.8001,-4.8001,-4.8001,-4.8001,-4.8001,-4.8001,-4.8001,-4.8017,-4.8017,-4.8001,-4.8001,-4.8001,-4.8001,-4.8001,-4.8001,-4.8001,-4.8001,-4.8001,-4.8001,-4.8001,-4.8001,-4.7951,-4.7868,-4.7835,-4.7769,-4.7785,-4.7835,-4.7819,-4.7603,-4.757,-4.7404,-4.7371,-4.6924,-4.6676,-4.6692,-4.6609,-4.6063,-4.5119,-4.4572,-4.4406,-4.4291,-4.4141,-4.4175,-4.4406,-4.4688,-4.5014,-4.5296,-4.5213,-4.5097,-4.4898,-4.4522,-4.4208,-4.381,-4.3423,-4.312,-4.2898,-4.279,-4.272,-4.2791,-3.118,-3.1547,-3.1453,-3.151,-3.1792,-3.2406,-3.309,-3.3911,-3.5139,-3.6155,-3.7053,-3.8277,-3.8678,-3.934,-4.0124,-4.2312,-4.4147,-4.5505,-4.8147,-5.0346,-5.1753,-5.2187,-5.2366,-5.2426,-5.2202,-5.2267,-5.2653,-5.2958,-5.3316,-5.3329,-5.3239,-5.2849,-5.2834,-5.2965,-5.3053,-5.307,-5.2883,-5.1993,-5.0706,-4.9501,-4.9035,-4.846,-4.8717,-4.8985,-4.8923,-4.8025,-4.717,-4.6418,-4.5484,-4.4871,-4.4526,-4.5243,-4.604,-4.6913,-4.7404,-4.7853,-4.8001,-4.8001,-4.8001,-4.8001,-4.8001,-4.8001,-4.8001,-4.8001,-4.8001,-4.8133,-4.8133,-4.815,-4.815,-4.805,-4.805,-4.8034,-4.8034,-4.8001,-4.8001,-4.8001,-4.8001,-4.8001,-4.8001,-4.8001,-4.8001,-4.8001,-4.8001,-4.8001,-4.8001,-4.8001,-4.805,-4.8084,-4.805,-4.7968,-4.7934,-4.7951,-4.7719,-4.6659,-4.5549,-4.5152,-4.5218,-4.5202,-4.5334,-4.5467,-4.5599,-4.581,-4.5727,-4.5251,-4.5152,-4.5301,-4.4953,-4.4522,-4.4185,-4.3787,-4.3448,-4.3181,-4.3096,-4.306,-4.3026,-3.0411,-3.0423,-2.9661,-3.0001,-3.1169,-3.176,-3.2604,-3.366,-3.4354,-3.5694,-3.702,-3.7198,-3.7801,-3.9452,-3.9592,-4.1699,-4.4929,-4.6202,-4.7967,-5.0182,-5.1558,-5.1798,-5.1858,-5.2007,-5.1828,-5.1942,-5.2319,-5.2733,-5.3334,-5.3663,-5.3818,-5.3734,-5.3831,-5.3888,-5.3874,-5.36,-5.2957,-5.2091,-5.1279,-5.0151,-4.8723,-4.8232,-4.7722,-4.7812,-4.787,-4.7707,-4.7421,-4.7055,-4.6294,-4.5681,-4.5305,-4.5744,-4.634,-4.6997,-4.7571,-4.7853,-4.8001,-4.8001,-4.8001,-4.8001,-4.8001,-4.8001,-4.8001,-4.8001,-4.8183,-4.8597,-4.8614,-4.8696,-4.8597,-4.8266,-4.8199,-4.815,-4.8133,-4.805,-4.8001,-4.8001,-4.8001,-4.8001,-4.8001,-4.8001,-4.8001,-4.8001,-4.8001,-4.8001,-4.8001,-4.8034,-4.8133,-4.8216,-4.8498,-4.8763,-4.9044,-4.9011,-4.8978,-4.8614,-4.7669,-4.6742,-4.656,-4.6493,-4.6394,-4.6378,-4.6394,-4.6444,-4.6245,-4.5616,-4.5765,-4.6063,-4.5599,-4.4688,-4.4473,-4.4092,-4.3777,-4.3538,-4.3448,-4.329,-4.3172]},{"header":{"parameterUnit":"m.s-1","parameterCategory":1,"la1":31.0,"la2":29.5877,"lo1":-88.7671,"lo2":-86.6584,"dy":0.0162,"dx":0.0185,"nx":115,"ny":88,"refTime":"2023-04-07T12:00:00:Z","depth":0,"parameterNumber":3,"parameterNumberName":"V-component_of_WINDS"},"data":[0.0,0.0,0.0,0.0,0.0,0.0,0.0,0.0,0.0,0.0,0.0,0.0,0.0,0.0,0.0,0.0,0.0,0.0,0.0,0.0,0.0,0.0,0.0,0.0,0.0,0.0,0.0,0.0,0.0,0.0,0.0,0.0,0.0,0.0,0.0,0.0,0.0,0.0,0.0,0.0,0.0,0.0,0.0,0.0,0.0,0.0,0.0,0.0,0.0,0.0,0.0,0.0,0.0,0.0,0.0,0.0,0.0,0.0,0.0,0.0,0.0,0.0,0.0,0.0,0.0,0.0,0.0,0.0,0.0,0.0,0.0,0.0,0.0,0.0,0.0,0.0,0.0,0.0,0.0,0.0,0.0,0.0,0.0,0.0,0.0,0.0,0.0,0.0,0.0,0.0,0.0,0.0,0.0,0.0,0.0,0.0,0.0,0.0,0.0,0.0,0.0,0.0,0.0,0.0,0.0,0.0,0.0,0.0,0.0,0.0,0.0,0.0,0.0,0.0,0.0,0.0,0.0,0.0,0.0,0.0,0.0,0.0,0.0,0.0,0.0,0.0,0.0,0.0,0.0,0.0,0.0,0.0,0.0,0.0,0.0,0.0,0.0,0.0,0.0,0.0,0.0,0.0,0.0,0.0,0.0,0.0,0.0,0.0,0.0,0.0,0.0,0.0,0.0,0.0,0.0,0.0,0.0,0.0,0.0,0.0,0.0,0.0,0.0,0.0,0.0,0.0,0.0,0.0,0.0,0.0,0.0,0.0,0.0,0.0,0.0,0.0,0.0,0.0,0.0,0.0,0.0,0.0,0.0,0.0,0.0,0.0,0.0,0.0,0.0,0.0,0.0,0.0,0.0,0.0,0.0,0.0,0.0,0.0,0.0,0.0,0.0,0.0,0.0,0.0,0.0,0.0,0.0,0.0,0.0,0.0,0.0,0.0,0.0,0.0,0.0,0.0,0.0,0.0,0.0,0.0,0.0,0.0,0.0,0.0,0.0,0.0,0.0,0.0,0.0,0.0,0.0,0.0,0.0,0.0,0.0,0.0,0.0,0.0,0.0,0.0,0.0,0.0,0.0,0.0,0.0,0.0,0.0,0.0,0.0,0.0,0.0,0.0,0.0,0.0,0.0,0.0,0.0,0.0,0.0,0.0,0.0,0.0,0.0,0.0,0.0,0.0,0.0,0.0,0.0,0.0,0.0,0.0,0.0,0.0,0.0,0.0,0.0,0.0,0.0,0.0,0.0,0.0,0.0,0.0,0.0,0.0,0.0,0.0,0.0,0.0,0.0,0.0,0.0,0.0,0.0,0.0,0.0,0.0,0.0,0.0,0.0,0.0,0.0,0.0,0.0,0.0,0.0,0.0,0.0,0.0,0.0,0.0,0.0,0.0,0.0,0.0,0.0,0.0,0.0,0.0,0.0,0.0,0.0,0.0,0.0,0.0,0.0,0.0,0.0,0.0,0.0,0.0,0.0,0.0,0.0,0.0,0.0,0.0,0.0,0.0,0.0,0.0,0.0,0.0,0.0,0.0,0.0,0.0,0.0,0.0,0.0,0.0,0.0,0.0,0.0,0.0,0.0,0.0,0.0,0.0,0.0,0.0,0.0,0.0,0.0,0.0,0.0,0.0,0.0,0.0,0.0,0.0,0.0,0.0,0.0,0.0,0.0,0.0,0.0,0.0,0.0,0.0,0.0,0.0,0.0,0.0,0.0,0.0,0.0,0.0,0.0,0.0,0.0,0.0,0.0,0.0,0.0,0.0,0.0,0.0,0.0,0.0,0.0,0.0,0.0,0.0,0.0,0.0,0.0,0.0,0.0,0.0,0.0,0.0,0.0,0.0,0.0,0.0,0.0,0.0,0.0,0.0,0.0,0.0,0.0,0.0,0.0,0.0,0.0,0.0,0.0,0.0,0.0,0.0,0.0,0.0,0.0,0.0,0.0,0.0,0.0,0.0,0.0,0.0,0.0,0.0,0.0,0.0,0.0,0.0,0.0,0.0,0.0,0.0,0.0,0.0,0.0,0.0,0.0,0.0,0.0,0.0,0.0,0.0,0.0,0.0,0.0,0.0,0.0,0.0,0.0,0.0,0.0,0.0,0.0,0.0,0.0,0.0,0.0,0.0,0.0,0.0,0.0,0.0,0.0,0.0,0.0,0.0,0.0,0.0,0.0,0.0,0.0,0.0,0.0,0.0,0.0,0.0,0.0,0.0,0.0,0.0,0.0,0.0,0.0,0.0,0.0,0.0,0.0,0.0,0.0,0.0,0.0,0.0,0.0,0.0,0.0,0.0,0.0,0.0,0.0,0.0,0.0,0.0,0.0,0.0,0.0,0.0,0.0,0.0,0.0,0.0,0.0,0.0,0.0,0.0,0.0,0.0,0.0,0.0,0.0,0.0,0.0,0.0,0.0,0.0,0.0,0.0,0.0,0.0,0.0,0.0,0.0,0.0,0.0,0.0,0.0,0.0,0.0,0.0,0.0,0.0,0.0,0.0,0.0,0.0,0.0,0.0,0.0,0.0,0.0,0.0,0.0,0.0,0.0,0.0,0.0,0.0,0.0,0.0,0.0,0.0,0.0,0.0,0.0,0.0,0.0,0.0,0.0,0.0,0.0,0.0,0.0,0.0,0.0,0.0,0.0,0.0,0.0,0.0,0.0,0.0,0.0,0.0,0.0,0.0,0.0,0.0,0.0,0.0,0.0,0.0,0.0,0.0,0.0,0.0,0.0,0.0,0.0,0.0,0.0,0.0,0.0,0.0,0.0,0.0,0.0,0.0,0.0,0.0,0.0,0.0,0.0,0.0,0.0,0.0,0.0,0.0,0.0,0.0,0.0,0.0,0.0,0.0,0.0,0.0,0.0,0.0,0.0,0.0,0.0,0.0,0.0,0.0,0.0,0.0,0.0,0.0,0.0,0.0,0.0,0.0,0.0,0.0,0.0,0.0,0.0,0.0,0.0,0.0,0.0,0.0,0.0,0.0,0.0,0.0,0.0,0.0,0.0,0.0,0.0,0.0,0.0,0.0,0.0,0.0,0.0,0.0,0.0,0.0,0.0,0.0,0.0,0.0,0.0,0.0,0.0,0.0,0.0,0.0,0.0,0.0,0.0,0.0,0.0,0.0,0.0,0.0,0.0,0.0,0.0,0.0,0.0,0.0,0.0,0.0,0.0,0.0,0.0,0.0,0.0,0.0,0.0,0.0,0.0,0.0,0.0,0.0,0.0,0.0,0.0,0.0,0.0,0.0,0.0,0.0,0.0,0.0,0.0,0.0,0.0,0.0,0.0,0.0,0.0,0.0,0.0,0.0,0.0,0.0,0.0,0.0,0.0,0.0,0.0,0.0,0.0,0.0,0.0,0.0,0.0,0.0,0.0,0.0,0.0,0.0,0.0,0.0,0.0,0.0,0.0,0.0,0.0,0.0,0.0,0.0,0.0,0.0,0.0,0.0,0.0,0.0,0.0,0.0,0.0,0.0,0.0,0.0,0.0,0.0,0.0,0.0,0.0,0.0,0.0,0.0,0.0,0.0,0.0,0.0,0.0,0.0,0.0,0.0,0.0,0.0,0.0,0.0,0.0,0.0,0.0,0.0,0.0,0.0,0.0,0.0,0.0,0.0,0.0,0.0,0.0,0.0,0.0,0.0,0.0,0.0,0.0,0.0,0.0,0.0,0.0,0.0,0.0,0.0,0.0,0.0,0.0,0.0,0.0,0.0,0.0,0.0,0.0,0.0,0.0,0.0,0.0,0.0,0.0,0.0,0.0,0.0,0.0,0.0,0.0,0.0,0.0,0.0,0.0,0.0,0.0,0.0,0.0,0.0,0.0,0.0,0.0,0.0,0.0,0.0,0.0,0.0,0.0,0.0,0.0,0.0,0.0,0.0,0.0,0.0,0.0,0.0,0.0,0.0,0.0,0.0,0.0,0.0,0.0,0.0,0.0,0.0,0.0,0.0,0.0,0.0,0.0,0.0,0.0,0.0,0.0,0.0,0.0,0.0,0.0,0.0,0.0,0.0,0.0,0.0,0.0,0.0,0.0,0.0,0.0,0.0,0.0,0.0,0.0,0.0,0.0,0.0,0.0,0.0,0.0,0.0,0.0,0.0,0.0,0.0,0.0,0.0,0.0,0.0,0.0,0.0,0.0,0.0,0.0,0.0,0.0,0.0,0.0,0.0,0.0,0.0,0.0,0.0,0.0,0.0,0.0,0.0,0.0,0.0,0.0,0.0,0.0,0.0,0.0,0.0,0.0,0.0,0.0,0.0,0.0,0.0,0.8919,0.0,0.0,0.0,0.0,0.0,0.0,0.0,0.0,0.0,0.0,0.0,0.0,0.0,0.0,0.0,0.0,0.0,0.0,0.0,0.0,0.0,0.0,0.0,0.0,0.0,0.0,0.0,0.0,0.0,0.0,0.0,0.0,0.0,0.0,0.0,0.0,0.0,0.0,0.0,0.0,0.0,0.0,0.0,0.0,0.0,0.0,0.0,0.0,0.0,0.0,0.0,0.0,0.0,0.0,0.0,0.0,0.0,0.0,0.0,0.0,0.0,0.0,0.0,0.0,0.0,0.0,0.0,0.0,0.0,0.0,0.0,0.0,0.0,0.0,0.0,0.0,0.0,0.0,0.0,0.0,0.0,0.0,0.0,0.0,0.0,0.0,0.0,0.0,0.0,0.0,0.0,0.0,0.0,0.0,0.0,0.0,0.0,0.0,0.0,0.0,0.0,0.0,0.0,0.0,0.0,0.0,0.0,0.0,0.0,0.0,0.9595,0.903,0.9789,0.9618,0.8415,0.0,0.0,0.0,0.0,0.0,0.0,0.0,0.0,0.0,0.0,0.0,0.0,0.0,0.0,0.0,0.0,0.0,0.0,0.0,0.0,0.0,0.0,0.0,0.0,0.0,0.0,0.0,0.0,0.0,0.0,0.0,0.0,0.0,0.0,0.0,0.0,0.0,0.0,0.0,0.0,0.0,0.0,0.0,0.0,0.0,0.0,0.0,0.0,0.0,0.0,0.0,0.0,0.0,0.0,0.0,0.0,0.0,0.0,0.0,0.0,0.0,0.0,0.0,0.0,0.0,0.0,0.0,0.0,0.0,0.0,0.0,0.0,0.0,0.0,0.0,0.0,0.0,0.0,0.0,0.0,0.0,0.0,0.0,0.0,0.0,0.0,0.0,0.0,0.0,0.0,0.0,0.0,0.0,0.0,0.0,0.0,0.0,0.0,0.0,0.0,0.0,0.0,0.0,0.0,0.0,0.0,0.0,0.0,0.0,0.0,0.0,0.0,0.8484,0.7083,0.563,0.0,0.0,0.0,0.0,0.0,0.0,0.0,0.0,0.0,0.0,0.0,0.0,0.0,0.0,0.0,0.0,0.0,0.0,0.0,0.0,0.0,0.0,0.0,0.0,0.0,0.0,0.0,0.0,0.0,0.0,0.0,0.0,0.0,0.0,0.0,0.0,0.0,0.0,0.0,0.0,0.0,0.0,0.0,0.0,0.0,0.0,0.0,0.0,0.0,0.0,0.0,0.0,0.0,0.0,0.0,0.0,0.0,0.0,0.0,0.0,0.0,0.0,0.0,0.0,0.0,0.0,0.0,0.0,0.0,0.0,0.0,0.0,0.0,0.0,0.0,0.0,0.0,0.0,0.0,0.0,0.0,0.0,0.0,0.0,0.0,0.0,0.0,0.0,0.0,0.0,0.0,0.0,0.0,0.0,0.0,0.0,0.0,0.0,0.0,0.0,0.0,0.0,0.0,0.0,0.0,0.0,0.0,0.0,0.0,0.0,0.9557,1.2473,0.3532,0.0,-0.1324,0.0,0.0,0.0,0.0,0.0,0.0,0.0,0.0,0.0,0.0,0.0,0.0,0.0,0.0,0.0,0.0,0.0,0.0,0.0,0.0,0.0,0.0,0.0,0.0,0.0,0.0,0.0,0.0,0.0,0.0,0.0,0.0,0.0,0.0,0.0,0.0,0.0,0.0,0.0,0.0,0.0,0.0,0.0,0.0,0.0,0.0,0.0,0.0,0.0,0.0,0.0,0.0,0.0,0.0,0.0,0.0,0.0,0.0,0.0,0.0,0.0,0.0,0.0,0.0,0.0,0.0,0.0,0.0,0.0,0.0,0.0,0.0,0.0,0.0,0.0,0.0,0.0,0.0,0.0,0.0,0.0,0.0,0.0,0.0,0.0,0.0,0.0,0.0,0.0,0.0,0.0,0.0,0.0,0.0,0.0,0.0,0.0,0.0,0.0,0.0,0.0,0.0,0.0,0.0,0.0,0.0,0.0,0.0,0.0,0.0,0.8925,1.2373,0.831,0.5131,0.0,0.0,0.0,0.0,0.0,0.0,0.0,0.0,0.0,0.0,0.0,0.0,0.0,0.0,0.0,0.0,0.0,0.0,0.0,0.0,0.0,0.0,0.0,0.0,0.0,0.0,0.0,0.0,0.0,0.0,0.0,0.0,0.0,0.0,0.0,0.0,0.0,0.0,0.0,0.0,0.0,0.0,0.0,0.0,0.0,0.0,0.0,0.0,0.0,0.0,0.0,0.0,0.0,0.0,0.0,0.0,0.0,0.0,0.0,0.0,0.0,0.0,0.0,0.0,0.0,0.0,0.0,0.0,0.0,0.0,0.0,0.0,0.0,0.0,0.0,0.0,0.0,0.0,0.0,0.0,0.0,0.0,0.0,0.0,0.0,0.0,0.0,0.0,0.0,0.0,0.0,0.0,0.0,0.0,0.0,0.0,0.0,0.0,0.0,0.0,0.0,0.0,0.0,0.0,0.0,0.0,0.0,0.0,0.0,0.0,0.9202,0.8831,0.9802,1.068,0.9153,0.4983,0.0,0.0,0.0,0.0,0.0,0.0,0.0,0.0,0.0,0.0,0.0,0.0,0.0,0.0,0.0,0.0,0.0,0.0,0.0,0.0,0.0,0.0,0.0,0.0,0.0,0.0,0.0,0.0,0.0,0.0,0.0,0.0,0.0,0.0,0.0,0.0,0.0,0.0,0.0,0.0,0.0,0.0,0.0,0.0,0.0,0.0,0.0,0.0,0.0,0.0,0.0,0.0,0.0,0.0,0.0,0.0,0.0,0.0,0.0,0.0,0.0,0.0,0.0,0.0,0.0,0.0,0.0,0.0,0.0,0.0,0.0,0.0,0.0,0.0,0.0,0.0,0.0,0.0,0.0,0.0,0.0,0.0,0.0,0.0,0.0,0.0,0.0,0.0,0.0,0.0,0.0,0.0,0.0,0.0,0.0,0.0,0.0,0.0,0.0,0.0,0.0,0.0,0.0,0.0,0.0,0.0,0.0,0.0,1.7528,1.4124,0.9688,0.4907,0.7099,0.5595,0.0,0.0,0.0,0.0,0.0,0.0,0.0,0.0,0.0,0.0,0.0,0.0,0.0,0.0,0.0,0.0,0.0,0.0,0.0,0.0,0.0,0.0,0.0,0.0,0.0,0.0,0.0,0.0,0.0,0.0,0.0,0.0,0.0,0.0,0.0,0.0,0.0,0.0,0.0,0.0,0.0,0.0,0.0,0.0,0.0,0.0,0.0,0.0,0.0,0.0,0.0,0.0,0.0,0.0,0.0,0.0,0.0,0.0,0.0,0.0,0.0,0.0,0.0,0.0,0.0,0.0,0.0,0.0,0.0,0.0,0.0,0.0,0.0,0.0,0.0,0.0,0.0,0.0,0.0,0.0,0.0,0.0,0.0,0.0,0.0,0.0,0.0,0.0,0.0,0.0,0.0,0.0,0.0,0.0,0.0,0.0,0.0,0.0,0.0,0.0,0.0,0.0,0.0,0.0,0.0,0.0,0.0,0.0,0.0,1.0276,1.1822,1.0875,0.7331,0.9776,0.9324,0.0,0.0,0.0,0.0,0.0,0.0,0.0,0.0,0.0,0.0,0.0,0.0,0.0,0.0,0.0,0.0,0.0,0.0,0.0,0.0,0.0,0.0,0.0,0.0,0.0,0.0,0.0,0.0,0.0,0.0,0.0,0.0,0.0,0.0,0.0,0.0,0.0,0.0,0.0,0.0,0.0,0.0,0.0,0.0,0.0,0.0,0.0,0.0,0.0,0.0,0.0,0.0,0.0,0.0,0.0,0.0,0.0,0.0,0.0,0.0,0.0,0.0,0.0,0.0,0.0,0.0,0.0,0.0,0.0,0.0,0.0,0.0,0.0,0.0,0.0,0.0,0.0,0.0,0.0,0.0,0.0,0.0,0.0,0.0,0.0,0.0,0.0,0.0,0.0,0.0,0.0,0.0,0.0,0.0,0.0,0.0,0.0,0.0,0.0,0.0,0.0,0.0,0.0,0.0,0.0,0.0,0.0,0.0,0.0,0.8285,0.0,1.3314,1.1439,1.1546,1.0821,0.0,0.0,0.0,0.0,0.0,0.0,0.0,0.0,0.0,0.0,0.0,0.0,0.0,0.0,0.0,0.0,0.0,0.0,0.0,0.0,0.0,0.0,0.0,0.0,0.0,0.0,0.0,0.0,0.0,0.0,0.0,0.0,0.0,0.0,0.0,0.0,0.0,0.0,0.0,0.0,0.0,0.0,0.0,0.0,0.0,0.0,0.0,0.0,0.0,0.0,0.0,0.0,0.0,0.0,0.0,0.0,0.0,0.0,0.0,0.0,0.0,0.0,0.0,0.0,0.0,0.0,0.0,0.0,0.0,0.0,0.0,0.0,0.0,0.0,0.0,0.0,0.0,0.0,0.0,0.0,0.0,0.0,0.0,0.0,0.0,0.0,0.0,0.0,0.0,0.0,0.0,0.0,0.0,0.0,0.0,0.0,0.0,0.0,0.0,0.0,0.0,0.0,0.0,0.0,0.0,0.0,0.0,0.0,0.8256,1.3152,1.5783,1.683,1.6652,1.195,0.9359,0.0,0.0,0.0,0.0,0.0,0.0,0.0,0.0,0.0,0.0,0.0,0.0,0.0,0.0,0.0,0.0,0.0,0.0,0.0,0.0,0.0,0.0,0.0,0.0,0.0,0.0,0.0,0.0,0.0,0.0,0.0,0.0,0.0,0.0,0.0,0.0,0.0,0.0,0.0,0.0,0.0,0.0,0.0,0.0,0.0,0.0,0.0,0.0,0.0,0.0,0.0,0.0,0.0,0.0,0.0,0.0,0.0,0.0,0.0,0.0,0.0,0.0,0.0,0.0,0.0,0.0,0.0,0.0,0.0,0.0,0.0,0.0,0.0,0.0,0.0,0.0,0.0,0.0,0.0,0.0,0.0,0.0,0.0,0.0,0.0,0.0,0.0,0.0,0.0,0.0,0.0,0.0,0.0,0.0,0.0,0.0,0.0,0.0,0.0,0.0,0.0,0.0,0.0,0.0,0.0,0.0,0.0,0.0,0.0,1.0334,1.4011,1.6371,1.7034,1.3081,1.1274,0.0,0.0,0.0,0.0,0.0,0.0,0.0,0.0,0.0,0.0,0.0,0.0,0.0,0.0,0.0,0.0,0.0,0.0,0.0,0.0,0.0,0.0,0.0,0.0,0.0,0.0,0.0,0.0,0.0,0.0,0.0,0.0,0.0,0.0,0.0,0.0,0.0,0.0,0.0,0.0,0.0,0.0,0.0,0.0,0.0,0.0,0.0,0.0,0.0,0.0,0.0,0.0,0.0,0.0,0.0,0.0,0.0,0.0,0.0,0.0,0.0,0.0,0.0,0.0,0.0,0.0,0.0,0.0,0.0,0.0,0.0,0.0,0.0,0.0,0.0,0.0,0.0,0.0,0.0,0.0,0.0,0.0,0.0,0.0,0.0,0.0,0.0,0.0,0.0,0.0,0.0,0.0,0.0,0.0,0.0,0.0,0.0,0.0,0.0,0.0,0.0,0.0,0.0,0.0,0.0,0.0,0.0,0.0,0.0,1.4111,1.6827,1.8697,1.9446,1.5334,1.3173,1.3252,0.0,0.0,0.0,0.0,0.0,0.0,0.0,0.0,0.0,0.0,0.0,0.0,0.0,0.0,0.0,0.0,0.0,0.0,0.0,0.0,0.0,0.0,0.0,0.0,0.0,0.0,0.0,0.0,0.0,0.0,0.0,0.0,0.0,0.0,0.0,0.0,0.0,0.0,0.0,0.0,0.0,0.0,0.0,0.0,0.0,0.0,0.0,0.0,0.0,0.0,0.0,0.0,0.0,0.0,0.0,0.0,0.0,0.0,0.0,0.0,0.0,0.0,0.0,0.0,0.0,0.0,0.0,0.0,0.0,0.0,0.0,0.0,0.0,0.0,0.0,0.0,0.0,0.0,0.0,0.0,0.0,0.0,0.0,0.0,0.0,0.0,0.0,0.0,0.0,0.0,0.0,0.0,0.0,0.0,0.0,0.0,0.0,0.0,0.0,0.0,0.0,0.0,0.0,0.0,0.0,0.0,0.0,0.0,2.2784,2.3511,2.3733,2.3306,1.8373,1.496,0.0,0.0,0.0,0.0,0.0,0.0,0.0,0.0,0.0,0.0,0.0,0.0,0.0,0.0,0.0,0.0,0.0,0.0,0.0,0.0,0.0,0.0,0.0,0.0,0.0,0.0,0.0,0.0,0.0,0.0,0.0,0.0,0.0,0.0,0.0,0.0,0.0,0.0,0.0,0.0,0.0,0.0,0.0,0.0,0.0,0.0,0.0,0.0,0.0,0.0,0.0,0.0,0.0,0.0,0.0,0.0,0.0,0.0,0.0,0.0,0.0,0.0,0.0,0.0,0.0,0.0,0.0,0.0,0.0,0.0,0.0,0.0,0.0,0.0,0.0,0.0,0.0,0.0,0.0,0.0,0.0,0.0,0.0,0.0,0.0,0.0,0.0,0.0,0.0,0.0,0.0,0.0,0.0,0.0,0.0,0.0,0.0,0.0,0.0,0.0,0.0,0.0,0.0,0.0,0.0,0.0,0.0,0.0,0.0,2.5516,2.9041,3.0238,2.8691,2.1193,1.6728,0.0,0.0,0.0,0.0,0.0,0.0,0.0,0.0,0.0,0.0,0.0,0.0,0.0,0.0,0.0,0.0,0.0,0.0,0.0,0.0,0.0,0.0,0.0,0.0,0.0,0.0,0.0,0.0,0.0,0.0,0.0,0.0,0.0,0.0,0.0,0.0,0.0,0.0,0.0,0.0,0.0,0.0,0.0,0.0,0.0,0.0,0.0,0.0,0.0,0.0,0.0,0.0,0.0,0.0,0.0,0.0,0.0,0.0,0.0,0.0,0.0,0.0,0.0,0.0,0.0,0.0,0.0,0.0,0.0,0.0,0.0,0.0,0.0,0.0,0.0,0.0,0.0,0.0,0.0,0.0,0.0,0.0,0.0,0.0,0.0,0.0,0.0,0.0,0.0,0.0,0.0,0.0,0.0,0.0,0.0,0.0,0.0,0.0,0.0,0.0,0.0,0.0,0.0,0.0,0.0,0.0,0.0,0.0,2.418,2.7865,3.2947,3.485,3.32,2.4506,1.8639,0.0,0.0,0.0,0.0,0.0,0.0,0.0,0.0,0.0,0.0,0.0,0.0,0.0,0.0,0.0,0.0,0.0,0.0,0.0,0.0,0.0,0.0,0.0,0.0,0.0,0.0,0.0,0.0,0.0,0.0,0.0,0.0,0.0,0.0,0.0,0.0,0.0,0.0,0.0,0.0,0.0,0.0,0.0,0.0,0.0,0.0,0.0,0.0,0.0,0.0,0.0,0.0,0.0,0.0,0.0,0.0,0.0,0.0,0.0,0.0,0.0,0.0,0.0,0.0,0.0,0.0,0.0,0.0,0.0,0.0,0.0,0.0,0.0,0.0,0.0,0.0,0.0,0.0,0.0,0.0,0.0,0.0,0.0,0.0,0.0,0.0,0.0,0.0,0.0,0.0,0.0,0.0,0.0,0.0,0.0,0.0,0.0,0.0,0.0,0.0,0.0,0.0,0.0,0.0,0.0,0.0,0.0,0.0,2.5803,2.9778,3.5249,3.7422,3.5799,2.7506,2.0492,0.0,0.0,0.0,0.0,0.0,0.0,0.0,0.0,0.0,0.0,0.0,0.0,0.0,0.0,0.0,0.0,0.0,0.0,0.0,0.0,0.0,0.0,0.0,0.0,0.0,0.0,0.0,0.0,0.0,0.0,0.0,0.0,0.0,0.0,0.0,0.0,0.0,0.0,0.0,0.0,0.0,0.0,0.0,0.0,0.0,0.0,0.0,0.0,0.0,0.0,0.0,0.0,0.0,0.0,0.0,0.0,0.0,0.0,0.0,0.0,0.0,0.0,0.0,0.0,0.0,0.0,0.0,0.0,0.0,0.0,0.0,0.0,0.0,0.0,0.0,0.0,0.0,0.0,0.0,0.0,0.0,0.0,0.0,0.0,0.0,0.0,0.0,0.0,0.0,0.0,0.0,0.0,0.0,0.0,0.0,0.0,0.0,0.0,0.0,0.0,0.0,0.0,0.0,0.0,0.0,0.0,0.0,0.0,2.6914,3.059,3.433,3.5504,3.3897,2.6999,2.138,0.0,0.0,0.0,0.0,0.0,0.0,0.0,0.0,0.0,0.0,0.0,0.0,0.0,0.0,0.0,0.0,0.0,0.0,0.0,0.0,0.0,0.0,0.0,0.0,0.0,0.0,0.0,0.0,0.0,0.0,0.0,0.0,0.0,0.0,0.0,0.0,0.0,0.0,0.0,0.0,0.0,0.0,0.0,0.0,0.0,0.0,0.0,0.0,-0.1525,0.0,0.0,0.0,0.0,0.0,0.0,0.0,0.0,0.0,0.0,0.0,0.0,0.0,0.0,0.0,0.0,0.0,0.0,0.0,0.0,0.0,0.0,0.0,0.0,0.0,0.0,0.0,0.0,0.0,0.0,0.0,0.0,0.0,0.0,0.0,0.0,0.0,0.0,0.0,0.0,0.0,0.0,0.0,0.0,0.0,0.0,0.0,0.0,0.0,0.0,0.0,0.0,0.0,0.0,0.0,0.0,0.0,0.0,0.0,2.6519,2.9334,3.2787,3.3476,3.1064,2.6343,2.1753,0.0,0.0,0.0,0.0,0.0,0.0,0.0,0.0,0.0,0.0,0.0,0.0,0.0,0.0,0.0,0.0,0.0,0.0,0.0,0.0,0.0,0.0,0.0,0.0,0.0,0.0,0.0,0.0,0.0,0.0,0.0,0.0,0.0,0.0,0.0,0.0,0.0,0.0,0.0,0.0,0.0,0.0,0.0,0.0,0.0,0.0,0.0,0.0,0.0,0.0,0.0,0.0,0.0,0.0,0.0,0.0,0.0,0.0,0.0,0.0,0.0,0.0,0.0,0.0,0.0,0.0,0.0,0.0,0.0,0.0,0.0,0.0,0.0,0.0,0.0,0.0,0.0,0.0,0.0,0.0,0.0,0.0,0.0,0.0,0.0,0.0,0.0,0.0,0.0,0.0,0.0,0.0,0.0,0.0,0.0,0.0,0.0,0.0,0.0,0.0,0.0,0.0,0.0,0.0,0.0,0.0,0.0,2.1168,2.527,2.8127,3.1095,3.1341,2.8606,2.54,2.1317,1.6427,0.0,0.0,0.0,0.0,0.0,0.0,0.0,0.0,0.0,0.0,0.0,0.0,0.0,0.0,0.0,0.0,0.0,0.0,0.0,0.0,0.0,0.0,0.0,0.0,0.0,0.0,0.0,0.0,0.0,0.0,0.0,0.0,0.0,0.0,0.0,0.0,0.0,0.0,0.2346,0.1438,0.0,0.0,0.0,0.0,0.0,0.0,0.0,0.0,-0.0484,0.0,0.0,0.0,0.0,0.0,0.0,0.0,0.0,0.0,0.0,0.0,0.0,0.0,0.0,0.0,0.0,0.0,0.0,0.0,0.0,0.0,0.0,0.0,0.0,0.0,0.0,0.0,0.0,0.0,0.0,0.0,0.0,0.0,0.0,0.0,0.0,0.0,0.0,0.0,0.0,0.0,0.0,0.0,0.0,0.0,0.0,0.0,0.0,0.0,0.0,0.0,0.0,0.0,0.0,0.0,0.0,1.8592,1.9328,2.3189,3.0367,2.9681,2.8817,2.7947,2.338,1.9011,1.528,0.0,0.0,0.0,0.0,0.0,0.0,0.0,0.0,0.0,0.0,0.0,0.0,0.0,0.0,0.0,0.0,0.0,0.0,0.0,0.0,0.0,0.0,0.0,0.0,0.0,0.0,0.0,0.0,0.0,0.0,0.0,0.0,0.0,0.0,0.0,0.0,0.0,0.0,0.0,0.1541,0.0917,0.0,0.0,0.0,0.0,0.0,0.0,0.0,0.0,-0.0046,0.0,0.0,0.0,0.0,0.0,0.0,0.0,0.0,0.0,0.0,0.0,0.0,0.0,0.0,0.0,0.0,0.0,0.0,0.0,0.0,0.0,0.0,0.0,0.0,0.0,0.0,0.0,0.0,0.0,0.0,0.0,0.0,0.0,0.0,0.0,0.0,0.0,0.0,0.0,0.0,0.0,0.0,0.0,0.0,0.0,0.0,0.0,0.0,0.0,0.0,0.0,0.0,0.0,0.0,0.0,1.8599,2.0995,2.4365,2.8821,2.816,2.7234,2.6193,2.1982,1.8286,0.0,0.0,0.0,0.0,0.0,0.0,0.0,0.0,0.0,0.0,0.0,0.0,0.0,0.0,0.0,0.0,0.0,0.0,0.0,0.0,0.0,0.0,0.0,0.0,0.0,0.0,0.0,0.0,0.0,0.0,0.0,0.0,0.0,0.0,0.0,0.0,0.0,0.0,0.0,0.0,0.2337,0.2132,0.1561,0.0,0.0,0.0,0.0,0.0,0.0,0.0297,0.0267,0.0,0.0,0.0,0.0,0.0,0.0,0.0,0.0,0.0,0.0,0.0,0.0,0.0,0.0,0.0,0.0,0.0,0.0,0.0,0.0,0.0,0.0,0.0,0.0,0.0,0.0,0.0,0.0,0.0,0.0,0.0,0.0,0.0,0.0,0.0,0.0,0.0,0.0,0.0,0.0,0.0,0.0,0.0,0.0,0.0,0.0,0.0,0.0,0.0,0.0,0.0,0.0,0.0,0.0,0.0,1.7919,2.1987,2.4932,2.6556,2.6455,2.5726,2.4291,2.027,1.7181,0.0,0.0,0.0,0.0,0.0,0.0,0.0,0.0,0.0,0.0,0.0,0.0,0.0,0.0,0.0,0.0,0.0,0.0,0.0,0.0,0.0,0.0,0.0,0.0,0.0,0.0,0.0,0.0,0.0,0.0,0.0,0.0,0.0,0.0,0.0,0.0,0.0,0.0,0.0,0.0,0.0,0.3026,0.2678,0.2606,0.0,0.0,0.0,0.0,0.0844,0.0905,0.0,0.0,0.0,0.0,0.0,0.0,0.0,0.0,0.0,0.0,0.0,0.0,0.0,0.0,0.0,0.0,0.0,0.0,0.0,0.0,0.0,0.0,0.0,0.0,0.0,0.0,0.0,0.0,0.0,0.0,0.0,0.0,0.0,0.0,0.0,0.0,0.0,0.0,0.0,0.0,0.0,0.0,0.0,0.0,0.0,0.0,0.0,0.0,0.0,0.0,0.0,0.0,0.0,0.0,0.0,0.0,1.6611,1.8649,2.1564,2.5203,2.4407,2.3559,2.2948,1.7316,1.3891,0.0,0.0,0.0,0.0,0.0,0.0,0.0,0.0,0.0,0.0,0.0,0.0,0.0,0.0,0.0,0.0,0.0,0.0,0.0,0.0,0.0,0.0,0.0,0.0,0.0,0.0,0.0,0.0,0.0,0.0,0.0,0.0,0.0,0.0,0.0,0.0,0.0,0.0,0.0,0.0,0.0,0.2331,0.4141,0.2743,0.2003,0.0,0.0,0.0,0.2014,0.249,0.0,0.0,0.0,0.0,0.0,0.0,0.0,0.0,0.0,0.0,0.0,0.0,0.0,0.0,0.0,0.0,0.0,0.0,0.0,0.0,0.0,0.0,0.0,0.0,0.0,0.0,0.0,0.0,0.0,0.0,0.0,0.0,0.0,0.0,0.0,0.0,0.0,0.0,0.0,0.0,0.0,0.0,0.0,0.0,0.0,0.0,0.0,0.0,0.0,0.0,0.0,0.0,0.0,0.0,0.0,1.4567,1.658,1.9671,2.2175,2.3904,2.3151,2.2424,2.1941,1.6321,1.3313,0.0,0.0,0.0,0.0,0.0,0.0,0.0,0.0,0.0,0.0,0.0,0.0,0.0,0.0,0.0,0.0,0.0,0.0,0.0,0.0,0.0,0.0,0.0,0.0,0.0,0.0,0.0,0.0,0.0,0.0,0.0,0.0,0.0,0.0,0.0,0.0,0.0,0.0,0.0,0.0,0.0,0.0,0.4819,0.41,0.0,0.0,0.0,0.2427,0.326,0.0,0.0,0.0,0.0,0.0,0.0,0.0,0.0,0.0,0.0,0.0,0.0,0.0,0.0,0.0,0.0,0.0,0.0,0.0,0.0,0.0,0.0,0.0,0.0,0.0,0.0,0.0,0.0,0.0,0.0,0.0,0.0,0.0,0.0,0.0,0.0,0.0,0.0,0.0,0.0,0.0,0.0,0.0,0.0,0.0,0.0,0.0,0.0,0.0,0.0,0.0,0.0,0.0,0.0,0.0,0.0,0.0,1.6204,2.0628,2.2839,2.2686,2.2239,2.179,2.1257,1.6243,0.0,0.0,0.0,0.0,0.0,0.0,0.0,0.0,0.0,0.0,0.0,0.0,0.0,0.0,0.0,0.0,0.0,0.0,0.0,0.0,0.0,0.0,0.0,0.0,0.0,0.0,0.0,0.4475,0.0,0.0,0.0,0.0,0.0,0.0,0.0,0.0,0.0,0.0,0.0,0.0,0.0,0.0,0.454,0.5614,0.5013,0.4762,0.0,0.0,0.3627,0.4636,0.4799,0.4862,0.0,0.0,0.0,0.0,0.0,0.0,0.0,0.0,0.0,0.0,0.0,0.0,0.0,0.0,0.0,0.0,0.0,0.0,0.0,0.0,0.0,0.0,0.0,0.0,0.0,0.0,0.0,0.0,0.0,0.0,0.0,0.0,0.0,0.0,0.0,0.0,0.0,0.0,0.0,0.0,0.0,0.0,0.0,0.0,0.0,0.0,0.0,0.0,0.0,0.0,0.0,0.0,0.0,0.0,0.0,1.5023,1.9917,2.2232,2.1553,2.1678,2.163,2.1322,1.7022,1.4013,0.0,0.0,0.0,0.0,0.0,0.0,0.0,0.0,0.0,0.0,0.0,0.0,0.0,0.0,0.0,0.0,0.0,0.0,0.0,0.0,0.0,0.0,0.0,0.0,0.0,0.0,0.0,0.0,0.0,0.0,0.0,0.0,0.0,0.0,0.0,0.0,0.0,0.0,0.0,0.0,0.0,0.3918,0.6922,0.4671,0.4148,0.0,0.0,0.521,0.6256,0.8046,0.8753,0.6956,0.0,0.0,0.0,0.0,0.0,0.0,0.0,0.0,0.0,0.0,0.0,0.0,0.0,0.0,0.0,0.0,0.0,0.0,0.0,0.0,0.0,0.0,0.0,0.0,0.0,0.0,0.0,0.0,0.0,0.0,0.0,0.0,0.0,0.0,0.0,0.0,0.0,0.0,0.0,0.0,0.0,0.0,0.0,0.0,0.0,0.0,0.0,0.0,0.0,0.0,0.0,0.0,0.0,1.5428,1.4547,1.9141,2.1632,2.1703,2.1417,2.0962,2.0312,1.6858,1.397,0.0,0.0,0.0,0.0,0.0,0.0,0.0,0.0,0.0,0.0,0.0,0.0,0.0,0.0,0.0,0.0,0.0,0.0,0.0,0.0,0.0,0.0,0.0,0.0,0.0,0.0,0.0,0.0,0.5827,0.5565,0.5606,0.0,0.0,0.0,0.0,0.0,0.0,0.0,0.0,0.0,0.0,0.5211,0.7707,0.7166,0.0,0.0,0.8562,0.7376,0.7124,0.7573,0.7557,0.6375,0.5835,0.0,0.0,0.0,0.0,0.0,0.0,0.0,0.0,0.0,0.0,0.0,0.0,0.0,0.0,0.0,0.0,0.0,0.0,0.0,0.0,0.0,0.0,0.0,0.0,0.0,0.0,0.0,0.0,0.0,0.0,0.0,0.0,0.0,0.0,0.0,0.0,0.0,0.0,0.0,0.0,0.0,0.0,0.0,0.0,0.0,0.0,0.0,0.0,0.0,0.0,0.0,0.0,1.56,1.461,1.9195,2.1672,2.1898,2.1736,2.1166,2.0097,1.7882,1.5455,0.0,0.0,0.0,0.0,0.0,0.0,0.0,0.0,0.0,0.0,0.0,0.0,0.0,0.0,0.0,0.0,0.0,0.0,0.0,0.0,0.0,0.0,0.0,0.0,0.0,0.0,0.0,0.0,0.6533,0.6324,0.6405,0.0,0.0,0.0,0.0,0.0,0.0,0.0,0.0,0.0,0.0,0.617,0.7649,0.8031,0.8491,0.9438,0.8948,0.8287,0.7832,0.7671,0.7279,0.6366,0.0,0.0,0.0,0.0,0.0,0.0,0.0,0.0,0.0,0.0,0.0,0.0,0.0,0.0,0.0,0.0,0.0,0.0,0.0,0.0,0.0,0.0,0.0,0.0,0.0,0.0,0.0,0.0,0.0,0.0,0.0,0.0,0.0,0.0,0.0,0.0,0.0,0.0,0.0,0.0,0.0,0.0,0.0,0.0,0.0,0.0,0.0,0.0,0.0,0.0,0.0,0.0,0.0,1.6173,1.5264,2.0286,2.2615,2.1965,2.2746,2.2488,2.1215,2.0637,1.8981,1.6085,0.0,0.0,0.0,0.0,0.0,0.0,0.0,0.0,0.0,0.0,0.0,0.0,0.0,0.0,0.0,0.0,0.0,0.0,0.0,0.0,0.0,0.0,0.0,0.0,0.0,0.0,0.5809,0.6398,0.7183,0.0,0.0,0.0,0.0,0.0,0.0,0.0,0.0,0.0,0.0,0.5639,0.6422,0.6591,0.644,0.6659,0.728,0.7315,0.7565,0.8375,0.8987,0.8936,0.0,0.0,0.0,0.0,0.0,0.0,0.0,0.0,0.0,0.0,0.0,0.0,0.0,0.0,0.0,0.0,0.0,0.0,0.0,0.0,0.0,0.0,0.0,0.0,0.0,0.0,0.0,1.6676,1.6183,0.0,0.0,0.0,0.0,0.0,0.0,0.0,0.0,0.0,0.0,0.0,2.478,2.3289,0.0,0.0,0.0,0.0,0.0,0.0,0.0,0.0,0.0,0.0,0.0,0.0,1.6139,1.5509,2.0441,2.3044,2.2895,2.3058,2.2627,2.1504,2.0852,1.894,1.5694,0.0,0.0,0.0,0.0,0.0,0.0,0.0,0.0,0.0,0.0,0.0,0.0,0.0,0.0,0.0,0.0,0.0,0.0,0.0,0.0,0.0,0.0,0.0,0.0,0.0,0.7732,0.0,0.0,0.0,0.0,0.0,0.0,0.0,0.0,0.0,0.0,0.0,0.4791,0.4424,0.4848,0.5319,0.5619,0.7091,0.8168,0.0,0.0,0.0,0.0,0.0,0.0,0.0,0.0,0.0,0.0,0.0,0.0,0.0,0.0,0.5369,0.5837,0.6455,0.6848,0.6738,0.0,0.0,0.0,0.0,0.0,0.0,0.0,0.0,0.0,0.0,0.0,0.0,0.0,0.0,0.0,0.0,1.9489,0.0,0.0,0.0,0.0,0.0,0.0,0.0,0.0,2.3607,2.5527,2.7408,2.5651,2.4904,0.0,2.4652,2.196,0.0,0.0,0.0,0.0,0.0,0.0,0.0,0.0,1.7332,1.6068,2.1483,2.4188,2.367,2.3973,2.3501,2.2218,2.1269,1.969,1.7363,1.5517,1.3681,0.0,0.0,0.0,0.0,0.0,0.0,0.0,0.0,0.0,0.0,0.0,0.0,0.0,0.0,0.0,0.0,0.0,0.0,0.0,0.0,0.0,0.0,0.0,0.8828,0.0,0.0,0.0,0.0,0.0,0.0,0.0,0.0,0.0,0.6142,0.555,0.5178,0.5262,0.559,0.5666,0.5229,0.0,0.0,0.0,0.0,0.0,0.0,0.0,0.6721,0.6349,0.6585,0.7046,0.7752,0.7582,0.7475,0.7788,0.0,0.0,0.7588,0.7779,0.8046,0.8215,0.7521,0.6755,0.6461,0.5258,0.4231,0.0,0.0,0.0,0.0,0.0,0.0,0.0,0.0,2.55,2.4243,0.0,2.3267,0.0,0.0,0.0,0.0,0.0,0.0,0.0,0.0,2.9643,3.0889,2.8343,2.7484,2.6929,2.6437,2.4311,2.2963,2.2592,2.2553,0.0,0.0,0.0,0.0,0.0,0.0,1.9549,1.7196,2.3393,2.5896,2.4244,2.529,2.5032,2.327,2.2051,2.1369,2.1035,1.8121,1.6481,1.652,1.2956,0.0,0.0,0.0,0.0,0.0,0.0,0.0,0.0,0.0,0.0,0.0,0.0,0.0,0.0,0.0,0.0,0.0,0.0,0.0,0.0,0.8806,0.0,0.0,0.0,0.0,0.0,0.0,0.0,0.0,0.0,0.0,0.764,0.6673,0.632,0.7097,0.0,0.0,0.0,0.0,0.7441,0.4921,0.591,0.6999,0.7081,0.7336,0.7581,0.7729,0.0,0.0,0.8689,0.808,0.7984,0.8747,0.9063,0.8966,0.795,0.7958,0.818,0.8628,0.8218,0.7559,0.7047,0.5966,0.4848,3.0152,0.0,0.0,0.0,0.0,2.6431,2.8217,3.0758,3.0229,2.9341,2.8154,2.762,0.0,0.0,0.0,0.0,0.0,0.0,2.4029,2.8033,2.9579,3.0792,3.1865,3.2086,3.1553,3.0331,2.9622,2.8862,2.8071,2.8098,2.4803,1.8439,0.0,0.0,0.0,0.0,1.9665,2.0853,2.4718,2.6169,2.4909,2.5536,2.5249,2.3906,2.3067,2.2631,2.2592,2.1675,2.0288,1.8383,1.7043,0.0,0.0,0.0,0.0,0.0,0.0,0.0,0.0,0.0,0.0,0.0,0.0,0.0,0.0,0.0,0.0,0.0,0.0,0.0,1.1767,1.0621,0.9507,0.0,0.0,0.0,0.0,0.0,0.0,0.0,0.0,0.0,0.8643,0.7134,0.592,0.0,0.0,0.5262,0.4685,0.6203,0.71,0.6279,0.0,0.0,0.0,0.8449,0.8346,0.9032,0.9729,1.0267,1.0339,1.0238,1.0245,1.0483,0.9826,0.9294,0.961,0.9622,0.9597,0.9521,0.8862,0.8028,0.7308,0.6639,0.5798,3.7851,3.3841,3.1342,3.079,3.1645,3.177,3.3241,3.5541,3.5096,3.4194,3.2978,3.2391,3.0047,2.6423,2.4483,0.0,0.0,0.0,2.7548,3.2827,3.2211,3.2975,3.4756,3.4577,3.4087,3.3395,3.2753,3.2041,3.1307,3.0079,2.6956,2.2016,0.0,0.0,1.8695,2.0745,2.214,2.3001,2.5923,2.6985,2.5848,2.5891,2.5317,2.4177,2.3717,2.3432,2.3189,2.2997,2.2024,2.0216,1.8806,1.6469,0.0,0.0,0.0,0.0,0.0,0.0,0.0,0.0,0.0,0.0,0.0,1.2277,0.0,0.0,0.0,0.0,1.1145,1.092,1.131,1.0355,0.0,0.0,0.0,0.0,0.0,0.0,0.0,0.7757,0.7895,0.8297,0.8798,0.801,0.7389,0.7406,0.6867,0.6373,0.6025,0.0,0.7963,0.7576,0.8317,0.9078,0.9522,0.9475,0.9713,1.0581,1.1149,1.1443,1.1363,1.1427,1.1424,1.123,1.0523,1.0037,1.0353,1.0337,1.0202,1.0038,0.9069,0.8032,0.7364,0.6615,0.5662,4.3626,4.3097,3.6385,3.4745,3.6531,3.6325,3.7553,3.9707,3.9662,3.8538,3.672,3.6991,3.4335,2.953,2.6044,0.0,0.0,2.9885,3.2292,3.7542,3.667,3.6561,3.6998,3.5501,3.5111,3.5733,3.4131,3.3203,3.2671,2.9943,2.8117,2.7317,2.757,2.6121,2.3152,2.5172,2.5522,2.393,2.6702,2.7732,2.6769,2.6185,2.5344,2.4232,2.4136,2.3893,2.3351,2.2793,2.2292,2.1868,1.9059,1.7029,1.6061,0.0,0.0,0.0,0.0,0.0,0.0,0.0,0.0,0.0,0.0,0.0,0.0,0.0,0.0,0.0,1.0478,0.0,0.9162,0.9026,0.0,0.0,0.0,1.1223,1.0724,1.0059,0.9507,0.9311,0.0,0.0,0.0,0.0,1.008,1.0752,1.0147,0.9392,0.8642,0.9185,0.9492,0.8738,0.9345,0.99,1.008,1.0588,1.1263,1.1997,1.2305,1.2164,1.1931,1.181,1.1717,1.147,1.1184,1.0924,1.0546,1.0362,1.0176,1.0164,0.8864,0.7726,0.7381,0.6163,0.5049,4.6044,4.6888,4.3638,4.2048,4.1741,4.2074,4.2076,4.183,4.1423,4.042,3.9058,3.8373,3.653,3.3869,3.2718,3.3096,3.4562,3.44,3.5394,3.7233,3.7987,3.7784,3.6897,3.7056,3.665,3.5805,3.4527,3.3672,3.3104,3.1802,3.0021,2.7971,2.815,2.6364,2.2628,2.2656,2.3307,2.438,2.4691,2.5293,2.6077,2.5968,2.5534,2.4829,2.4788,2.472,2.4584,2.4015,2.32,2.2201,2.0423,1.7933,1.4714,1.4148,0.0,0.0,0.0,0.0,0.0,0.0,0.0,0.0,0.0,1.3259,1.1554,0.0,1.2146,0.0,0.9034,1.0168,1.2846,1.2009,0.0,0.0,1.2532,1.2203,0.9795,1.1117,1.1449,0.9501,1.0096,1.0782,1.1009,1.1223,1.1657,1.2418,1.0902,0.9606,0.9419,1.012,1.0615,1.0481,1.1062,1.167,1.163,1.1837,1.2044,1.2265,1.2311,1.2278,1.2218,1.1817,1.1503,1.141,1.1049,1.0704,1.0624,1.0405,1.0219,0.9955,0.8706,0.7461,0.7262,0.6177,0.5235,4.6216,4.6609,4.5776,4.4914,4.4094,4.4436,4.4037,4.3119,4.2739,4.1869,4.0613,3.9093,3.765,3.6393,3.5734,3.5818,3.649,3.6866,3.7386,3.8076,3.9046,3.903,3.8225,3.7568,3.7368,3.7259,3.5183,3.4176,3.4362,3.3441,3.2077,3.0418,3.0264,2.8461,2.5077,2.3646,2.3237,2.391,2.404,2.4815,2.6267,2.6565,2.5842,2.4065,2.3985,2.3541,2.2604,2.1765,2.1126,2.0686,1.9436,1.7611,1.5193,1.4345,1.3228,0.0,0.0,0.0,0.0,0.0,0.0,0.0,0.0,0.0,0.0,0.0,1.2675,0.0,1.0944,0.0,1.3391,1.2694,1.2217,1.2421,1.3561,1.3654,1.2135,1.3422,1.3923,1.2735,1.29,1.3142,1.3314,1.3047,1.2934,1.3454,1.2367,1.1512,1.1337,1.1583,1.1777,1.1797,1.2071,1.2305,1.2305,1.2418,1.2498,1.2505,1.2505,1.2498,1.2485,1.2124,1.1737,1.1463,1.1056,1.0701,1.0531,1.0364,1.0238,0.9792,0.8877,0.7916,0.7364,0.6323,0.5363,4.5541,4.5065,4.5582,4.5489,4.5041,4.5073,4.4636,4.3873,4.3649,4.2786,4.1394,3.9309,3.8173,3.7681,3.6797,3.6807,3.7521,3.8132,3.8713,3.9233,3.9979,4.022,3.9939,3.7754,3.7462,3.8652,3.5514,3.4458,3.5465,3.4323,3.3395,3.2679,3.2061,3.0429,2.7853,2.5735,2.4021,2.2763,2.4129,2.5338,2.6383,2.6702,2.5432,2.2605,2.2352,2.1416,1.9564,1.8539,1.815,1.8449,1.7484,1.676,1.6402,1.4342,1.3587,0.0,1.2976,0.0,0.0,0.0,0.0,0.0,0.0,0.0,0.0,1.2255,1.3642,1.5528,1.3861,1.2761,1.2877,1.2822,1.2871,1.3204,1.4553,1.5588,1.5898,1.6202,1.6433,1.6724,1.5944,1.5428,1.5234,1.4646,1.418,1.4057,1.3901,1.3611,1.3392,1.3178,1.3113,1.3105,1.2661,1.2492,1.2498,1.2659,1.2889,1.2882,1.2882,1.2882,1.2882,1.2552,1.2178,1.1677,1.1329,1.0956,1.0489,1.043,1.0283,0.9938,0.9332,0.8608,0.7687,0.6433,0.5408,4.6589,4.7613,4.7044,4.6581,4.6172,4.6126,4.5471,4.4345,4.3922,4.2506,4.0446,3.9205,3.8373,3.7913,3.7918,3.8026,3.8295,3.9088,3.9455,3.9525,4.0587,4.0617,3.9728,3.8302,3.7449,3.6852,3.422,3.3282,3.3914,3.2362,3.0774,2.9192,2.8797,2.7332,2.4983,0.0,0.0,0.0,2.4386,2.5729,2.4471,2.3146,2.1969,2.0861,1.9986,0.0,1.8955,1.8767,1.8273,1.7424,1.6749,0.0,0.0,0.0,0.0,0.0,0.0,0.0,0.0,0.0,0.0,0.0,1.5611,1.4858,1.4205,1.2742,1.2719,1.4717,1.3382,1.3175,1.5184,1.5664,1.6299,1.7334,1.8027,1.8285,1.7796,1.7614,1.7437,1.7106,1.676,1.6403,1.5936,1.5695,1.536,1.4771,1.4566,1.4483,1.4296,1.454,1.4657,1.4396,1.3564,1.3026,1.3039,1.3073,1.312,1.312,1.312,1.3126,1.3113,1.2872,1.2565,1.2178,1.1897,1.1516,1.0949,1.085,1.0698,1.0289,0.9983,0.946,0.849,0.6763,0.5505,4.6132,0.0,4.6549,4.6274,0.0,4.6488,4.6034,4.4876,4.4038,4.2356,4.024,3.9812,3.9398,3.9147,3.9002,3.9061,3.9328,4.0076,4.0354,4.0334,4.1295,4.1314,4.0381,3.8696,3.7695,3.7237,3.4208,3.3356,3.4298,3.2861,3.1777,3.1297,3.0811,3.0107,2.9163,2.8792,2.683,2.316,2.4763,2.539,2.4921,2.4329,2.3076,2.1157,0.0,0.0,0.0,0.0,0.0,0.0,0.0,0.0,0.0,0.0,0.0,1.8755,1.9278,1.9719,2.0019,2.0145,1.9949,1.9432,1.96,1.8577,1.5893,1.4998,1.5298,1.7022,1.6059,1.6006,1.7471,1.7861,1.8262,1.8887,1.916,1.9209,1.9022,1.891,1.891,1.888,1.8415,1.7942,1.7641,1.718,1.6854,1.6453,1.637,1.6445,1.6561,1.5614,1.4633,1.423,1.4043,1.36,1.3333,1.342,1.3494,1.342,1.3427,1.3487,1.3621,1.3267,1.2872,1.2565,1.2171,1.1717,1.1323,1.1096,1.0883,1.0601,1.0335,0.9989,0.9268,0.7752,0.6379,4.5359,4.5561,4.5829,4.5865,4.586,4.6716,4.6443,4.5327,0.0,0.0,0.0,4.027,4.0224,4.0083,3.9601,3.959,4.0037,4.0669,4.0916,4.0866,4.1535,4.141,4.0713,3.8703,3.7839,3.7721,3.452,3.377,3.5085,3.3592,3.3212,3.3883,3.3287,3.318,3.3645,3.2558,3.0235,2.6768,2.555,2.5189,2.567,2.566,2.4345,2.1576,2.1848,2.1176,1.9438,1.954,1.9812,2.0246,1.9772,1.9661,1.9973,1.9945,1.9842,1.9613,1.9993,2.0519,2.1162,2.1632,2.2259,2.3075,2.3389,2.1832,1.7551,1.7994,1.8711,1.9599,1.9103,1.8877,1.9248,1.9355,1.9394,1.9394,1.9463,1.9658,1.998,2.0029,2.009,2.042,1.9904,1.946,1.9213,1.8647,1.8167,1.7997,1.7836,1.8238,1.8532,1.6694,1.5079,1.4721,1.4706,1.4353,1.3783,1.3957,1.4049,1.3783,1.3674,1.3734,1.3861,1.3607,1.318,1.2856,1.2331,1.1951,1.1583,1.1336,1.1049,1.0811,1.0549,1.0296,0.9996,0.8846,0.7559,4.5447,4.6829,4.6597,4.6774,4.7296,4.7342,4.6621,4.5356,4.3646,4.1888,4.0256,3.9804,3.9449,3.923,3.891,3.9112,3.9598,4.0005,4.005,0.0,4.0432,4.0246,3.9421,3.8008,3.7069,3.6418,3.4214,3.3648,3.4254,3.2417,3.1805,3.2382,3.1434,3.0941,3.1072,3.0349,2.9397,2.826,2.7074,2.5901,2.4849,2.2502,2.1037,2.0536,1.9778,1.9118,1.8845,1.9391,1.9639,1.9726,1.9651,2.0275,2.1686,2.1811,2.2409,2.3642,2.3777,2.3749,2.3539,2.3583,2.3615,2.364,2.3089,2.2173,2.0918,2.0893,2.0504,1.9541,1.9272,1.9219,1.9307,1.9619,1.9824,1.9853,2.0156,2.041,2.0449,2.0459,2.0478,2.0557,2.0489,2.0098,1.946,1.9222,1.8886,1.8238,1.8318,1.8158,1.831,1.7705,1.7243,1.7033,1.6327,1.5464,1.4868,1.4866,1.4873,1.4379,1.396,1.3769,1.3721,1.3614,1.334,1.2859,1.2639,1.2439,1.1911,1.1784,1.1523,1.1095,1.0857,1.0607,1.0354,0.9592,0.8782,4.4764,4.5937,4.6566,4.6965,4.7148,4.6973,4.657,4.5894,4.4131,4.2737,4.168,4.1449,4.0684,3.9564,3.9701,3.931,3.8517,3.9233,3.9154,3.8531,3.9244,3.9218,3.8482,3.7519,3.7003,3.6649,3.4159,3.3344,3.4044,3.235,3.1527,3.1668,3.0867,3.0266,2.9967,2.9734,2.9045,2.8062,2.7466,2.6578,2.5257,2.3636,2.2761,2.272,2.2222,2.1985,2.1998,2.2568,2.2855,2.2867,2.2593,2.2905,2.3954,2.4042,2.4316,2.4946,2.5294,2.5185,2.4676,2.4518,2.437,2.4141,2.3665,2.2936,2.1711,2.1172,2.0503,1.9738,1.9629,1.9736,1.9951,2.0146,2.0264,2.0264,2.0459,2.0566,2.0576,2.0576,2.0576,2.0576,2.0576,2.0411,2.0098,2.001,1.9932,1.945,1.9362,1.9362,1.9362,1.8877,1.8318,1.7819,1.7334,1.6846,1.6273,1.6238,1.5967,1.5056,1.4853,1.4461,1.3845,1.3446,1.3167,1.3074,1.2742,1.2438,1.2111,1.1964,1.175,1.1583,1.1255,1.1042,1.0876,1.0392,0.9451,4.403,4.4997,4.5956,4.6464,4.6698,4.6586,4.6551,4.6392,4.4763,4.3516,4.2625,4.2382,4.1181,3.9404,3.9662,3.8893,3.7524,3.817,3.813,3.7592,3.8159,3.8154,3.74,3.6819,3.6543,3.6244,3.4018,3.3185,3.3643,3.2431,3.1391,3.0801,3.0306,2.9808,2.929,2.9145,2.8519,2.7537,2.7379,2.6865,2.5922,2.5353,2.5038,2.501,2.4971,2.4983,2.5021,2.5511,2.585,2.5937,2.5473,2.5423,2.5925,2.585,2.5732,2.5647,2.6034,2.5946,2.5115,2.4699,2.4448,2.4241,2.3902,2.3243,2.2006,2.0987,2.0353,2.0075,2.0059,2.0195,2.0459,2.0547,2.0566,2.0566,2.0576,2.0576,2.0576,2.0576,2.0576,2.0576,2.0576,2.0576,2.0576,2.0576,2.0566,2.0489,2.0576,2.0576,2.0489,2.001,1.9283,1.863,1.831,1.7997,1.7568,1.7384,1.6908,1.5841,1.5599,1.5028,1.4041,1.3437,1.3008,1.2988,1.2629,1.2365,1.2285,1.2138,1.1957,1.183,1.165,1.153,1.1441,1.088,0.9869,4.3576,4.4696,4.4599,4.5194,4.6501,4.6513,4.6568,4.6584,4.5391,4.3791,4.1931,4.0595,3.9083,3.7559,3.7197,3.6818,3.6211,3.6729,3.7044,3.6975,3.7272,3.6836,3.594,3.571,3.5045,3.4303,3.3769,3.3436,3.3091,3.2127,3.0908,2.9444,2.9209,2.8979,2.8541,2.804,2.7616,2.7471,2.6921,2.6557,2.6413,2.587,2.5539,2.5523,2.5523,2.5523,2.5498,2.6088,2.6603,2.703,2.6553,2.654,2.6967,2.671,2.6377,2.6364,2.644,2.6057,2.5087,2.4169,2.3745,2.3655,2.299,2.2542,2.2252,2.141,2.0767,2.0566,2.0566,2.0498,2.0634,2.0576,2.0576,2.0576,2.0576,2.0576,2.0576,2.0576,2.0576,2.0576,2.0576,2.0576,2.0576,2.0576,2.0576,2.0576,2.0576,2.0576,2.0566,2.0489,2.0323,2.0089,1.9696,1.8886,1.8257,1.7863,1.762,1.6916,1.5972,1.5163,1.4386,1.3841,1.3575,1.2839,1.2485,1.2371,1.2392,1.2265,1.2204,1.2044,1.1917,1.183,1.1759,1.1326,1.0099,4.3288,4.4814,4.5263,4.5907,4.6609,4.5834,4.552,4.5413,4.3445,4.2167,4.1215,3.8739,3.7131,3.6496,3.6608,3.6326,3.5852,3.6902,3.7289,3.7117,3.7424,3.7457,3.7197,3.6571,3.6098,3.5708,3.484,3.3936,3.3041,3.1487,3.0012,2.9017,2.8367,2.7978,2.7747,2.7528,2.725,2.693,2.6987,2.6791,2.644,2.59,2.5762,2.6038,2.5774,2.5586,2.5649,2.6151,2.6414,2.6327,2.6389,2.6553,2.6848,2.6647,2.6521,2.6465,2.6025,2.537,2.4564,2.4009,2.357,2.3117,2.2703,2.2176,2.1731,2.1282,2.1051,2.0964,2.0722,2.0576,2.0566,2.0576,2.0576,2.0576,2.0576,2.0576,2.0576,2.0576,2.0576,2.0576,2.0576,2.0576,2.0576,2.0576,2.0576,2.0576,2.0576,2.0576,2.0576,2.0576,2.0576,2.0566,2.0255,2.001,1.9552,1.9142,1.8552,1.769,1.6834,1.5929,1.4494,1.3622,1.3044,1.2828,1.2726,1.2712,1.2843,1.2789,1.2752,1.2458,1.2198,1.2124,1.2124,1.1906,1.1095,4.3196,4.4805,4.5781,4.6279,4.6407,4.5184,4.4753,4.4516,4.2051,4.0886,4.0436,3.7377,3.5953,3.5938,3.6261,3.6109,3.6084,3.7304,3.7946,3.777,3.8121,3.8337,3.8453,3.7105,3.6716,3.6704,3.4946,3.3558,3.2638,3.0721,2.9225,2.8378,2.7507,2.698,2.6949,2.6912,2.6793,2.6553,2.6866,2.6929,2.6666,2.6276,2.6189,2.6458,2.605,2.5837,2.5837,2.6251,2.6352,2.6088,2.6327,2.6609,2.6678,2.6609,2.6396,2.6094,2.5441,2.4636,2.3841,2.3475,2.3043,2.251,2.2306,2.2025,2.1502,2.1282,2.1282,2.1272,2.0964,2.0731,2.0654,2.0644,2.0566,2.0576,2.0576,2.0576,2.0576,2.0576,2.0576,2.0576,2.0576,2.0576,2.0576,2.0576,2.0576,2.0576,2.0576,2.0576,2.0576,2.0576,2.0576,2.0576,2.0566,2.0566,2.0527,1.9878,1.9126,1.8573,1.773,1.665,1.5059,1.3969,1.3071,1.3292,1.3117,1.2953,1.3041,1.316,1.3113,1.2812,1.2525,1.2318,1.2265,1.2291,1.207,4.3466,4.4832,4.5447,4.5692,4.5618,4.483,4.4854,4.4899,4.2064,4.0388,3.9285,3.6973,3.5814,3.5604,3.5764,3.6016,3.6754,3.7695,3.8502,3.9183,3.9487,3.9372,3.873,3.6726,3.6038,3.6339,3.4047,3.2154,3.1002,2.9868,2.8537,2.7221,2.6701,2.6294,2.6175,2.6214,2.6237,2.6514,2.6691,2.6804,2.7193,2.7218,2.6954,2.6659,2.6521,2.6533,2.6477,2.6546,2.6716,2.7193,2.6841,2.6779,2.7143,2.6779,2.6251,2.5477,2.4659,2.3863,2.3172,2.251,2.2088,2.1925,2.1956,2.1828,2.1803,2.1599,2.1502,2.1512,2.1272,2.1041,2.0896,2.0731,2.0644,2.0576,2.0576,2.0576,2.0576,2.0576,2.0576,2.0576,2.0576,2.0576,2.0576,2.0576,2.0576,2.0576,2.0576,2.0576,2.0576,2.0576,2.0576,2.0576,2.0576,2.0576,2.0488,2.0039,1.9448,1.9024,1.8413,1.7613,1.6549,1.543,1.4494,1.3747,1.3413,1.3186,1.322,1.3186,1.3113,1.2893,1.2592,1.2418,1.2418,1.2331,1.2157,4.3923,4.5408,4.5476,4.5341,4.4956,4.4055,4.3632,4.3464,4.0292,3.9023,3.8668,3.6025,3.5325,3.6596,3.6596,3.7098,3.8126,3.912,4.0099,4.0971,4.0814,4.0827,4.0746,3.8624,3.7211,3.6557,3.4657,3.2692,3.0787,2.9782,2.8854,2.7954,2.6863,2.6265,2.6298,2.6788,2.6902,2.6834,2.753,2.7971,2.7821,2.7808,2.7708,2.7532,2.7507,2.7519,2.7519,2.8197,2.836,2.7846,2.8285,2.8348,2.7858,2.762,2.6974,2.5937,2.5516,2.4846,2.3665,2.321,2.29,2.2714,2.2408,2.2252,2.219,2.1917,2.1731,2.1665,2.1512,2.1359,2.1282,2.0974,2.0741,2.0644,2.0576,2.0586,2.0576,2.0576,2.0576,2.0576,2.0576,2.0576,2.0596,2.0576,2.0576,2.0576,2.0576,2.0576,2.0576,2.0576,2.0596,2.0576,2.0576,2.0576,2.0566,2.0107,1.9678,1.9432,1.887,1.7815,1.6693,1.5829,1.4919,1.4166,1.3735,1.3608,1.3662,1.348,1.336,1.3253,1.2933,1.2559,1.2661,1.2432,1.2338,4.462,4.5675,4.5572,4.5363,4.4993,4.3974,4.3187,4.2361,3.9448,3.8205,3.7765,3.5493,3.5378,3.6885,3.7651,3.8605,3.9659,4.0475,4.1467,4.2585,4.2308,4.2188,4.1854,3.9813,3.8212,3.7015,3.4982,3.2889,3.078,2.95,2.8533,2.7855,2.6384,2.575,2.5949,2.6461,2.6675,2.6956,2.7765,2.8276,2.8525,2.8637,2.8837,2.9076,2.9013,2.8725,2.8423,2.8963,2.9026,2.8549,2.895,2.89,2.821,2.8109,2.7556,2.6529,2.6334,2.5816,2.4599,2.415,2.3827,2.3594,2.3054,2.2718,2.2697,2.2428,2.2273,2.2242,2.201,2.1824,2.1802,2.1527,2.1055,2.08,2.0771,2.0703,2.0596,2.0576,2.0576,2.0596,2.0723,2.0781,2.0781,2.0781,2.0801,2.0781,2.0684,2.0605,2.0732,2.0781,2.0781,2.0781,2.081,2.083,2.085,2.0596,2.0088,1.9771,1.9589,1.8375,1.7097,1.6228,1.541,1.4648,1.4234,1.4117,1.4047,1.3864,1.3701,1.3627,1.316,1.2672,1.2599,1.2478,1.2378,4.5538,4.5737,4.5778,4.5735,4.563,4.4763,4.3605,4.1897,3.9862,3.8173,3.7023,3.5813,3.5865,3.6905,3.8667,4.0174,4.1091,4.148,4.2359,4.3627,4.374,4.3379,4.2611,4.0176,3.8194,3.703,3.4346,3.2252,3.071,2.899,2.7645,2.6616,2.5466,2.4903,2.506,2.5326,2.5803,2.6671,2.7215,2.8096,2.9551,2.9767,3.0181,3.0947,3.0658,2.9967,2.9013,2.8586,2.8649,2.89,2.8586,2.8185,2.8285,2.826,2.7841,2.7174,2.6926,2.655,2.5812,2.4949,2.4421,2.4244,2.3689,2.3184,2.3184,2.3101,2.3049,2.2977,2.2739,2.2567,2.2695,2.2311,2.162,2.1055,2.1105,2.1074,2.0781,2.0605,2.0586,2.0674,2.0928,2.1201,2.123,2.123,2.123,2.1172,2.0967,2.0859,2.1162,2.124,2.124,2.124,2.123,2.123,2.124,2.1102,2.0674,2.0187,2.008,1.9383,1.7854,1.6834,1.6094,1.5294,1.4538,1.4413,1.4079,1.3901,1.3801,1.3647,1.316,1.2923,1.2835,1.2735,1.2398,4.5408,4.5479,4.5723,4.5807,4.5593,4.4086,4.2848,4.1667,3.8855,3.7662,3.7607,3.6042,3.6406,3.828,3.9348,4.0501,4.1932,4.3024,4.3903,4.438,4.4782,4.4573,4.3647,4.1648,3.8691,3.5337,3.2916,3.1519,3.0578,2.8852,2.7641,2.6941,2.5699,2.4895,2.4798,2.5777,2.6714,2.7137,2.8579,2.9783,3.0382,3.0721,3.0909,3.0821,3.0683,3.0419,3.0105,2.993,2.993,3.0055,2.993,2.9666,2.934,2.9264,2.8925,2.8312,2.7709,2.7008,2.6163,2.5371,2.48,2.4439,2.3992,2.3763,2.3619,2.3381,2.3236,2.3215,2.3049,2.306,2.3082,2.3043,2.2625,2.1929,2.1765,2.1631,2.1406,2.1182,2.1045,2.1035,2.1152,2.1348,2.1602,2.168,2.168,2.168,2.1523,2.1514,2.1631,2.168,2.168,2.1689,2.168,2.168,2.168,2.168,2.1426,2.1045,2.0771,2.0224,1.877,1.7586,1.6806,1.5823,1.5054,1.4468,1.4223,1.4008,1.3908,1.3748,1.3487,1.3272,1.3216,1.2862,1.2438,4.5223,4.5693,4.5746,4.5807,4.5656,4.4366,4.2953,4.1351,3.8959,3.7767,3.733,3.6195,3.7127,3.9519,4.095,4.2528,4.4131,4.5565,4.6101,4.5857,4.5703,4.531,4.4077,4.1119,3.7736,3.4295,3.2147,3.1143,3.0615,2.9042,2.7945,2.7365,2.6475,2.5771,2.5425,2.6292,2.7001,2.7408,2.9142,3.0355,3.0807,3.1572,3.1863,3.1537,3.1135,3.1035,3.1135,3.0658,3.0419,3.0532,3.0432,3.0131,2.9817,2.9754,2.9628,2.9276,2.8756,2.8035,2.7158,2.6358,2.548,2.5062,2.444,2.4126,2.4074,2.3815,2.3701,2.3681,2.3536,2.3505,2.3608,2.3483,2.3284,2.2878,2.2458,2.2154,2.1997,2.165,2.1494,2.1504,2.1631,2.1836,2.2031,2.2119,2.2119,2.2109,2.1982,2.1992,2.2051,2.2119,2.2119,2.2119,2.2119,2.2119,2.2119,2.2119,2.2119,2.1885,2.165,2.0799,1.9589,1.8642,1.7854,1.6133,1.5021,1.4601,1.4328,1.423,1.4156,1.3953,1.3709,1.3478,1.3256,1.2763,1.2385,4.5005,4.6119,4.592,4.576,4.5665,4.5356,4.3514,4.1009,3.976,3.8194,3.6599,3.6446,3.8007,4.0604,4.3003,4.5048,4.7177,4.8263,4.8329,4.7665,4.693,4.5714,4.3843,3.9613,3.6219,3.3917,3.2176,3.1195,3.0739,2.9363,2.8411,2.7935,2.7427,2.7024,2.6651,2.6661,2.711,2.7557,2.8876,3.0109,3.0951,3.2241,3.3043,3.2905,3.1976,3.1574,3.1562,3.0658,3.0143,3.0432,3.008,2.9854,2.9792,2.9779,2.9767,2.9549,2.9611,2.8912,2.8187,2.6977,2.6191,2.5484,2.4829,2.454,2.4457,2.4395,2.4364,2.4364,2.4095,2.4064,2.4206,2.4008,2.3693,2.369,2.3182,2.2666,2.2085,2.1924,2.1924,2.1973,2.2256,2.2519,2.251,2.2549,2.2549,2.249,2.2275,2.2314,2.2432,2.2549,2.2549,2.2549,2.2549,2.2549,2.2549,2.2549,2.2539,2.248,2.2162,2.1389,2.0254,1.9251,1.8355,1.6622,1.5262,1.4853,1.4482,1.4448,1.4261,1.4049,1.3835,1.3655,1.3341,1.2804,1.2532,4.5107,4.5144,4.5586,4.5491,4.4875,4.3974,4.2265,3.9993,3.8491,3.8127,3.7857,3.7155,3.895,4.2467,4.3971,4.5546,4.7513,4.9387,4.9597,4.8669,4.8029,4.6081,4.3325,3.9604,3.6638,3.497,3.2605,3.1319,3.1091,2.9777,2.8887,2.8431,2.8017,2.7562,2.7243,2.7776,2.8125,2.844,2.9633,3.0777,3.1765,3.2635,3.3101,3.3043,3.2353,3.1675,3.1148,3.0645,3.0218,3.0005,2.9892,2.9779,2.9817,2.9804,2.9571,2.9138,2.8327,2.7487,2.6659,2.5863,2.52,2.4946,2.47,2.455,2.455,2.455,2.455,2.4529,2.4416,2.4395,2.4413,2.433,2.418,2.3973,2.3471,2.2908,2.2546,2.2353,2.2353,2.2363,2.2471,2.2646,2.2852,2.293,2.2939,2.292,2.2842,2.2754,2.2842,2.29,2.2871,2.2949,2.2969,2.2969,2.2969,2.2969,2.2969,2.2969,2.2591,2.2045,2.0647,1.9246,1.8329,1.7138,1.5834,1.5245,1.4851,1.467,1.4433,1.4033,1.3787,1.3564,1.3521,1.3212,1.2889,4.4529,4.4354,4.5333,4.5346,4.4681,4.4134,4.2831,4.097,3.9668,3.9063,3.9133,3.8616,4.0331,4.3944,4.5338,4.7133,4.9141,5.0727,5.0921,4.9805,4.7748,4.5043,4.205,3.932,3.7288,3.5146,3.3133,3.1727,3.0826,2.9942,2.928,2.8763,2.8742,2.8556,2.8193,2.8589,2.8764,2.8892,2.9943,3.1009,3.1112,3.2438,3.2744,3.2561,3.2249,3.1775,3.106,3.0934,3.0595,3.0055,3.0005,3.0143,3.0118,2.9905,2.9745,2.9604,2.8583,2.7637,2.6724,2.5903,2.5049,2.4667,2.455,2.455,2.455,2.455,2.455,2.454,2.455,2.455,2.4454,2.4454,2.4368,2.413,2.3924,2.3495,2.308,2.3031,2.3031,2.2955,2.2965,2.2938,2.3115,2.3144,2.3144,2.3125,2.3183,2.3153,2.3105,2.3232,2.3232,2.3144,2.3144,2.3096,2.3066,2.3066,2.3008,2.3037,2.2687,2.2226,2.1265,1.9685,1.882,1.7855,1.6584,1.5619,1.5277,1.4784,1.4207,1.3867,1.3662,1.3568,1.3522,1.3436,1.3205,4.3791,4.3785,4.5162,4.5255,4.4674,4.5109,4.3924,4.2509,4.1543,4.0747,4.0073,4.0091,4.1889,4.5171,4.6706,4.9064,5.1425,5.1924,5.1453,4.972,4.6825,4.3334,4.0734,3.9165,3.7317,3.521,3.3733,3.2103,3.0895,3.0297,2.9621,2.9094,2.9518,2.9694,2.9249,2.932,2.9083,2.9036,2.9813,3.0286,3.0341,3.1596,3.2213,3.2168,3.235,3.2127,3.1675,3.1512,3.1185,3.0118,3.0482,3.0658,3.0633,3.0206,3.0248,3.0686,2.9697,2.874,2.7916,2.6885,2.598,2.5034,2.4778,2.4674,2.4788,2.484,2.483,2.485,2.4685,2.4757,2.4567,2.444,2.4282,2.4257,2.4398,2.4361,2.4042,2.3951,2.3894,2.373,2.3652,2.3535,2.331,2.3232,2.3262,2.3349,2.3368,2.3457,2.3398,2.3319,2.3232,2.3144,2.3144,2.3144,2.3135,2.3135,2.3047,2.2969,2.2568,2.21,2.1741,2.0558,1.9609,1.8579,1.7383,1.6366,1.5531,1.4961,1.4237,1.3994,1.3985,1.3787,1.3593,1.3476,1.3287,4.4273,4.3854,4.5178,4.498,4.3994,4.3977,4.3039,4.1421,4.0894,4.072,4.0482,4.0586,4.2694,4.596,4.7415,4.9382,5.1483,5.2056,5.0909,4.7384,4.5369,4.2602,4.027,3.8644,3.7525,3.6191,3.4162,3.2568,3.1603,3.0689,3.0004,2.9586,2.9703,2.9932,2.9777,2.9446,2.9477,2.9528,2.944,2.971,3.0362,3.0696,3.1481,3.2124,3.2649,3.2641,3.2277,3.2478,3.2365,3.1813,3.1461,3.1424,3.1235,3.106,3.0904,3.0584,3.0252,2.9186,2.7805,2.737,2.6734,2.58,2.556,2.5595,2.5595,2.5544,2.5554,2.5585,2.5585,2.5368,2.5109,2.4671,2.4547,2.4522,2.479,2.4927,2.4886,2.4834,2.4786,2.4836,2.4726,2.4666,2.4266,2.4486,2.4237,2.3721,2.3662,2.3791,2.3682,2.3436,2.327,2.3057,2.3135,2.3135,2.3144,2.3086,2.293,2.2744,2.2363,2.1924,2.1492,2.1156,2.0066,1.9181,1.8188,1.7147,1.602,1.5233,1.4489,1.4416,1.4241,1.4008,1.379,1.3623,1.3579,4.4248,4.34,4.4642,4.4398,4.336,4.3866,4.3223,4.1741,4.1763,4.15,4.128,4.1807,4.3725,4.6254,4.7829,4.9703,5.1236,5.1904,5.0511,4.7541,4.5132,4.3057,4.1045,3.9018,3.768,3.7039,3.5616,3.3958,3.2619,3.1505,3.0665,2.9914,2.9743,2.963,2.9756,2.9538,2.957,2.9818,2.9549,2.9597,3.0019,3.0415,3.1179,3.2551,3.3415,3.3671,3.3495,3.3947,3.3884,3.3458,3.3068,3.2516,3.1825,3.1562,3.1377,3.1477,3.0689,3.0167,2.9097,2.8121,2.7334,2.6626,2.6235,2.5976,2.5885,2.5885,2.5885,2.5885,2.5844,2.5751,2.5533,2.514,2.4902,2.4815,2.5088,2.5233,2.5217,2.5358,2.5452,2.5462,2.5321,2.5139,2.5118,2.5209,2.5018,2.4376,2.4243,2.4323,2.372,2.3474,2.3219,2.3026,2.3066,2.3038,2.3135,2.3018,2.2783,2.25,2.2109,2.1592,2.1128,2.0776,2.0395,1.9525,1.8702,1.7407,1.6269,1.5522,1.4874,1.4567,1.4377,1.4168,1.4074,1.407,1.3931,4.4138,4.2932,4.3972,4.3814,4.3068,4.3972,4.3453,4.2286,4.2774,4.2304,4.2062,4.3114,4.4453,4.6432,4.816,4.9887,5.0959,5.1164,4.9767,4.7021,4.5145,4.3125,4.1325,3.9453,3.7998,3.7134,3.6346,3.5017,3.3634,3.2386,3.1608,3.0662,3.0014,3.0246,3.029,3.0045,3.0327,3.07,3.0547,3.0274,3.0274,3.0734,3.1757,3.2909,3.402,3.446,3.4537,3.4851,3.5064,3.4776,3.4726,3.3909,3.2805,3.2039,3.1976,3.298,3.1859,3.116,3.0593,2.9504,2.8466,2.77,2.6918,2.6305,2.6246,2.6216,2.6237,2.6154,2.6123,2.5989,2.5865,2.5554,2.5316,2.5275,2.5306,2.543,2.5523,2.5813,2.6053,2.5777,2.5726,2.5513,2.5462,2.5534,2.5361,2.5139,2.4995,2.4649,2.4032,2.3551,2.3325,2.3103,2.3153,2.3125,2.3135,2.292,2.2685,2.2422,2.1992,2.1475,2.0937,2.0701,2.0432,1.9888,1.8976,1.7863,1.6828,1.6061,1.5427,1.4855,1.4545,1.4452,1.4494,1.4457,1.433,4.4399,4.346,4.3702,4.3719,4.3595,4.2953,4.2474,4.1916,4.1643,4.1741,4.2361,4.3071,4.4742,4.6578,4.8009,4.9106,4.9955,5.0072,4.8477,4.5804,4.4277,4.2889,4.0443,3.9346,3.842,3.7719,3.6874,3.5742,3.467,3.3529,3.2695,3.2529,3.1962,3.1901,3.1916,3.2225,3.1894,3.2129,3.1739,3.1558,3.1735,3.1814,3.2187,3.3251,3.4158,3.4603,3.4735,3.476,3.4813,3.4726,3.4726,3.4336,3.3684,3.3081,3.2905,3.2955,3.2771,3.2192,3.1583,3.1168,2.9998,2.8943,2.8202,2.7679,2.7243,2.6962,2.6827,2.6765,2.6548,2.6289,2.5906,2.5699,2.5554,2.5513,2.574,2.6134,2.6248,2.6465,2.6641,2.6311,2.6084,2.5929,2.593,2.5798,2.5583,2.5329,2.5142,2.4676,2.4028,2.3734,2.3597,2.3424,2.3202,2.3135,2.3144,2.2842,2.2578,2.2412,2.2031,2.1582,2.1113,2.0771,2.042,2.0125,1.9552,1.8665,1.7738,1.6774,1.6106,1.5506,1.5189,1.486,1.4816,1.4735,1.4462,4.4861,4.3654,4.3846,4.3752,4.3575,4.3657,4.2797,4.1636,4.1657,4.1759,4.2242,4.3269,4.4721,4.6369,4.7923,4.8776,4.9091,4.907,4.7534,4.5268,4.3773,4.2436,4.0025,3.9144,3.8288,3.774,3.7095,3.6324,3.5319,3.4711,3.366,3.2413,3.2329,3.2402,3.2366,3.2373,3.2776,3.307,3.2851,3.2655,3.2995,3.3118,3.3433,3.3421,3.4183,3.4703,3.4858,3.5116,3.5362,3.5574,3.5592,3.5253,3.4675,3.3997,3.3382,3.3181,3.3093,3.2982,3.2351,3.1989,3.0878,2.9704,2.9095,2.8269,2.7631,2.722,2.7179,2.692,2.6775,2.6382,2.5927,2.572,2.5451,2.5357,2.5678,2.5896,2.5999,2.633,2.6475,2.6537,2.6372,2.6258,2.6351,2.6104,2.5764,2.5506,2.5269,2.4723,2.4044,2.3917,2.381,2.3471,2.3231,2.3232,2.3144,2.2949,2.2695,2.248,2.2207,2.1758,2.1387,2.1094,2.0791,2.0469,1.9872,1.9366,1.8461,1.7557,1.6822,1.6139,1.5666,1.5301,1.5109,1.4962,1.4626,4.5131,4.3848,4.3701,4.3513,4.3382,4.4026,4.315,4.1516,4.1758,4.1903,4.1911,4.3344,4.4803,4.6129,4.7436,4.8322,4.8399,4.8048,4.7094,4.5502,4.361,4.2076,4.0906,3.927,3.8028,3.8088,3.7359,3.6772,3.5556,3.5065,3.3908,3.2931,3.2732,3.2893,3.3051,3.3807,3.3738,3.4059,3.4199,3.4152,3.415,3.4593,3.4581,3.3662,3.4278,3.4535,3.4185,3.4715,3.5222,3.566,3.5931,3.6056,3.5504,3.4713,3.3997,3.3495,3.3232,3.3093,3.2921,3.2623,3.1805,3.0566,2.9645,2.8773,2.7978,2.7704,2.722,2.6734,2.6558,2.6289,2.5792,2.5637,2.5451,2.5306,2.5409,2.5554,2.574,2.5999,2.6268,2.6341,2.6382,2.6403,2.6382,2.5771,2.5316,2.5388,2.5073,2.4825,2.4303,2.411,2.3973,2.3401,2.3132,2.3193,2.3144,2.3144,2.293,2.2764,2.251,2.2139,2.1797,2.1484,2.1201,2.0977,2.0486,1.9869,1.9101,1.8327,1.7513,1.6788,1.6147,1.5621,1.5374,1.5249,1.4992,4.4951,4.4414,4.2668,4.254,4.3295,4.2621,4.193,4.1472,4.1013,4.1351,4.2207,4.3135,4.4526,4.5977,4.6978,4.746,4.7336,4.734,4.6581,4.5052,4.3842,4.2731,4.1612,3.9412,3.8795,3.8618,3.7677,3.6546,3.5565,3.4841,3.4366,3.3755,3.3312,3.3916,3.5324,3.5573,3.6872,3.7233,3.7221,3.675,3.6031,3.5966,3.5475,3.4667,3.4137,3.3646,3.311,3.3652,3.4222,3.4497,3.5672,3.5975,3.5629,3.5479,3.5052,3.4424,3.3746,3.3093,3.3257,3.3221,3.2806,3.1598,3.088,3.0221,2.9026,2.8019,2.7365,2.6651,2.6548,2.6266,2.5868,2.5916,2.5834,2.574,2.5689,2.6082,2.631,2.5854,2.6103,2.6185,2.6248,2.6258,2.6237,2.5451,2.4702,2.4923,2.4974,2.465,2.4495,2.4303,2.4196,2.373,2.3325,2.328,2.3232,2.3144,2.3096,2.2969,2.2783,2.251,2.2187,2.1894,2.1797,2.1491,2.1015,2.0528,1.9761,1.8994,1.8193,1.7513,1.6788,1.6147,1.5492,1.5359,1.5309,4.3637,4.3428,4.2765,4.2767,4.3162,4.2623,4.2141,4.1643,4.0801,4.1146,4.2286,4.2656,4.3737,4.5228,4.5725,4.5712,4.5566,4.6138,4.5694,4.4877,4.4157,4.349,4.2249,4.0642,3.9767,3.911,3.7947,3.6282,3.5308,3.5064,3.4766,3.2911,3.3629,3.4188,3.5933,3.6362,3.6579,3.6822,3.6886,3.6847,3.6483,3.6275,3.5584,3.3993,3.3781,3.3012,3.2395,3.2273,3.3053,3.3578,3.4812,3.5377,3.5297,3.5344,3.5378,3.5165,3.4148,3.3759,3.3972,3.3947,3.3168,3.2338,3.1573,3.0628,2.9311,2.8285,2.7704,2.7451,2.6585,2.6145,2.5865,2.5581,2.5425,2.542,2.5792,2.6341,2.6558,2.6175,2.5999,2.6051,2.6061,2.5978,2.5823,2.5213,2.4674,2.4716,2.4788,2.4598,2.4485,2.4292,2.4196,2.4013,2.3637,2.3406,2.3319,2.3232,2.3144,2.3066,2.3066,2.2793,2.2529,2.2314,2.2217,2.2012,2.1637,2.1043,2.0377,1.9645,1.8887,1.8103,1.7423,1.6656,1.5959,1.5536,1.5396,4.2598,4.2381,4.2728,4.2748,4.2703,4.2722,4.241,4.186,4.1321,4.1485,4.2194,4.2776,4.3596,4.4556,4.5061,4.5228,4.4559,4.5288,4.5314,4.5061,4.4462,4.3929,4.2931,4.1609,4.005,3.9929,3.8371,3.6862,3.5877,3.5223,3.4257,3.1529,3.3136,3.4367,3.4821,3.5625,3.6332,3.6567,3.6346,3.6351,3.6634,3.6772,3.5819,3.4615,3.3669,3.3051,3.2141,3.206,3.2574,3.2993,3.4018,3.4674,3.48,3.512,3.5307,3.5244,3.47,3.4424,3.4387,3.4122,3.3417,3.2714,3.198,3.1003,2.9068,2.8124,2.7589,2.7522,2.7594,2.6961,2.6431,2.5738,2.5732,2.5732,2.5668,2.6289,2.6682,2.6237,2.6041,2.6185,2.603,2.5482,2.5264,2.4871,2.4612,2.456,2.456,2.4506,2.4578,2.4553,2.4497,2.4384,2.4122,2.3789,2.3446,2.3349,2.3251,2.3154,2.3154,2.3066,2.2803,2.2685,2.2627,2.2383,2.2109,2.1851,2.1361,2.0448,1.9571,1.8531,1.7521,1.7032,1.6412,1.5944,1.5639,4.2344,4.1752,4.1814,4.1728,4.1597,4.2135,4.2138,4.1936,4.2528,4.2364,4.2317,4.3334,4.4169,4.4872,4.5516,4.5565,4.5157,4.6488,4.6512,4.5849,4.4959,4.4482,4.3568,4.2007,4.0184,4.0581,3.9285,3.7989,3.6952,3.6191,3.4448,3.2338,3.2775,3.4253,3.5081,3.5369,3.5927,3.6133,3.599,3.6199,3.6908,3.734,3.7122,3.6033,3.5037,3.4046,3.3109,3.2681,3.2336,3.2312,3.3277,3.3958,3.4225,3.457,3.4822,3.4895,3.4885,3.4653,3.4392,3.4109,3.3671,3.3083,3.2317,3.1164,2.9231,2.9948,2.9227,2.7466,2.7655,2.7575,2.7144,2.6684,2.6304,2.6177,2.5989,2.6392,2.661,2.6206,2.6072,2.6289,2.6061,2.5564,2.5347,2.5099,2.4695,2.4612,2.4778,2.4819,2.5099,2.5093,2.5005,2.4849,2.4672,2.4255,2.3642,2.3525,2.3418,2.3281,2.3223,2.3184,2.3057,2.2998,2.29,2.2832,2.2598,2.249,2.2353,2.1572,2.0501,1.8797,1.7716,1.7269,1.6591,1.6015,1.5911,4.1899,4.179,4.1781,4.1733,4.1587,4.1564,4.1761,4.2091,4.2067,4.2361,4.2669,4.3239,4.3515,4.3945,4.4778,4.4846,4.4224,4.571,4.5978,4.5674,4.5063,4.5205,4.4556,4.3491,4.2164,4.2176,4.0681,3.9055,3.82,3.7619,3.5831,3.4172,3.2715,3.2721,3.3585,3.4397,3.4642,3.5001,3.5603,3.6166,3.6308,3.7394,3.7494,3.6452,3.5303,3.4159,3.3101,3.2286,3.1805,3.1753,3.2466,3.2857,3.3081,3.3511,3.395,3.4138,3.4123,3.3942,3.39,3.3702,3.3671,3.3058,3.2259,3.1215,2.9635,2.9746,2.9216,2.8278,2.7812,2.7644,2.7659,2.6913,2.6302,2.6277,2.6413,2.6693,2.6693,2.6372,2.6341,2.6662,2.6268,2.574,2.5616,2.5523,2.5057,2.4695,2.4881,2.5109,2.542,2.5627,2.5537,2.5458,2.5188,2.4947,2.4446,2.4039,2.3732,2.3516,2.333,2.3281,2.3242,2.3125,2.3047,2.3047,2.3047,2.2871,2.2725,2.2588,2.1597,2.0053,1.8637,1.7557,1.6891,1.6021,1.6073,4.1774,4.21,4.2092,4.197,4.1776,4.1463,4.1676,4.2169,4.2115,4.2379,4.3241,4.3227,4.2931,4.3093,4.4347,4.4411,4.4182,4.487,4.521,4.4969,4.4747,4.5211,4.4921,4.3992,4.2716,4.3251,4.1983,4.017,3.968,3.9273,3.7617,3.5511,3.3461,3.3025,3.2393,3.2338,3.2646,3.3519,3.4055,3.573,3.5944,3.7213,3.8152,3.7224,3.6502,3.5338,3.4318,3.3345,3.2053,3.1685,3.1689,3.1895,3.2042,3.2275,3.271,3.2874,3.2847,3.2759,3.2715,3.3122,3.3408,3.3057,3.2176,3.1205,3.026,2.9452,2.9165,2.8143,2.7761,2.7764,2.8119,2.7338,2.6917,2.7003,2.6755,2.6879,2.7013,2.6879,2.6931,2.7044,2.6527,2.6082,2.5968,2.5885,2.5606,2.5264,2.5467,2.5726,2.5947,2.6092,2.6082,2.6001,2.5818,2.5645,2.5361,2.4746,2.4206,2.3831,2.3634,2.3467,2.3398,2.3301,2.3301,2.3369,2.333,2.3203,2.3105,2.3114,2.233,2.1339,1.9719,1.7818,1.6553,1.5833,1.5972,4.2071,4.2751,4.2772,4.2482,4.2186,4.2085,4.217,4.2333,4.2816,4.3289,4.3596,4.3528,4.3107,4.3089,4.4701,4.4748,4.4066,4.4698,4.5043,4.4621,4.4016,4.3979,4.4001,4.363,4.3322,4.2831,4.2221,4.166,4.1339,4.071,3.9284,3.7554,3.565,3.3484,3.2477,3.0953,3.1102,3.2464,3.2313,3.427,3.6179,3.7397,3.8264,3.8613,3.7847,3.6614,3.5853,3.4472,3.3122,3.2131,3.1594,3.1593,3.1527,3.1538,3.1838,3.2135,3.2305,3.1926,3.117,3.2366,3.2847,3.2822,3.1877,3.1274,3.0478,2.9897,2.9376,2.8232,2.8585,2.8603,2.8373,2.7904,2.7747,2.7463,2.7222,2.7055,2.72,2.721,2.72,2.7189,2.6879,2.6527,2.6392,2.6258,2.6072,2.6027,2.6239,2.6347,2.6547,2.6558,2.6548,2.6548,2.6465,2.6208,2.59,2.5237,2.4764,2.4356,2.4088,2.3969,2.3791,2.3702,2.3722,2.3691,2.3564,2.3477,2.3516,2.3654,2.2785,2.1788,1.9634,1.7895,1.6536,1.5782,1.5972,4.2716,4.3404,4.3469,4.3646,4.3701,4.3101,4.2915,4.2879,4.2872,4.3113,4.3431,4.3128,4.2723,4.3021,4.3814,4.4384,4.369,4.4209,4.4447,4.3573,4.333,4.4058,4.424,4.4112,4.4118,4.4571,4.4128,4.335,4.3463,4.2685,4.1867,4.0352,3.7329,3.4082,3.1727,3.0462,3.1118,3.114,3.2023,3.3791,3.592,3.7227,3.8384,3.9465,3.8489,3.7701,3.7121,3.5606,3.4142,3.2769,3.2219,3.1409,3.1116,3.0904,3.0721,3.0965,3.1127,3.1454,3.1476,3.2156,3.2126,3.1928,3.1746,3.1147,3.032,3.0152,2.9311,2.8589,2.8785,2.8709,2.8446,2.8338,2.8188,2.7855,2.7603,2.7417,2.7396,2.7303,2.7251,2.7241,2.7034,2.7024,2.6941,2.6755,2.6558,2.6475,2.667,2.6806,2.6879,2.6982,2.7024,2.7024,2.6919,2.6773,2.6441,2.5865,2.5448,2.5197,2.4987,2.4786,2.4575,2.4246,2.4147,2.4077,2.391,2.3762,2.387,2.383,2.3277,2.1998,2.0033,1.8145,1.6635,1.6137,1.6111,4.3074,4.37,4.4006,4.4518,4.4856,4.3819,4.3205,4.3061,4.2622,4.2737,4.3069,4.2772,4.2514,4.268,4.3139,4.3315,4.2596,4.2717,4.2999,4.2212,4.2892,4.3488,4.4122,4.4586,4.4864,4.5566,4.5247,4.4531,4.4392,4.4543,4.361,4.1603,3.9007,3.607,3.3373,3.23,3.132,3.1361,3.2306,3.3027,3.4966,3.6456,3.782,3.8594,3.857,3.8287,3.7404,3.6293,3.4904,3.384,3.2652,3.155,3.1011,3.0412,3.0099,3.0172,3.0155,3.0634,3.0854,3.1057,3.0953,3.0914,3.1196,3.1004,3.0166,2.9775,2.9317,2.8744,2.8649,2.8638,2.8638,2.8669,2.8545,2.8204,2.81,2.7914,2.781,2.7728,2.7541,2.75,2.7489,2.7489,2.7458,2.7272,2.7076,2.7034,2.7003,2.7127,2.721,2.7231,2.7272,2.7251,2.7241,2.7063,2.6896,2.6594,2.6286,2.602,2.5724,2.5522,2.5289,2.4965,2.4715,2.4565,2.4496,2.4356,2.4295,2.4065,2.3281,2.2161,2.0624,1.8726,1.6888,1.6416,1.6294,4.3221,4.3769,4.448,4.5207,4.5437,4.4082,4.314,4.2673,4.2459,4.2407,4.2354,4.2756,4.2331,4.2005,4.2292,4.1998,4.1491,4.0857,4.1095,4.15,4.2345,4.314,4.3891,4.4508,4.5049,4.5238,4.507,4.4907,4.4719,4.4957,4.4296,4.2712,4.0703,3.8549,3.6655,3.4624,3.3117,3.2659,3.1797,3.2777,3.4482,3.5722,3.6979,3.7983,3.8792,3.8546,3.7898,3.6916,3.5758,3.4509,3.302,3.2273,3.1495,3.0609,3.0297,2.988,2.9663,2.9824,3.0045,3.0205,3.0205,3.0356,3.0526,3.0341,3.0056,2.96,2.9262,2.905,2.897,2.8856,2.8783,2.8804,2.8804,2.868,2.8649,2.8524,2.8421,2.8266,2.8038,2.7955,2.7945,2.7935,2.7903,2.7748,2.7583,2.7417,2.7345,2.7251,2.7303,2.7241,2.7272,2.7272,2.7262,2.7262,2.7115,2.6958,2.6781,2.6462,2.6296,2.602,2.5805,2.5704,2.549,2.536,2.5127,2.5027,2.5007,2.4173,2.3041,2.1925,2.1125,1.9282,1.7416,1.6669,1.6455,4.5107,4.491,4.5841,4.606,4.5589,4.4465,4.3442,4.2769,4.2607,4.2199,4.1451,4.2085,4.1609,4.0142,4.039,4.027,4.0055,3.9934,4.0473,4.126,4.2506,4.3274,4.4041,4.4731,4.5234,4.5372,4.5347,4.5347,4.5723,4.5773,4.5114,4.3818,4.2491,4.1548,4.0003,3.8117,3.5718,3.3683,3.2176,3.2922,3.417,3.5391,3.6421,3.7524,3.8638,3.8551,3.8181,3.7266,3.6284,3.5561,3.4108,3.3106,3.2039,3.1495,3.0991,3.0088,2.9849,2.9902,3.0099,3.0181,3.016,3.0253,3.0391,3.0444,3.0208,2.9908,2.9487,2.9425,2.9394,2.9352,2.9342,2.9342,2.9249,2.9145,2.9104,2.9011,2.8887,2.8659,2.8452,2.84,2.84,2.8349,2.8307,2.8255,2.8079,2.7862,2.7686,2.7583,2.7407,2.7355,2.7272,2.7272,2.7272,2.7272,2.7272,2.7125,2.7084,2.7012,2.6825,2.6689,2.6658,2.6462,2.638,2.602,2.5694,2.5625,2.5673,2.4655,2.3496,2.2831,2.1989,1.9877,1.806,1.7454,1.6847,4.5212,4.5174,4.6006,4.6008,4.5305,4.4264,4.3421,4.2871,4.2703,4.2117,4.1604,4.1535,4.0774,3.9598,3.902,3.8648,3.8732,3.8886,3.9594,4.1422,4.303,4.3916,4.4618,4.5045,4.5372,4.5485,4.556,4.5673,4.6125,4.6225,4.5668,4.4375,4.4002,4.2879,4.1076,3.8919,3.6913,3.5113,3.407,3.3976,3.4515,3.5346,3.6133,3.6706,3.7676,3.7892,3.7848,3.685,3.6493,3.6145,3.4944,3.4063,3.2994,3.2307,3.1084,3.0297,2.9973,3.0047,3.0151,3.0151,3.0276,3.0297,3.0297,3.0359,3.0245,3.0057,2.9974,2.987,2.9922,2.9953,2.9973,2.9963,2.9777,2.9611,2.9539,2.9466,2.9259,2.9032,2.8928,2.8866,2.8814,2.8752,2.8711,2.869,2.8566,2.8328,2.8183,2.8131,2.7821,2.75,2.7365,2.7272,2.7272,2.7272,2.7282,2.7303,2.7241,2.721,2.7189,2.7094,2.7282,2.728,2.7123,2.6645,2.6111,2.6094,2.6197,2.5127,2.4084,2.3534,2.2924,2.1322,1.952,1.8087,1.7644,4.425,4.474,4.5365,4.5222,4.4642,4.3743,4.3258,4.2951,4.2607,4.231,4.1951,4.1226,4.0393,3.9123,3.8074,3.7629,3.7768,3.8082,3.9462,4.1367,4.3124,4.4292,4.4756,4.5359,4.5158,4.5271,4.5334,4.5284,4.5899,4.5912,4.5316,4.4527,4.3415,4.2411,4.1254,3.9055,3.7458,3.7217,3.6126,3.5685,3.5223,3.5497,3.5802,3.5165,3.5573,3.6062,3.6045,3.5845,3.5819,3.578,3.55,3.4738,3.3522,3.2308,3.1002,3.0401,2.9994,2.9994,3.0099,3.0099,3.0203,3.0203,3.0193,3.0193,3.0193,3.0088,2.9994,2.9994,2.9994,2.9994,2.9994,2.9994,2.988,2.9818,2.9787,2.9746,2.9653,2.9477,2.9384,2.9321,2.9249,2.9208,2.9259,2.9228,2.9042,2.8783,2.8659,2.8628,2.8338,2.7872,2.7738,2.7552,2.7469,2.7489,2.7417,2.7407,2.7293,2.7262,2.7282,2.7272,2.7272,2.7552,2.7903,2.739,2.687,2.672,2.6505,2.5752,2.5119,2.4287,2.3568,2.2657,2.1247,1.9717,1.8682,4.5138,4.4373,4.4288,4.4125,4.4037,4.375,4.3457,4.2981,4.29,4.2222,4.131,4.1296,4.0181,3.7954,3.769,3.7263,3.6968,3.7969,3.932,4.143,4.3413,4.4192,4.438,4.4731,4.4606,4.4305,4.4292,4.4644,4.4773,4.4928,4.4865,4.4386,4.3195,4.215,4.1494,3.9156,3.8029,3.8057,3.7502,3.6665,3.6077,3.627,3.6485,3.5943,3.6028,3.5699,3.5514,3.5253,3.5244,3.5187,3.5005,3.3993,3.2376,3.1187,3.0391,3.0099,2.9994,2.9994,2.9994,2.9994,3.0099,3.0099,3.0099,3.0099,3.0005,2.9994,2.9994,2.9994,2.9994,2.9994,2.9994,2.9994,2.9994,2.9994,2.9994,2.9994,2.9994,2.9911,2.9808,2.9746,2.9663,2.9684,2.9735,2.9653,2.9487,2.9321,2.9187,2.9063,2.8804,2.8462,2.8493,2.8297,2.7903,2.7821,2.7676,2.7552,2.7469,2.7376,2.7376,2.7334,2.7324,2.7696,2.7992,2.7981,2.7698,2.739,2.7239,2.7115,2.6344,2.5377,2.4727,2.4085,2.3289,2.1928,2.0712,4.4464,4.3997,4.3775,4.3733,4.3747,4.3474,4.3405,4.3257,4.2787,4.2203,4.1601,4.1337,3.9899,3.747,3.7324,3.7243,3.695,3.7889,3.9961,4.2045,4.3288,4.4016,4.4254,4.4217,4.4104,4.3865,4.4091,4.4239,4.3689,4.4274,4.4465,4.3222,4.226,4.153,4.0775,3.8677,3.7553,3.7837,3.7348,3.7047,3.6738,3.7227,3.6967,3.6402,3.5396,3.5132,3.5125,3.4757,3.456,3.4847,3.509,3.408,3.2678,3.1483,3.0599,3.0193,2.9994,2.9994,2.9994,2.9994,2.9994,2.9994,2.9994,3.0005,3.0005,2.9994,2.9994,2.9994,2.9994,2.9994,2.9994,2.9994,2.9994,2.9994,2.9994,2.9994,2.9994,2.9963,2.9911,2.9891,2.9849,2.986,2.9891,2.988,2.9746,2.9725,2.9622,2.9601,2.9321,2.9166,2.9177,2.9125,2.8783,2.8193,2.7852,2.7748,2.7676,2.7583,2.7603,2.7748,2.7924,2.7992,2.8167,2.8115,2.8043,2.7919,2.7821,2.7624,2.7376,2.6479,2.6037,2.5648,2.483,2.4047,2.3233,4.2916,4.3421,4.349,4.3569,4.3558,4.32,4.3319,4.3599,4.2817,4.2708,4.2813,4.159,3.9704,3.8156,3.7417,3.7271,3.7539,3.8353,4.04,4.2246,4.3426,4.379,4.394,4.3991,4.3802,4.3663,4.3597,4.2885,4.2031,4.261,4.2348,4.1105,4.0358,3.9731,3.8193,3.6645,3.567,3.5901,3.6002,3.6796,3.7287,3.8031,3.7382,3.6082,3.4735,3.4414,3.4429,3.4035,3.3656,3.4276,3.4787,3.3784,3.2689,3.1494,3.0785,3.0193,2.9994,2.9994,2.9994,2.9994,2.9994,2.9994,2.9994,2.9994,2.9994,3.0077,3.0077,3.0087,3.0087,3.0025,3.0025,3.0015,3.0015,2.9994,2.9994,2.9994,2.9994,2.9994,2.9994,2.9994,2.9994,2.9994,2.9994,2.9994,2.9994,2.9994,3.0025,3.0046,3.0025,2.9973,2.9953,2.9963,2.9818,2.9156,2.8462,2.8214,2.8255,2.8245,2.8328,2.8411,2.8493,2.8487,2.8435,2.8276,2.8214,2.8307,2.809,2.7821,2.7476,2.7228,2.6886,2.6462,2.6151,2.5491,2.5471,4.1857,4.2066,4.2558,4.2845,4.29,4.3315,4.3662,4.3867,4.417,4.4079,4.3537,4.2791,4.1073,3.8265,3.8233,3.8043,3.8035,3.8768,4.0249,4.2108,4.3263,4.3463,4.3514,4.3639,4.3489,4.32,4.2556,4.1571,4.0925,4.0622,4.0188,3.958,3.8044,3.7384,3.6854,3.5477,3.4391,3.4642,3.5078,3.5772,3.7725,3.8194,3.8301,3.702,3.5422,3.4186,3.3205,3.2189,3.2566,3.3189,3.3831,3.3235,3.2297,3.1403,3.0599,3.0193,2.9994,2.9994,2.9994,2.9994,2.9994,2.9994,2.9994,2.9994,3.0108,3.0367,3.0377,3.0429,3.0367,3.016,3.0118,3.0087,3.0077,3.0025,2.9994,2.9994,2.9994,2.9994,2.9994,2.9994,2.9994,2.9994,2.9994,2.9994,2.9994,3.0015,3.0077,3.0129,3.0305,3.047,3.0646,3.0626,3.0605,3.0377,2.9787,2.9208,2.9094,2.9052,2.899,2.898,2.899,2.9021,2.8897,2.8504,2.8597,2.8783,2.8493,2.7924,2.779,2.7552,2.7355,2.7074,2.6886,2.6658,2.6327]}]]